GFSMA_sfc_temp_000.txt.gz
Temp
71 72 74 74 74 74 74 74 73 73 73 74 74 74 75 74 76 78 77 79 80 81 83 82 83 82 82 81 82 81 81 81 81 81 81 81 81 80 80 80 80 80 79
72 72 73 73 73 73 74 73 73 72 72 73 73 74 74 75 74 76 78 77 79 81 81 82 82 82 82 82 82 82 81 81 81 81 80 80 80 80 80 80 80 80 79
72 72 71 72 72 73 73 72 72 72 72 72 72 72 73 73 74 74 77 76 77 79 80 82 82 82 81 83 82 82 81 81 80 80 80 80 80 80 79 79 79 79 79
74 72 71 70 72 72 72 72 70 70 70 70 70 71 71 72 73 74 76 77 76 78 78 80 81 81 82 82 82 82 81 81 80 80 80 80 79 79 79 79 79 79 78
75 73 71 71 72 71 70 70 70 69 69 69 70 72 72 72 72 75 74 74 76 77 79 79 79 80 83 84 82 81 80 81 80 80 80 79 79 79 79 79 78 78 78
75 73 71 71 72 70 70 69 68 69 69 68 70 71 70 71 72 73 74 76 75 76 77 77 77 78 79 82 81 81 81 81 79 79 79 79 79 79 78 78 78 78 78
74 73 72 72 71 70 71 70 69 68 68 68 67 68 69 70 71 72 74 75 75 76 76 76 76 76 77 78 79 81 81 82 81 80 79 79 78 78 78 77 77 77 77
74 73 72 71 71 70 70 70 68 67 68 68 66 63 62 68 70 72 72 73 71 73 74 74 74 75 75 76 77 78 79 80 81 81 80 79 78 78 78 77 77 77 77
74 73 72 72 71 70 69 69 69 68 67 68 68 65 61 61 63 69 70 70 69 68 69 71 73 73 74 74 75 75 76 75 78 81 81 80 78 78 77 77 77 76 76
73 73 72 71 70 69 69 69 70 68 67 66 67 67 67 66 61 61 68 68 69 70 68 69 70 71 72 73 74 73 72 73 75 77 79 80 80 79 78 77 77 76 76
71 72 71 70 70 69 68 68 69 68 67 66 66 65 65 64 64 61 59 64 67 67 68 68 69 70 72 71 71 72 73 73 74 75 75 77 78 80 81 80 78 78 77
68 69 70 70 69 68 68 69 69 68 68 67 67 66 64 62 62 62 60 61 61 66 66 68 68 69 71 69 73 72 72 72 71 72 72 74 76 77 79 81 80 79 79
67 67 68 68 68 68 68 68 68 68 68 67 67 65 65 64 64 63 61 60 59 63 63 67 67 67 70 67 68 72 72 69 69 69 70 71 72 74 76 78 80 80 80
68 68 68 68 68 68 69 69 68 68 68 67 67 65 65 65 64 64 62 60 57 58 61 64 66 66 67 68 70 70 70 68 68 68 68 68 69 71 72 74 76 78 79
68 68 68 68 68 68 69 69 68 68 68 68 68 67 66 67 66 64 63 61 59 56 59 63 63 67 67 68 68 70 69 68 68 67 67 67 67 69 70 71 72 73 75
68 68 68 68 68 68 69 68 68 68 68 68 68 67 66 66 66 65 64 62 60 58 56 62 64 65 67 67 68 69 69 68 67 66 66 66 67 68 68 70 70 71 72
67 67 67 67 68 68 68 67 67 68 67 67 67 66 67 66 65 64 63 63 60 59 57 64 63 66 64 65 66 67 68 67 68 67 67 67 66 66 67 68 68 69 70
66 67 67 67 68 68 68 67 67 69 67 67 67 67 67 68 65 65 63 62 61 60 59 58 64 64 63 65 65 64 66 69 68 69 66 66 65 65 65 65 65 66 66
66 67 67 67 67 67 67 67 67 67 67 67 67 66 66 66 64 64 62 61 61 62 60 59 61 65 65 66 64 65 64 65 68 68 67 66 66 65 65 64 63 63 61
67 67 67 67 67 67 67 68 67 67 66 67 67 67 66 65 64 64 63 62 62 61 60 59 61 62 63 65 64 62 62 66 65 70 69 67 67 67 66 65 64 63 60
68 67 67 67 67 68 71 68 67 67 67 67 67 67 66 66 65 64 63 63 61 60 60 59 60 61 62 63 61 64 61 63 65 67 67 68 69 69 70 68 68 67 63
66 67 66 67 67 70 66 66 68 68 68 67 67 66 65 65 65 64 64 64 63 62 60 60 61 59 61 62 63 61 61 60 58 68 65 64 67 65 69 69 68 66 64
66 66 66 67 67 68 63 63 66 67 66 66 64 63 63 64 64 64 63 62 63 62 62 62 59 59 60 62 61 59 59 57 58 62 61 58 63 62 68 71 66 65 63
65 66 66 66 66 67 62 61 64 66 65 65 63 63 62 62 63 62 62 62 62 62 62 63 61 61 61 62 61 61 58 57 59 59 62 53 61 61 66 69 66 65 63
65 65 66 66 65 65 60 59 61 64 64 63 63 62 61 61 59 58 61 60 59 60 60 59 59 58 58 58 58 58 55 54 53 57 62 57 59 60 62 65 69 65 62
65 65 65 64 61 63 59 58 59 62 62 62 60 60 58 58 55 54 59 57 56 58 58 58 59 59 59 60 59 59 58 54 53 52 60 55 58 58 56 63 68 68 70

GFSMA_sfc_temp_003.txt.gz
Temp
83 84 84 86 86 87 87 86 84 83 83 84 85 83 84 83 84 87 87 82 79 80 82 83 83 83 82 82 82 81 82 81 81 80 81 81 81 80 80 80 80 80 80
84 81 83 81 87 86 87 85 83 83 82 84 84 83 83 84 82 82 87 87 79 80 81 82 83 82 83 82 82 82 82 81 81 81 81 80 80 80 80 80 80 80 80
81 84 80 80 86 85 82 83 82 83 83 84 82 83 84 83 84 82 84 86 87 81 80 82 82 82 82 82 82 82 82 80 81 81 80 80 80 80 80 80 80 80 79
85 83 80 82 83 83 84 84 83 82 83 82 81 83 83 83 82 83 85 85 85 88 85 81 81 82 82 83 82 81 81 80 80 80 80 80 80 80 79 79 79 79 79
82 81 82 82 81 83 80 83 83 80 81 82 82 83 83 83 83 87 84 84 85 86 88 84 80 80 83 84 83 82 81 80 80 80 80 80 79 79 79 79 79 79 78
83 83 82 82 81 80 83 81 78 80 80 80 81 82 82 84 84 85 85 86 85 85 86 84 86 88 80 82 81 82 82 81 80 80 79 79 79 79 79 78 78 78 78
83 81 81 81 81 81 81 79 80 78 81 80 78 82 82 82 82 84 85 85 83 85 84 84 84 85 88 79 78 79 81 82 81 80 80 79 79 78 78 78 77 78 78
83 82 81 81 80 82 79 78 77 79 80 80 77 75 76 79 84 84 83 83 81 84 83 83 82 81 82 85 81 78 77 77 79 81 80 79 78 78 78 77 77 77 77
83 82 82 82 80 81 82 79 78 76 78 78 76 76 74 74 76 83 81 82 80 82 82 82 81 81 80 82 82 81 75 74 76 78 79 79 79 78 78 77 77 76 77
83 82 81 81 80 82 79 80 80 79 77 77 79 78 76 75 74 74 82 82 82 81 79 82 82 81 80 82 79 75 73 74 74 76 77 78 78 78 79 78 78 77 76
82 82 81 80 79 81 78 78 78 77 79 78 78 78 76 77 74 74 72 77 81 82 81 81 82 82 81 80 82 78 73 73 73 73 74 75 76 78 79 79 79 78 78
82 80 81 80 80 80 78 79 78 77 77 77 77 77 77 76 77 75 73 73 73 78 80 81 81 81 81 81 79 74 74 72 71 71 72 72 73 75 76 78 79 80 80
81 79 79 78 80 78 78 78 77 77 77 77 76 78 78 77 78 77 74 74 72 77 78 80 81 81 81 80 80 74 75 71 70 69 69 70 71 72 73 74 76 78 79
82 81 79 80 79 79 78 78 80 80 78 78 77 77 78 79 78 77 75 73 71 74 75 73 80 80 80 80 77 72 80 71 69 68 68 68 68 69 70 71 72 74 75
82 80 80 79 79 78 78 78 80 78 78 77 78 78 78 80 80 79 76 75 72 68 71 77 74 79 78 80 78 78 77 73 69 68 67 66 67 68 69 69 70 70 71
80 79 79 79 79 78 78 77 79 79 77 79 80 77 76 80 79 76 75 77 74 72 69 77 77 77 77 77 77 76 77 71 71 68 67 66 66 67 68 68 68 69 69
78 78 78 78 79 78 78 77 77 78 77 77 77 76 76 76 77 79 77 75 75 73 69 75 78 77 72 73 75 77 77 76 78 69 68 67 66 66 67 67 67 67 68
77 78 78 78 78 79 79 77 77 79 77 77 77 77 76 79 75 75 77 73 74 74 71 68 73 75 74 74 73 72 75 78 77 74 68 66 66 65 65 65 65 64 64
72 77 77 76 77 78 78 78 77 77 77 77 77 77 77 76 74 77 75 75 76 72 73 68 70 76 76 76 74 74 74 74 77 73 68 66 66 66 65 64 63 62 61
71 71 73 75 77 78 78 79 78 76 77 78 77 77 77 76 75 75 75 73 73 73 72 71 71 73 75 75 74 72 73 77 75 78 74 71 69 69 68 65 64 64 61
67 70 71 73 76 77 81 77 77 77 77 77 78 77 78 75 71 71 75 74 72 72 73 72 71 73 73 74 72 74 72 73 74 76 75 76 77 77 76 72 72 69 65
67 70 71 71 72 75 69 67 73 77 77 76 76 78 77 70 69 66 65 65 67 69 68 70 71 69 69 71 73 71 70 69 67 77 72 71 75 73 76 76 70 67 66
66 69 71 71 73 73 65 64 66 77 77 76 72 73 75 78 70 74 69 65 64 63 64 67 65 66 67 69 68 66 66 64 64 71 70 69 73 72 72 73 67 65 64
69 71 72 73 73 75 62 61 63 73 69 71 74 74 73 73 73 69 71 71 72 72 71 73 70 69 69 69 67 66 63 60 64 70 70 66 71 68 69 71 67 65 64
71 70 72 72 72 72 60 60 64 68 68 66 71 73 70 70 62 59 66 67 69 70 66 60 60 58 57 57 60 62 60 63 62 67 71 61 62 60 62 64 69 66 63
69 72 71 72 67 71 58 58 63 63 64 64 70 68 60 64 56 56 66 67 66 68 67 67 68 66 64 66 61 65 62 55 58 60 63 57 55 57 53 63 69 72 74

GFSMA_sfc_temp_006.txt.gz
Temp
89 91 91 90 90 95 96 92 91 91 89 91 91 90 92 91 90 92 94 82 80 81 82 83 83 83 82 82 82 82 82 81 81 81 81 81 80 81 81 80 81 80 80
87 91 91 91 91 93 95 92 89 88 89 91 90 90 90 92 90 89 93 93 81 80 81 83 83 83 83 82 82 82 82 82 81 81 81 80 80 80 80 80 80 80 80
87 87 91 90 91 91 87 89 89 90 91 92 89 91 91 91 91 89 91 94 93 82 82 82 82 82 82 83 82 82 81 81 81 81 80 80 80 80 80 80 80 80 80
88 89 91 90 92 89 90 91 89 89 91 90 89 90 90 91 89 90 92 92 94 95 85 83 82 82 82 83 83 81 81 81 81 80 80 80 80 80 80 80 80 79 79
89 89 90 90 88 89 83 85 89 88 87 89 89 91 90 91 91 95 90 92 91 93 94 82 82 81 83 84 83 82 81 80 80 80 80 80 80 80 79 79 79 79 79
89 87 89 88 88 84 88 89 84 88 86 87 88 89 90 92 92 92 92 94 90 91 92 89 92 91 82 81 82 82 82 81 80 80 79 80 79 79 79 79 78 78 78
89 88 90 87 87 86 87 85 86 84 86 89 84 89 88 88 89 92 92 91 89 91 90 90 90 90 91 81 79 79 80 81 81 80 80 79 79 79 78 78 78 78 78
88 88 87 88 87 90 85 83 83 84 87 88 83 83 82 84 88 91 90 89 87 91 90 88 87 85 88 88 82 77 76 76 78 79 80 79 79 79 78 77 77 77 77
88 87 87 88 86 86 89 84 84 81 84 86 82 82 80 81 83 87 85 88 86 87 88 88 86 85 84 87 86 82 74 74 76 77 78 78 78 78 78 78 77 77 77
89 88 87 86 84 88 85 85 87 83 81 83 86 85 82 80 79 81 86 86 89 89 84 88 89 87 85 88 81 74 74 74 74 75 76 76 76 77 78 78 78 77 77
88 89 87 85 84 86 84 84 83 81 85 83 84 85 83 84 82 79 78 83 87 88 89 89 88 90 87 87 89 78 74 73 73 73 74 74 75 76 77 78 78 78 78
90 87 87 85 85 85 83 84 82 81 81 82 84 83 83 82 83 81 79 79 80 84 88 87 87 88 89 89 84 75 75 74 72 72 71 72 73 73 75 76 77 78 79
91 87 85 84 86 84 84 83 81 82 81 82 80 84 86 84 85 83 81 80 80 83 84 87 87 87 87 87 86 75 77 73 71 70 70 70 71 71 72 73 74 75 77
91 89 85 85 85 85 84 83 84 84 83 82 80 81 84 85 86 84 82 79 77 80 83 80 84 87 86 86 82 74 82 73 72 70 68 68 69 69 70 71 72 72 73
92 88 86 85 85 85 83 82 84 82 82 82 82 81 82 86 87 86 85 82 78 74 77 83 83 86 85 86 83 83 82 76 71 69 68 67 68 68 69 69 70 70 70
87 87 85 85 84 83 83 81 83 83 81 83 84 82 81 85 85 86 85 84 83 79 74 83 83 84 84 83 82 81 82 74 73 70 68 67 67 68 68 68 68 68 69
85 84 83 83 84 82 82 80 80 82 81 80 81 80 79 80 83 85 86 85 83 82 76 80 83 84 80 80 81 82 82 81 83 71 69 67 66 67 67 67 67 67 67
83 82 81 80 80 83 82 80 80 82 81 80 80 80 80 83 80 80 83 79 81 80 78 72 77 80 79 81 80 78 80 84 83 78 69 67 67 66 66 65 65 65 64
77 77 76 76 78 77 82 81 81 81 81 81 81 80 80 81 79 81 80 80 82 81 80 78 76 81 81 82 80 76 79 80 83 77 70 69 68 67 65 64 63 62 61
76 71 73 73 77 80 80 80 81 81 80 81 81 80 80 80 79 78 79 78 78 78 78 77 76 78 74 77 77 74 78 83 82 85 79 74 73 73 67 65 64 64 61
77 72 73 74 77 78 78 80 81 81 79 80 81 81 82 80 75 75 80 79 77 77 77 75 76 77 73 71 71 79 77 79 79 82 82 82 83 83 82 74 75 71 65
75 73 73 75 75 78 73 70 76 81 80 79 79 80 79 74 72 67 66 66 69 71 71 74 74 73 72 72 77 76 75 73 71 81 77 77 80 79 81 82 74 68 66
74 77 77 76 75 77 67 67 68 81 81 80 78 77 76 74 71 79 69 65 65 64 64 70 69 71 69 72 72 67 70 70 70 76 73 71 78 77 81 82 71 66 63
76 76 77 76 77 80 65 63 66 78 78 79 78 76 74 69 70 75 76 76 75 76 76 76 73 73 73 73 70 69 68 67 69 72 73 69 77 76 78 78 69 66 64
77 78 79 78 77 78 60 61 65 80 79 76 71 72 71 69 64 62 71 72 73 74 70 63 61 60 60 59 61 68 69 66 65 68 74 73 74 73 72 68 69 65 63
78 80 78 78 74 76 59 59 64 81 74 75 67 68 62 66 59 58 69 71 70 73 74 73 73 69 65 71 61 67 65 59 60 64 73 71 69 63 54 63 66 68 66

GFSMA_sfc_temp_009.txt.gz
Temp
88 90 88 93 92 90 85 89 87 91 91 88 87 92 93 93 94 95 95 82 82 82 83 84 83 82 82 83 82 82 81 81 81 81 81 81 81 81 80 81 81 81 80
85 92 86 85 88 92 86 90 86 89 85 85 90 92 92 94 92 91 95 90 82 83 82 83 84 82 82 82 82 82 82 81 81 81 81 81 81 80 81 81 81 81 80
91 89 89 90 93 88 90 86 84 88 81 95 92 93 93 93 93 91 92 95 89 82 83 84 83 83 83 83 82 82 82 81 81 81 81 80 80 80 80 80 80 80 80
89 89 90 87 87 92 86 89 86 79 92 92 91 92 92 93 91 91 93 92 95 96 84 83 84 82 83 83 83 82 81 80 81 80 80 80 80 80 80 80 80 79 79
89 90 91 88 90 86 90 88 89 82 89 90 91 92 92 92 92 95 92 92 92 94 95 82 83 83 83 84 83 81 81 80 79 80 80 80 80 80 79 79 79 79 79
90 90 90 90 88 88 89 78 84 88 87 87 90 90 91 92 92 93 92 95 92 93 92 91 89 87 83 83 82 82 82 81 80 80 79 79 79 79 79 79 79 79 79
90 88 89 87 89 87 83 87 87 86 87 89 85 88 89 89 90 92 92 92 91 92 91 91 90 90 84 79 78 78 78 79 80 79 79 79 79 79 78 78 78 78 78
90 88 88 91 90 90 87 85 83 84 88 88 83 84 82 83 85 92 90 90 88 92 90 89 88 86 86 84 81 77 76 77 78 79 79 78 78 78 78 77 77 77 77
90 89 88 87 88 87 90 85 85 83 83 87 84 82 80 79 82 86 86 88 87 88 89 89 88 86 86 87 82 80 75 75 76 77 77 77 77 77 77 78 77 77 77
91 91 89 89 86 88 86 86 86 83 82 84 87 86 83 81 79 80 83 87 88 88 85 88 90 87 86 89 79 75 74 74 75 76 76 76 76 76 77 77 77 77 77
91 92 90 88 86 87 85 84 84 81 85 83 86 86 83 84 82 80 78 83 88 89 88 88 88 89 88 87 87 76 75 74 73 74 74 74 75 76 76 77 77 77 78
91 90 89 87 86 86 86 85 83 83 81 82 84 84 85 83 83 82 80 80 82 85 89 89 87 88 88 88 84 77 76 75 73 73 72 72 73 74 75 76 76 77 77
93 88 88 85 86 85 86 85 83 82 82 82 81 84 85 85 86 84 82 81 80 84 85 87 86 86 88 87 86 79 77 75 73 72 71 71 71 72 73 74 74 75 75
94 89 87 87 86 86 85 84 84 84 84 83 81 81 84 84 86 86 83 75 70 72 77 78 79 81 87 87 84 76 83 77 73 71 70 70 70 70 71 71 72 72 72
94 91 88 86 86 86 85 83 83 83 82 83 82 81 82 86 87 87 86 81 72 67 72 81 82 81 80 82 83 85 83 77 72 71 69 68 68 69 70 70 70 70 70
90 89 87 86 85 85 84 82 83 83 81 83 84 83 82 84 85 86 79 83 84 80 74 82 83 85 84 86 85 84 83 77 74 72 70 68 68 69 69 69 69 69 69
89 88 85 85 84 82 82 81 81 83 82 80 81 80 81 81 82 85 86 85 83 82 76 80 83 83 81 81 82 81 83 82 83 73 70 68 67 68 68 68 68 68 68
88 86 85 83 84 80 75 81 80 82 81 80 80 79 80 83 79 79 82 79 80 80 78 72 77 80 79 81 81 80 82 85 84 79 70 68 67 67 66 66 66 65 65
86 86 85 82 81 82 82 82 81 76 81 82 81 81 80 80 78 81 79 79 80 80 80 79 77 76 76 73 77 80 74 75 78 78 72 68 67 67 66 65 64 63 61
85 84 83 81 81 81 81 82 81 81 81 81 81 82 81 80 78 77 77 76 77 77 78 78 78 77 78 77 79 78 74 72 74 84 81 77 74 72 67 65 64 64 61
85 83 83 80 79 83 85 80 82 81 78 79 81 81 81 80 76 75 78 74 74 76 79 77 76 77 78 78 73 77 74 76 73 81 81 83 84 84 83 73 72 68 65
83 82 80 77 78 83 74 70 78 81 81 79 79 81 80 76 76 69 69 67 67 69 70 72 73 72 70 72 75 73 71 72 70 80 77 77 80 79 81 82 76 70 65
81 80 79 77 77 80 65 67 69 82 82 81 79 78 80 83 76 79 69 65 64 64 65 71 69 69 68 71 71 69 69 70 69 75 73 71 77 76 81 83 70 66 66
79 79 77 78 78 79 65 65 68 80 80 79 81 80 78 79 78 72 73 69 70 75 73 74 70 72 73 74 70 70 68 67 71 74 74 69 75 75 77 81 70 67 67
77 78 77 75 76 79 63 62 68 78 76 78 81 81 80 75 69 63 70 67 68 71 73 67 65 64 62 62 64 70 69 69 68 70 72 71 72 73 77 76 76 68 63
78 81 79 75 73 78 60 60 66 73 74 76 73 76 64 69 58 59 69 69 70 73 76 76 75 69 64 68 61 67 71 68 68 66 73 69 72 72 65 71 71 64 59

GFSMA_sfc_temp_015.txt.gz
Temp
72 73 72 73 72 71 74 75 76 80 78 79 80 80 80 81 81 78 74 81 81 82 83 83 82 82 82 82 81 81 81 81 81 80 81 80 80 80 80 79 80 80 80
77 75 76 76 75 76 80 79 78 76 79 77 78 82 80 83 81 78 77 77 81 81 82 83 83 82 82 82 82 82 81 81 81 81 80 80 80 80 80 80 80 80 79
78 77 76 75 76 78 77 76 79 76 76 80 75 78 79 79 80 80 78 76 78 81 82 81 81 81 82 82 83 82 81 81 81 80 80 80 79 79 80 79 79 79 79
80 78 75 73 77 76 75 75 76 74 74 73 72 75 77 78 82 82 81 77 77 80 81 82 81 81 81 81 82 81 81 80 80 80 80 80 80 79 79 79 79 79 79
80 77 76 75 77 74 75 75 74 74 72 72 75 74 74 77 81 85 80 81 81 77 77 81 81 80 82 83 81 81 81 80 80 80 79 79 79 79 79 78 78 78 78
80 76 76 75 76 75 74 74 75 74 72 71 77 76 73 75 76 75 80 81 77 80 78 79 77 76 80 81 80 81 81 81 80 80 79 79 79 78 78 78 78 78 77
78 77 76 76 79 74 75 77 72 70 70 71 69 70 70 78 74 73 74 74 76 76 79 76 75 74 75 78 78 77 79 79 79 80 79 78 78 78 77 77 77 77 77
79 78 76 75 76 74 72 72 71 68 69 72 68 65 66 73 74 77 73 75 73 75 76 76 75 74 72 71 74 77 77 77 78 78 78 77 77 77 77 77 77 77 77
79 77 77 75 75 73 72 72 71 69 67 70 72 67 62 61 70 70 75 72 72 71 72 74 75 74 72 70 73 74 75 75 77 77 77 77 76 76 76 76 76 76 76
78 78 77 76 75 73 71 71 72 69 68 67 69 72 68 67 63 67 71 72 74 73 71 70 72 74 71 71 73 74 74 74 76 76 76 76 76 76 76 77 76 76 75
79 79 77 76 74 72 71 72 71 69 69 67 66 68 70 66 67 63 60 69 73 73 74 71 71 72 72 69 68 71 74 74 74 75 75 75 75 75 76 76 76 76 77
76 77 77 75 74 72 71 71 71 70 68 68 66 66 67 65 65 64 61 62 66 70 71 74 75 71 71 69 75 75 75 74 74 74 74 74 74 75 75 76 76 76 76
74 75 76 74 73 72 72 72 74 70 69 68 67 66 67 66 67 67 65 62 63 65 72 73 72 70 73 70 72 75 75 73 72 72 72 72 73 74 74 75 75 75 76
80 77 77 76 74 74 74 72 70 70 70 68 69 68 68 67 67 67 70 64 60 61 63 66 72 71 72 71 71 75 71 72 72 70 70 70 71 72 72 73 73 74 74
79 78 77 76 76 74 72 72 70 69 69 69 68 68 67 68 68 68 68 67 65 59 59 65 66 69 71 72 72 72 71 72 72 70 69 68 69 69 70 71 71 71 71
77 78 76 77 75 75 72 71 69 70 68 68 68 68 68 67 68 68 67 66 66 64 61 64 66 69 72 74 74 73 72 73 72 70 69 68 68 69 69 69 70 70 70
76 77 77 76 76 74 73 70 69 69 69 68 68 67 68 68 67 67 67 67 66 65 62 64 66 67 67 68 70 70 72 71 70 70 69 68 67 67 68 69 68 68 68
77 78 78 76 76 76 74 72 70 72 68 68 68 67 68 73 67 67 68 66 65 65 64 62 63 66 66 68 68 67 70 76 71 74 70 69 67 66 66 66 66 67 66
79 78 78 77 76 75 73 73 71 68 68 69 68 69 68 70 65 67 68 68 65 67 64 62 62 65 67 66 65 65 64 66 70 72 69 68 68 68 66 64 64 63 62
78 78 78 77 77 75 74 73 70 68 68 69 69 69 71 70 68 67 68 67 67 64 63 61 60 61 63 68 65 63 64 63 64 72 71 70 69 69 67 64 63 63 60
79 77 75 76 75 74 75 69 71 70 68 68 69 71 73 72 71 68 67 66 66 64 62 60 59 59 63 61 63 62 61 62 63 65 64 65 66 65 66 66 67 67 63
77 77 75 75 73 76 70 69 72 71 69 68 69 72 71 72 72 69 69 69 69 65 62 59 59 59 62 60 60 60 59 58 57 64 59 65 68 66 66 66 67 66 64
79 77 77 75 73 74 66 66 69 70 71 71 71 72 72 75 70 69 67 67 65 65 65 62 60 61 59 60 61 59 58 57 56 64 56 58 60 58 64 66 66 66 64
79 76 75 73 73 70 65 64 67 68 67 68 71 70 68 68 68 69 66 65 64 64 63 62 61 65 61 63 62 61 59 57 56 58 58 54 59 57 61 62 65 64 63
76 74 73 71 69 68 63 62 65 68 69 69 69 69 67 67 65 61 66 64 65 64 66 62 63 63 61 61 61 58 57 53 52 54 58 55 60 56 58 59 63 64 63
72 72 70 70 67 68 62 61 62 69 68 64 65 68 65 67 59 59 64 63 61 62 61 61 61 61 60 61 61 59 65 54 52 52 59 55 54 56 57 57 58 59 64

GFSMA_sfc_temp_018.txt.gz
Temp
71 72 72 73 73 71 73 73 75 76 77 77 79 78 77 77 75 75 73 80 80 82 83 83 82 82 82 82 81 81 81 81 80 80 80 80 80 80 80 80 80 80 79
72 71 71 72 72 72 73 73 74 75 77 75 76 77 78 77 76 75 74 75 81 81 82 83 82 82 82 82 82 81 81 81 80 80 80 80 80 79 80 79 79 79 79
75 73 73 72 73 73 75 73 75 75 74 75 74 75 76 77 78 75 75 74 77 82 82 82 82 81 81 82 82 82 80 80 80 80 80 79 79 79 79 79 79 79 79
77 75 73 73 74 74 74 73 73 72 72 71 69 70 74 75 80 77 76 75 75 78 81 82 81 81 82 82 82 81 80 80 79 79 79 79 79 79 79 79 78 78 78
78 75 74 74 73 74 74 73 73 73 72 70 72 71 71 72 78 81 77 79 75 76 76 81 80 80 82 83 83 82 81 80 79 79 79 79 79 79 78 78 78 78 78
78 74 75 74 73 72 72 72 71 71 69 68 75 74 70 71 72 75 74 76 75 76 75 76 77 76 80 82 81 81 81 80 80 79 79 78 78 78 78 78 77 77 77
77 75 74 73 74 72 71 72 70 68 68 68 67 68 68 72 71 70 71 72 74 73 74 74 72 75 75 79 78 78 79 80 80 79 79 78 78 78 77 77 77 77 77
76 76 74 73 73 71 71 70 69 65 66 67 65 62 62 70 69 74 69 72 71 72 73 73 72 72 71 70 73 77 77 78 78 77 77 76 76 76 76 76 76 77 77
78 76 74 73 72 71 70 70 68 67 66 67 67 65 60 60 68 70 70 69 69 68 69 70 71 71 70 69 73 75 76 76 77 77 77 76 76 76 76 76 75 75 75
77 76 75 74 72 71 70 70 70 67 66 65 66 68 65 65 61 62 67 67 68 70 68 68 70 70 69 68 72 73 75 75 76 77 77 76 76 76 76 76 76 75 75
76 77 75 73 71 70 70 69 68 67 67 66 64 65 64 63 62 61 60 63 67 67 68 68 69 69 69 68 67 70 74 74 75 75 76 76 75 76 76 76 76 76 76
76 76 75 74 72 70 69 68 68 67 67 66 65 65 65 64 62 61 59 59 61 66 68 68 67 67 68 68 72 74 75 74 73 74 74 75 75 76 77 77 76 76 76
72 73 73 72 72 70 69 69 68 67 66 66 65 64 64 64 64 63 62 59 60 63 65 68 71 69 70 67 69 74 75 73 72 71 72 72 73 74 75 76 76 77 77
79 76 75 75 71 71 69 69 68 67 67 66 66 65 65 65 64 64 64 62 58 58 60 64 67 68 69 68 69 75 70 71 71 69 69 70 71 72 73 73 74 75 75
78 75 76 75 73 71 70 69 67 67 67 66 65 65 65 65 65 64 64 64 63 57 58 63 64 66 67 69 72 69 68 71 70 69 68 68 69 69 70 71 71 71 72
77 75 75 75 73 72 70 69 67 67 66 66 66 65 64 64 65 65 65 64 62 62 58 62 64 65 67 71 71 70 70 71 71 69 69 67 68 69 69 69 69 70 70
76 76 75 75 74 72 71 69 67 67 66 66 66 66 66 65 65 64 64 64 62 65 62 62 62 65 66 66 68 67 69 68 68 69 69 67 67 67 68 68 68 68 68
76 76 76 75 74 74 72 71 68 70 67 65 66 65 66 69 64 66 64 64 64 64 63 61 61 63 64 66 67 67 68 71 67 71 68 67 67 66 66 65 65 65 65
75 76 75 75 74 74 72 72 70 69 68 67 67 66 66 65 67 67 66 63 64 65 63 61 61 61 62 63 64 63 63 64 68 71 69 68 67 66 65 64 62 61 60
75 75 75 75 75 74 73 72 71 69 69 68 68 68 67 68 69 68 67 64 64 64 62 62 61 59 60 62 62 61 61 61 62 69 69 68 67 67 66 65 64 64 60
78 75 74 74 74 74 74 72 71 70 69 68 67 67 68 71 71 69 67 65 63 64 62 61 59 58 60 59 60 60 59 59 59 60 59 60 60 61 62 64 67 67 64
74 73 73 74 72 75 70 68 72 69 69 68 67 65 67 71 70 68 67 68 68 64 61 60 60 59 61 59 58 58 57 56 55 59 57 58 60 59 60 61 65 64 63
76 73 73 73 72 73 66 66 68 67 68 68 67 66 68 73 68 69 66 66 63 63 65 65 63 60 59 60 58 58 57 56 55 61 56 54 56 56 60 63 64 63 63
76 74 73 73 73 72 65 64 67 69 68 69 69 67 67 68 66 65 65 63 63 64 65 64 62 63 61 62 60 60 59 57 55 56 55 52 55 55 58 59 62 63 62
76 75 75 73 72 71 62 61 65 67 67 68 68 68 67 66 62 61 65 63 64 64 63 61 61 61 60 59 60 58 56 53 52 53 55 54 55 53 54 57 60 62 61
76 75 73 73 69 67 59 60 63 68 67 67 66 66 63 66 60 58 64 63 62 65 62 62 60 61 60 60 60 59 57 53 52 53 55 54 52 51 51 53 55 56 57

GFSMA_sfc_temp_021.txt.gz
Temp
71 71 71 71 71 71 72 72 72 74 74 75 76 75 74 74 73 73 71 80 80 81 82 82 82 82 82 81 81 81 80 80 80 80 80 80 80 80 80 80 80 79 79
71 71 71 71 71 72 72 72 72 74 76 74 77 75 75 74 74 73 73 73 80 81 82 82 82 81 82 82 81 81 81 81 80 80 80 79 80 79 79 79 79 79 79
73 71 71 71 72 72 72 72 72 72 74 73 76 73 73 74 76 73 73 73 75 82 82 82 81 81 81 81 82 81 80 80 80 80 80 79 79 79 79 79 79 79 79
74 72 71 71 72 72 71 71 71 71 71 73 73 69 71 74 76 75 73 73 74 76 79 81 81 81 81 82 81 81 81 80 79 80 79 79 79 79 79 79 79 78 78
75 73 73 72 72 71 72 72 71 70 71 68 71 69 69 70 77 78 74 75 73 75 75 80 80 80 82 83 83 82 81 80 79 79 79 79 79 79 78 78 78 78 78
76 73 73 72 72 71 70 70 70 69 68 67 73 70 69 70 70 71 72 75 72 74 73 74 74 75 80 81 81 81 81 80 79 79 79 79 78 78 78 77 77 77 77
76 73 72 72 72 71 71 70 69 68 65 66 66 65 67 68 69 68 69 70 72 72 72 72 71 73 76 80 79 79 78 79 79 79 78 78 78 78 78 77 77 77 77
75 74 72 72 72 71 69 69 67 65 64 65 63 60 61 68 67 70 67 73 69 71 71 71 71 71 71 70 73 77 78 78 78 78 76 76 76 76 76 75 76 76 77
76 76 73 72 71 70 69 68 68 65 64 65 65 64 59 59 62 65 67 71 67 67 67 69 70 70 69 68 72 74 76 76 78 78 77 76 76 76 76 76 75 75 75
78 75 74 72 71 70 69 69 69 65 65 65 64 66 63 63 61 60 64 65 65 67 66 67 69 70 69 68 72 73 75 75 77 78 77 77 76 76 76 76 75 75 75
75 76 74 72 70 69 69 69 67 66 65 64 64 63 62 61 60 60 58 62 64 65 65 66 67 68 69 68 67 70 75 74 75 76 77 77 77 76 76 76 76 76 76
72 73 74 72 71 69 69 68 67 66 65 65 64 64 63 63 61 60 58 58 60 64 65 65 65 67 67 67 71 74 75 74 74 74 74 75 76 77 78 78 77 77 77
71 72 73 71 70 69 69 68 66 65 65 65 64 64 63 63 62 61 60 58 59 61 63 64 65 66 68 66 67 74 75 73 72 72 72 73 74 74 76 76 77 77 77
74 76 74 73 71 69 69 67 65 65 65 65 64 63 63 63 63 63 63 60 57 57 59 63 64 65 66 66 68 73 69 71 71 70 69 70 71 72 72 73 74 75 75
75 74 75 73 71 70 69 67 65 65 65 64 64 64 63 63 63 63 62 62 62 57 57 62 63 65 65 65 68 68 68 70 70 69 68 68 69 70 71 71 71 72 72
75 73 74 74 72 70 69 68 65 65 65 64 64 63 62 62 64 63 63 61 61 61 59 61 63 63 65 68 69 68 67 70 70 69 68 67 68 68 69 69 69 70 70
74 74 74 74 72 70 69 69 66 66 65 64 65 63 63 63 62 63 62 61 61 61 60 62 61 63 65 65 66 65 67 66 65 68 68 67 67 67 67 68 68 68 68
74 75 74 73 72 72 70 70 67 69 67 64 64 64 64 67 63 62 62 63 65 60 61 60 60 61 63 64 64 64 67 69 66 69 68 66 65 65 65 65 64 64 64
74 75 74 73 72 72 70 70 70 68 68 67 66 65 64 64 62 64 63 63 64 63 61 60 60 60 61 61 62 62 63 63 67 70 69 68 67 66 65 63 63 62 59
73 74 74 74 74 73 72 71 70 68 68 68 67 66 65 65 64 68 67 66 63 63 60 60 59 60 60 62 61 60 61 60 61 67 68 66 65 66 65 63 63 64 61
76 74 73 73 73 73 74 71 69 68 67 67 67 66 65 67 69 69 65 63 64 61 61 60 59 60 61 60 60 60 59 60 59 60 59 60 59 59 60 62 65 66 63
75 73 72 72 71 74 69 68 72 69 68 67 65 66 67 67 68 67 67 67 66 63 61 59 60 60 62 60 60 59 57 55 55 59 56 58 58 59 59 59 64 63 62
74 71 72 72 71 72 67 66 69 69 67 66 68 67 68 69 67 68 65 65 65 65 64 62 61 61 61 62 60 58 56 56 55 57 56 54 55 56 59 61 63 63 62
73 72 71 72 72 72 65 63 67 69 68 68 68 67 67 67 66 65 65 64 63 63 64 63 63 64 63 63 60 59 58 56 56 57 56 52 54 54 57 58 62 62 62
74 73 72 72 72 71 62 61 63 69 67 67 67 69 67 65 63 62 65 64 62 62 62 61 62 61 59 59 59 57 56 54 52 53 54 53 53 53 53 56 59 62 61
75 74 73 73 69 71 60 59 64 67 66 67 66 66 63 65 60 59 65 63 61 63 61 61 60 59 59 59 60 58 56 53 51 50 53 52 51 51 50 51 52 55 54

GFSMA_sfc_temp_024.txt.gz
Temp
73 74 73 73 74 74 75 75 75 77 77 78 78 78 78 78 78 78 76 79 80 80 82 82 82 82 82 82 81 81 81 80 80 80 80 79 80 80 79 80 80 79 79
73 73 73 73 73 73 74 74 75 76 77 76 77 77 78 78 77 77 78 78 80 80 81 83 82 82 82 81 81 81 81 80 80 80 80 80 78 79 79 79 79 79 79
74 74 73 73 74 74 75 75 76 76 76 76 75 76 77 77 78 77 78 78 80 81 81 82 81 81 81 82 81 81 80 80 80 80 80 79 79 79 79 79 79 79 79
75 74 73 73 75 74 74 74 74 74 74 73 74 73 74 77 78 77 78 78 78 81 81 81 80 81 82 82 82 81 80 80 79 80 80 79 79 79 79 78 79 78 78
76 73 74 75 74 74 74 75 74 73 73 72 75 73 73 74 76 80 78 78 78 79 80 80 80 80 82 83 82 81 80 79 79 79 79 79 79 79 78 78 78 78 78
76 74 75 74 74 74 74 73 73 72 71 71 74 73 72 73 74 75 77 79 78 79 79 79 79 79 80 82 81 81 81 80 80 79 79 78 78 78 78 77 78 78 77
76 75 74 74 74 73 74 74 72 72 70 69 70 71 71 71 72 72 75 76 77 78 78 78 78 78 79 79 79 80 80 81 81 80 79 78 78 78 77 77 76 77 77
76 76 74 74 74 74 73 72 72 69 69 69 68 67 67 71 73 73 73 75 75 76 77 76 77 77 77 77 79 78 78 79 79 79 78 76 76 76 75 75 74 75 76
76 76 74 74 74 74 73 71 71 70 69 69 69 68 65 66 67 70 72 72 72 73 74 75 76 76 75 76 76 78 76 76 78 78 77 77 76 76 76 76 75 75 75
76 76 75 74 74 73 71 71 71 70 69 69 69 69 68 68 67 67 70 71 71 73 73 74 75 76 75 75 75 75 76 76 77 78 78 77 76 76 76 76 76 75 75
75 76 75 74 74 73 72 71 70 69 69 69 69 68 67 67 66 66 66 69 70 72 72 73 74 74 75 75 74 74 75 75 75 76 77 77 77 77 77 77 77 76 76
74 75 75 75 74 72 72 71 70 69 69 69 69 69 69 68 67 66 65 65 68 71 71 72 72 73 74 75 75 74 74 74 74 74 75 76 76 77 78 78 78 78 78
73 73 74 74 73 72 72 70 69 69 69 69 68 69 69 69 68 67 67 65 67 68 70 71 73 72 73 73 75 75 75 73 73 71 72 73 74 75 76 76 77 77 78
76 75 75 75 74 72 72 70 70 69 69 69 68 68 69 69 69 68 68 67 65 66 67 71 71 73 73 73 73 73 76 71 71 70 69 70 71 72 73 73 74 75 75
77 75 75 75 74 72 72 70 70 69 69 69 68 68 69 69 69 69 69 69 68 65 66 70 71 71 72 73 73 75 74 71 69 69 68 68 68 69 70 71 71 72 72
76 75 75 75 73 72 71 70 69 69 69 69 69 67 67 68 69 69 69 68 67 68 67 69 70 71 72 74 73 75 74 71 70 69 68 67 67 68 69 69 69 70 70
74 75 75 74 73 72 71 70 69 69 69 68 68 67 67 67 68 69 68 68 67 67 68 69 68 70 71 72 73 73 74 73 74 67 67 67 66 66 67 67 67 67 68
75 75 75 74 74 72 72 71 70 71 69 68 69 67 68 69 67 67 67 67 67 67 68 67 67 69 69 70 71 71 73 76 74 71 67 67 66 65 65 64 64 64 63
74 75 75 74 73 73 71 72 72 71 70 70 70 69 68 67 67 67 68 67 68 68 66 67 69 68 69 69 70 69 70 70 73 70 68 67 67 66 65 64 63 62 60
74 75 74 74 74 74 73 72 72 71 71 71 70 69 69 68 67 67 68 68 68 66 66 64 65 66 68 67 68 66 67 69 69 73 72 68 67 67 65 63 63 63 61
75 75 75 74 74 74 75 72 71 71 70 70 69 69 69 69 68 68 70 68 67 67 65 64 63 65 66 64 63 63 63 64 65 68 70 71 70 71 71 66 67 66 63
75 74 74 74 74 76 70 68 72 71 70 69 67 69 70 68 67 66 67 67 68 67 65 64 63 63 65 65 65 61 61 60 62 68 67 69 68 69 71 70 66 64 62
74 73 74 74 73 74 66 66 68 71 70 69 69 68 67 70 68 69 65 66 65 65 66 66 65 62 64 66 64 61 59 62 63 67 65 64 68 67 70 72 63 62 61
74 73 73 73 73 73 64 64 67 72 70 70 69 69 69 69 68 68 68 68 67 68 66 65 67 67 66 67 65 64 65 63 64 66 64 60 67 65 68 69 62 62 61
75 73 74 73 72 73 62 61 65 71 69 69 69 69 69 69 64 62 68 67 67 65 62 62 62 61 61 60 63 64 60 59 61 64 63 63 65 64 66 67 69 62 59
75 74 73 73 71 73 60 60 64 70 68 68 68 69 64 67 60 59 68 68 66 64 64 64 64 62 62 62 59 65 65 63 61 61 64 62 63 63 62 65 65 67 68

GFSMA_sfc_temp_027.txt.gz
Temp
84 86 86 87 86 88 89 87 84 89 83 84 83 89 91 89 90 92 91 79 80 81 82 81 82 82 82 81 81 81 81 81 80 80 81 80 80 80 79 80 80 79 79
84 87 86 86 87 88 88 86 85 86 80 83 84 88 89 91 88 88 92 89 81 81 81 82 81 82 82 82 82 81 81 80 81 80 80 80 79 80 80 80 80 80 79
84 83 86 86 87 86 83 83 84 86 88 86 82 88 90 86 90 88 90 92 90 82 82 82 82 81 82 83 81 82 80 80 80 81 80 80 79 79 79 79 79 79 79
84 83 85 86 88 86 85 87 83 83 87 81 81 85 89 88 84 89 90 90 91 94 84 82 81 81 82 81 82 81 80 79 80 80 80 80 80 79 79 79 79 79 79
85 84 86 87 85 87 87 84 87 85 85 85 85 87 87 86 81 91 88 88 89 91 92 82 81 80 82 83 81 81 81 81 79 79 79 79 79 79 79 79 78 78 78
85 84 87 85 85 86 85 86 83 84 85 85 87 85 86 86 88 88 89 91 89 88 91 88 88 88 81 82 82 81 81 81 80 80 79 79 79 78 78 78 78 78 78
84 83 86 85 84 84 84 83 83 81 84 83 83 83 84 85 85 86 89 90 88 89 88 88 90 90 88 81 80 80 81 81 81 81 80 79 78 78 78 77 77 77 77
84 84 84 85 84 85 81 81 81 83 83 83 82 82 79 82 86 87 87 88 85 90 88 87 86 85 86 88 83 79 78 79 79 79 78 77 77 77 76 75 75 74 73
85 84 84 85 83 84 85 82 81 80 82 81 79 82 78 78 81 85 83 87 84 88 87 86 86 85 84 87 85 82 77 77 79 79 79 78 77 77 77 76 76 76 75
86 85 84 84 83 85 83 82 82 81 80 80 81 81 79 80 80 77 83 84 85 85 85 88 88 86 86 89 80 77 77 77 78 79 79 78 78 78 77 77 76 76 76
85 86 84 84 83 84 83 81 79 79 81 83 83 81 79 81 79 80 78 80 82 85 86 85 88 88 85 86 87 81 76 76 76 77 78 78 78 78 78 78 78 77 77
87 84 85 84 83 84 83 82 80 79 80 81 83 82 83 81 80 80 79 78 80 82 85 85 84 86 86 87 84 78 75 75 75 75 75 76 77 77 78 78 78 78 78
86 84 83 82 84 82 83 82 79 79 79 80 78 82 83 83 83 82 81 80 79 82 83 85 86 85 86 85 86 78 76 74 73 72 73 73 74 75 75 76 77 77 78
87 86 84 84 84 83 83 81 82 82 81 80 79 79 83 83 82 83 82 80 77 79 80 81 85 86 85 85 84 75 83 72 71 70 70 70 71 72 73 74 74 75 75
88 86 85 84 84 83 82 81 83 79 79 79 79 78 80 83 83 83 82 82 81 76 78 81 83 83 85 86 83 84 84 76 70 69 69 69 69 70 71 71 71 72 72
85 86 84 84 84 83 82 80 82 80 78 80 81 78 78 82 81 82 82 82 80 80 77 83 82 84 84 86 81 83 83 74 71 69 68 67 68 68 69 69 69 69 70
84 84 83 84 83 83 81 80 81 81 78 78 78 77 77 78 81 81 81 81 80 80 78 82 83 82 78 80 83 84 84 83 85 69 68 67 66 67 67 68 68 68 68
84 84 84 83 83 83 82 80 80 81 78 78 79 77 77 79 76 77 80 77 79 79 79 74 80 80 77 79 80 79 82 86 84 75 68 67 66 66 66 65 65 65 64
83 84 84 83 83 83 81 81 81 80 79 80 80 78 78 77 75 78 77 78 80 78 77 78 78 81 81 81 79 78 78 79 81 74 67 68 68 67 66 65 64 63 61
82 83 83 83 83 83 83 82 81 81 80 80 80 79 79 78 76 73 75 75 77 78 77 76 78 78 78 79 78 78 78 79 78 77 77 71 69 69 66 65 64 63 61
82 83 83 83 83 84 85 81 81 81 80 79 80 79 79 78 73 73 79 77 76 75 78 77 76 76 77 73 68 76 77 76 75 72 74 79 81 81 79 67 69 68 64
81 82 82 82 82 85 75 70 78 81 80 79 79 79 79 73 71 67 68 70 75 75 75 77 77 75 74 67 71 76 76 74 73 69 68 75 77 78 79 80 71 66 63
81 81 81 82 81 82 68 67 70 83 80 80 79 80 79 80 72 75 66 66 67 67 71 76 74 74 71 69 73 71 72 72 72 76 73 74 79 76 80 82 66 63 61
80 81 81 81 81 82 66 65 68 81 81 81 80 80 78 78 75 74 77 74 74 73 74 77 77 77 72 76 74 75 72 72 74 76 74 70 77 75 78 79 67 63 61
81 81 82 81 80 81 63 63 67 79 81 79 80 80 78 77 69 64 75 74 72 74 67 64 65 63 63 63 70 76 72 70 72 75 75 72 75 73 75 75 78 65 61
81 84 82 81 76 81 61 61 67 84 80 81 79 77 65 73 61 60 74 75 74 76 75 73 70 64 65 67 61 72 77 73 73 71 74 71 73 73 69 76 75 76 77

GFSMA_sfc_temp_030.txt.gz
Temp
92 94 93 96 94 97 96 92 93 92 90 84 92 95 96 94 96 100 94 81 81 82 82 83 83 82 82 81 81 81 81 81 81 81 81 81 80 80 80 80 80 80 79
92 95 94 96 96 97 97 90 91 89 93 92 88 93 95 96 93 95 97 90 82 82 83 83 82 82 82 82 82 82 81 81 81 81 80 81 80 80 80 80 80 80 80
90 89 90 92 96 93 90 90 92 94 91 95 90 94 97 92 94 93 98 97 88 82 83 83 83 81 82 83 82 82 81 81 80 81 81 80 80 80 80 80 80 80 80
89 89 89 93 95 90 93 92 92 92 94 92 91 95 96 93 92 93 95 97 97 93 84 83 82 82 82 82 83 81 81 81 80 80 80 80 80 80 79 78 78 79 79
90 90 93 94 92 95 92 93 92 92 91 92 91 96 96 93 90 97 93 94 93 97 96 82 82 82 83 83 83 82 81 81 80 80 80 79 79 79 79 79 79 79 78
90 90 93 91 91 95 93 92 88 92 92 91 93 92 95 92 95 95 94 96 94 94 96 91 90 85 82 83 82 82 82 82 81 81 80 79 79 79 79 78 78 78 78
90 89 92 90 91 90 86 88 89 86 90 91 89 89 90 91 92 95 97 96 93 96 94 94 94 96 87 82 81 81 81 81 81 81 79 79 79 78 78 77 77 78 78
90 90 88 90 89 93 86 86 85 90 91 91 88 89 83 87 91 96 95 94 92 95 93 92 91 90 91 89 85 80 79 80 80 79 79 78 78 77 77 76 75 75 74
91 89 89 90 88 89 90 86 86 85 89 88 86 87 83 84 86 90 89 94 90 93 92 91 91 89 90 91 85 82 78 79 80 81 80 79 78 78 77 77 76 76 76
91 91 89 89 88 92 89 85 89 88 85 86 87 89 86 85 85 82 89 90 91 91 90 93 92 91 89 93 83 79 78 78 79 80 80 79 79 79 78 78 77 77 77
91 93 90 89 88 90 89 87 86 84 88 89 88 87 85 88 86 85 84 85 89 91 91 91 94 94 90 92 91 82 78 78 79 79 79 79 79 79 79 79 78 78 78
93 90 91 89 89 89 88 88 86 85 85 86 90 88 88 86 86 85 84 85 86 89 91 92 91 92 93 92 89 78 77 77 77 77 77 77 77 77 78 79 79 79 79
94 92 89 88 90 88 89 88 85 86 85 85 83 89 90 90 91 89 87 88 86 90 88 91 92 92 92 92 92 82 77 75 74 74 74 75 75 76 76 77 78 78 79
95 93 90 90 89 90 89 88 89 88 87 86 84 84 90 90 90 90 88 87 83 85 87 84 92 92 92 92 88 78 86 73 72 72 71 72 73 73 74 74 75 76 76
95 93 91 88 90 89 88 87 89 86 87 85 85 84 86 91 91 91 90 89 86 82 83 85 87 90 92 92 88 89 88 75 72 71 70 69 70 71 71 72 72 71 72
91 92 90 90 89 89 88 86 88 87 85 87 88 85 84 90 90 90 90 90 88 85 82 91 89 91 91 92 84 88 89 77 72 70 69 68 68 69 70 70 70 70 70
91 89 90 89 89 89 88 86 87 89 84 84 85 85 82 85 89 90 89 89 88 87 83 88 90 88 84 84 87 87 89 88 88 71 69 68 67 68 69 69 69 69 69
90 90 90 88 89 89 89 86 86 89 85 84 84 83 83 86 82 84 88 84 86 86 85 79 86 86 81 83 84 83 86 91 90 73 71 69 68 68 67 67 67 67 66
88 90 90 88 88 89 88 87 87 87 87 86 86 84 83 83 81 86 83 86 86 84 84 84 84 87 87 86 83 82 83 84 88 76 71 69 67 68 67 66 65 63 62
88 88 89 89 89 89 89 89 88 87 87 87 86 86 85 84 82 81 82 81 83 84 83 83 84 85 85 85 84 83 82 84 85 89 81 75 72 70 67 65 65 64 62
88 88 88 89 90 91 92 89 89 88 87 86 87 86 86 83 77 79 84 81 82 81 85 84 83 84 83 83 80 83 80 78 85 84 84 85 83 80 81 67 73 68 64
87 87 88 88 88 92 80 74 84 89 88 86 85 86 86 77 76 70 70 71 78 80 79 84 84 82 80 82 83 81 80 81 78 85 80 81 84 83 85 87 71 67 64
87 86 87 88 87 88 73 70 73 90 88 87 86 86 86 89 78 83 69 67 68 68 72 80 78 81 80 79 78 77 77 78 77 84 77 78 85 83 86 87 68 67 63
86 86 86 86 87 89 70 67 71 86 89 88 87 86 86 87 84 81 82 77 79 80 78 82 80 81 81 81 79 78 77 76 78 81 79 73 82 81 83 84 69 66 63
86 86 87 86 86 87 66 64 70 85 87 87 88 88 87 85 75 67 81 79 78 79 70 66 66 66 67 66 72 81 77 73 73 77 78 78 79 79 80 81 82 68 65
86 89 87 87 81 86 65 61 70 88 86 88 86 86 70 81 65 62 77 79 76 78 77 73 72 70 67 70 63 76 81 77 79 78 80 77 78 78 74 81 81 81 80

GFSMA_sfc_temp_033.txt.gz
Temp
90 86 89 86 89 87 86 89 91 90 91 88 92 92 95 96 97 89 90 81 82 83 83 83 83 82 82 81 81 81 81 81 81 81 81 81 81 81 80 80 80 80 80
92 86 88 84 86 84 80 92 91 83 84 90 90 93 95 96 93 93 90 87 82 82 83 83 83 83 82 82 82 82 81 81 81 81 81 81 80 80 80 80 80 80 80
91 89 89 86 84 84 91 88 90 85 89 92 91 95 90 90 94 92 89 89 87 82 83 83 83 82 82 83 82 82 81 81 81 81 81 80 80 80 80 80 80 80 80
91 91 92 92 85 90 95 85 92 94 89 94 92 94 94 94 94 94 95 87 87 89 84 83 83 82 81 81 82 81 82 81 81 80 80 80 80 80 80 79 79 79 79
91 91 77 80 92 89 89 94 83 90 91 92 91 94 94 93 90 96 94 92 93 84 86 82 82 82 83 83 83 82 81 81 81 80 80 80 80 79 79 79 79 79 79
92 91 89 91 93 90 83 81 88 92 91 91 95 93 93 95 95 95 94 95 94 94 87 88 85 83 83 84 83 83 82 82 81 81 80 79 79 79 79 78 78 78 78
91 90 92 91 92 87 90 89 89 87 89 90 90 90 91 93 93 95 98 95 94 88 92 94 85 84 82 82 81 82 82 82 82 81 79 79 79 78 78 78 77 77 78
91 91 90 84 91 79 88 87 87 82 91 91 87 89 83 87 92 95 95 94 93 95 93 93 92 87 81 78 84 80 80 81 80 80 79 78 78 77 77 76 76 76 75
92 91 90 91 91 90 83 87 88 87 89 89 87 86 83 74 87 91 90 92 91 93 92 91 91 90 88 88 85 81 79 80 81 80 80 79 78 78 78 77 77 77 76
92 93 91 91 89 92 84 88 90 89 86 86 89 91 87 84 74 74 89 91 91 91 90 92 91 90 90 91 82 80 78 79 80 80 80 79 79 79 78 78 77 77 77
92 94 92 90 89 90 90 86 87 86 89 89 89 89 87 90 88 83 72 79 89 92 91 91 95 89 91 92 89 81 78 78 79 80 80 80 79 80 80 79 79 78 78
93 91 93 90 88 90 91 89 88 87 86 89 90 90 89 87 87 86 85 84 83 82 93 93 92 93 93 92 88 79 78 77 78 79 79 79 79 79 79 79 79 79 79
95 91 90 88 90 89 91 90 87 88 86 87 85 90 92 91 92 90 88 87 86 90 89 92 93 93 94 93 89 82 77 76 76 76 76 77 77 78 78 78 79 79 79
96 96 91 91 90 91 90 90 90 89 88 87 85 84 91 92 92 91 88 87 83 86 88 85 93 93 92 92 86 80 84 74 74 73 73 74 74 74 75 75 76 76 76
98 96 93 90 91 90 90 89 90 88 89 86 86 85 86 92 93 93 92 90 86 82 84 84 87 92 93 93 88 90 89 74 73 72 71 71 71 72 72 72 72 72 72
93 95 93 92 90 90 90 89 90 90 87 89 89 86 85 90 93 92 92 91 90 86 82 91 89 92 91 92 84 88 89 77 73 72 71 69 69 70 70 71 71 71 71
93 91 91 91 90 90 90 88 88 90 87 86 87 87 84 85 90 92 91 91 89 88 84 88 92 88 86 85 86 87 88 88 87 71 71 70 69 69 70 70 70 70 70
91 91 91 90 90 90 90 88 87 90 88 85 85 86 85 87 83 85 90 86 87 88 86 81 86 87 83 84 84 84 86 91 90 73 72 71 69 68 68 68 68 67 67
90 93 90 90 89 90 89 89 88 88 90 88 87 86 85 85 83 85 84 87 87 86 86 83 84 88 88 86 83 83 83 84 88 73 71 70 69 68 67 66 65 64 63
89 89 90 90 90 90 90 90 89 88 88 90 88 88 87 85 83 82 84 82 84 86 83 84 84 85 87 87 85 82 82 83 83 89 81 79 77 70 68 66 66 65 63
90 90 89 90 90 91 93 89 89 88 87 88 89 88 88 85 79 80 85 82 81 82 85 85 83 83 85 84 79 83 81 83 83 85 85 85 82 84 78 68 74 68 65
89 89 89 89 89 93 81 75 85 89 88 87 86 88 88 79 77 72 72 72 80 81 80 84 84 82 81 84 84 83 82 79 76 76 82 81 83 80 84 84 71 69 66
88 87 88 89 88 89 74 72 74 91 89 88 87 87 89 92 80 84 71 71 69 70 74 81 78 80 81 83 83 77 78 77 77 79 77 78 83 82 86 81 68 67 64
87 87 87 88 88 90 72 68 71 87 88 88 88 87 87 87 86 84 83 80 80 80 78 81 81 83 83 84 81 80 78 77 77 80 78 74 82 81 84 85 70 66 65
87 87 89 87 87 87 69 66 69 87 87 86 88 89 88 87 78 70 83 81 79 79 72 68 67 69 70 69 75 81 78 74 72 77 78 78 81 79 81 81 81 66 67
88 90 89 88 82 87 71 64 69 90 87 88 86 87 72 84 69 65 81 80 77 78 80 74 70 68 69 69 66 78 81 75 74 72 79 78 79 79 74 81 81 79 80

GFSMA_sfc_temp_036.txt.gz
Temp
77 79 80 77 82 80 77 78 81 83 84 85 83 87 88 88 87 84 80 81 82 82 84 83 82 82 82 82 81 81 81 81 81 81 81 81 81 81 80 80 80 80 80
81 82 83 83 82 81 77 82 84 82 80 83 82 86 86 87 84 85 82 80 81 82 82 83 83 82 82 82 81 81 81 81 81 81 81 80 80 80 80 80 80 80 80
86 81 84 82 83 83 85 85 81 80 80 86 85 86 86 86 86 84 84 82 81 82 82 82 82 82 82 82 82 82 81 81 81 81 80 80 80 80 80 80 80 80 79
90 87 82 80 80 82 84 82 82 79 79 82 83 82 83 86 86 83 84 84 82 83 82 82 82 82 82 82 82 82 81 80 80 80 80 80 80 80 80 79 79 79 79
89 86 81 77 82 85 82 84 84 82 81 83 83 82 84 82 83 89 84 83 83 82 82 81 81 81 82 83 82 82 81 81 80 80 80 80 79 79 79 78 78 78 78
88 86 81 84 84 84 82 82 83 83 82 81 88 85 82 83 81 83 85 86 83 82 81 80 78 80 82 83 83 83 83 82 81 80 80 79 79 79 78 78 78 78 78
87 86 82 77 84 84 83 84 84 80 78 82 80 80 80 85 84 83 82 84 82 84 82 81 79 79 80 81 81 82 82 82 82 80 79 78 78 78 78 77 77 77 78
88 87 84 83 85 77 82 84 83 78 80 82 77 76 73 77 81 84 83 84 84 83 84 82 80 79 78 77 77 80 80 80 80 79 78 78 77 77 77 76 76 76 76
87 85 85 83 83 82 78 80 82 83 77 80 82 77 69 70 75 80 82 81 83 79 81 82 82 80 78 76 77 77 78 78 80 80 79 78 77 77 77 77 76 76 76
87 86 85 85 84 82 81 81 84 83 81 77 80 83 81 78 72 71 78 79 81 83 81 79 81 81 79 78 79 78 77 77 78 79 79 79 78 78 78 78 77 77 77
86 89 85 85 85 84 82 81 83 82 82 80 78 78 79 78 79 74 71 74 79 79 80 80 81 80 81 78 75 75 77 77 77 78 78 79 79 79 79 79 78 78 78
87 86 86 84 84 84 83 82 83 83 81 81 80 80 78 76 76 75 73 74 75 77 80 80 81 79 81 80 83 78 77 76 76 77 77 78 78 79 80 80 80 79 79
87 85 85 83 84 83 84 84 82 82 82 81 80 79 80 80 81 79 76 75 74 76 78 81 80 80 84 80 80 78 77 75 75 75 75 76 77 77 78 78 79 79 79
88 86 85 85 84 84 84 84 84 83 82 81 81 79 78 80 82 80 78 76 73 74 76 77 80 80 80 80 77 78 75 73 73 72 72 73 74 75 75 75 76 76 76
91 88 86 85 85 85 84 84 84 82 83 81 80 80 78 79 82 81 80 79 75 71 73 76 76 80 80 78 78 79 77 73 72 72 71 71 71 72 73 73 73 73 73
86 89 85 85 85 84 85 83 84 84 82 82 82 79 78 78 80 81 80 79 78 75 71 76 77 79 81 83 78 80 81 75 72 72 71 70 70 71 71 71 71 71 71
87 86 85 84 84 84 84 83 82 83 82 81 81 79 78 78 79 80 80 79 78 77 73 75 79 78 78 77 77 79 77 76 74 71 70 70 69 70 70 70 70 70 70
86 87 86 85 85 84 84 83 82 84 83 81 81 80 79 82 77 78 79 77 77 78 76 73 76 76 76 77 77 76 79 85 78 75 70 70 69 68 68 68 68 68 67
86 87 87 85 84 84 84 84 83 83 82 83 82 80 80 79 77 78 77 77 78 78 78 74 73 76 76 77 75 76 76 76 81 73 70 69 68 68 67 66 66 65 64
85 86 86 85 86 85 85 85 84 83 83 84 83 82 81 80 78 77 77 75 77 76 75 74 73 73 75 75 76 74 72 74 74 83 78 75 71 69 68 66 66 65 62
86 85 85 86 86 87 88 84 84 84 83 82 84 84 83 82 77 77 79 77 75 75 75 75 73 73 73 74 73 73 71 73 73 75 73 77 75 71 72 68 70 68 65
85 85 85 85 85 89 79 75 82 85 84 82 82 83 84 78 76 73 73 74 77 74 73 75 74 73 72 75 75 73 72 70 69 74 71 73 75 74 76 75 72 70 67
85 84 84 85 84 85 73 72 73 86 84 83 82 82 84 87 78 79 71 71 70 71 74 76 74 75 75 76 75 73 73 71 70 71 71 68 73 71 73 71 67 66 66
84 84 84 84 84 85 72 69 71 84 84 84 84 83 82 83 82 81 78 76 77 75 74 77 78 77 76 77 77 75 73 73 73 72 72 66 71 69 72 69 66 66 65
84 85 85 84 83 84 69 67 69 82 84 83 84 84 83 82 77 69 80 76 75 76 71 68 69 71 70 70 74 74 71 70 68 69 72 69 69 69 69 69 65 64 63
85 87 85 85 80 84 71 64 67 84 83 84 83 83 72 81 71 64 78 78 75 75 76 75 72 67 66 67 67 73 74 69 68 67 72 69 68 68 63 68 66 64 63

GFSMA_sfc_temp_039.txt.gz
Temp
74 75 77 73 75 75 75 76 75 77 78 80 82 82 83 81 81 79 74 81 81 82 83 82 82 82 81 81 81 81 81 81 81 81 81 81 80 80 80 80 80 80 79
76 74 76 76 78 74 73 74 75 76 76 77 79 83 82 81 79 80 76 76 81 81 82 82 82 82 82 81 81 81 81 81 81 80 80 80 80 80 80 80 80 80 79
76 78 74 76 79 75 77 76 76 78 76 78 79 83 80 80 80 80 80 76 77 81 82 82 82 81 82 82 82 81 81 80 80 80 80 80 79 79 79 79 79 78 79
80 74 74 76 76 77 77 77 79 79 74 77 77 80 78 78 79 81 80 78 76 80 81 81 81 80 81 82 82 81 81 80 80 80 79 79 79 79 79 79 79 79 78
82 76 76 76 76 77 77 77 76 76 77 76 81 79 80 77 80 82 79 78 77 78 77 80 80 80 82 82 82 81 81 80 79 79 79 79 79 79 78 78 78 78 78
81 78 75 76 76 76 76 76 75 76 77 77 84 83 75 80 77 79 79 82 78 78 77 76 75 76 80 83 82 81 81 80 80 79 79 79 79 78 78 77 77 77 77
80 77 76 76 76 75 76 77 75 76 74 74 72 72 73 77 80 80 78 77 77 77 76 74 74 76 77 81 80 81 82 82 81 80 79 78 77 77 77 76 76 76 76
79 79 76 75 76 75 76 76 75 72 73 72 70 71 70 73 75 76 75 78 74 76 76 77 75 75 74 74 75 79 79 80 79 79 78 77 77 76 76 75 75 75 75
80 79 78 76 76 74 73 75 75 74 70 72 75 71 66 66 67 76 74 74 74 73 75 76 76 75 74 72 75 77 77 77 79 79 79 78 77 77 76 76 75 75 75
80 80 79 78 77 75 75 74 77 75 73 70 72 76 73 71 66 67 71 74 74 76 73 74 75 76 74 71 75 75 76 77 78 79 79 79 78 77 77 77 76 76 76
79 81 79 78 77 76 75 75 76 75 73 72 70 71 71 71 70 67 64 71 72 72 73 74 74 76 74 73 71 73 76 76 76 77 78 79 79 79 79 78 78 77 77
79 79 80 78 78 76 76 75 76 75 74 74 72 71 71 70 70 68 66 69 68 71 73 73 74 75 75 72 77 77 76 75 75 75 76 77 78 79 80 80 79 79 79
79 79 78 77 77 77 77 77 76 75 74 73 73 72 72 72 73 71 70 67 68 70 72 73 74 74 77 74 75 77 76 74 73 73 73 74 76 77 77 78 79 79 79
81 82 79 81 78 78 77 77 76 76 75 74 74 72 71 72 72 73 72 70 66 66 68 72 72 74 74 76 76 76 74 72 72 71 71 72 73 74 74 75 75 75 75
81 81 82 80 79 79 77 77 78 76 76 74 73 73 72 72 72 73 74 72 70 64 65 71 72 74 74 73 75 75 73 72 72 71 70 70 71 72 72 72 72 72 72
79 79 81 81 80 80 79 77 76 76 75 75 75 73 72 71 72 72 73 73 71 68 66 69 72 73 74 77 76 74 75 73 71 70 70 69 70 70 70 70 71 71 71
79 77 79 80 80 80 79 79 76 76 75 75 75 73 72 72 72 71 71 72 71 70 68 69 71 72 71 72 72 72 74 71 71 70 70 69 68 69 69 69 69 69 70
81 78 80 80 80 80 80 77 77 79 75 74 74 73 73 76 71 71 71 71 72 71 70 68 69 71 71 71 72 71 74 78 72 71 69 68 68 67 67 67 67 67 66
80 82 79 80 80 80 79 80 79 79 77 77 77 75 75 74 73 75 70 70 70 72 70 68 68 68 70 70 69 70 71 72 75 75 68 68 68 68 67 65 65 64 63
82 80 82 79 81 81 81 81 80 79 79 79 77 78 78 75 76 75 73 70 71 69 68 67 67 68 68 69 71 70 67 68 70 77 74 71 69 68 67 66 65 64 61
82 83 82 82 81 82 83 81 81 81 80 79 79 79 79 79 76 76 77 73 72 69 67 67 65 66 68 66 70 68 70 69 68 70 69 69 68 71 70 68 69 68 64
82 82 81 83 82 84 76 73 80 81 81 80 78 79 80 76 75 71 71 73 76 75 74 71 74 70 73 73 68 72 71 65 65 69 69 67 72 68 71 68 70 68 64
82 81 82 81 82 83 71 70 72 83 82 81 81 80 80 83 75 78 70 70 71 70 75 77 74 74 73 76 73 71 68 65 66 68 67 65 67 68 70 72 67 65 63
82 82 81 82 82 83 70 68 70 82 83 82 82 81 81 81 81 78 78 74 75 75 74 76 78 79 75 72 77 73 69 69 67 68 67 64 67 67 67 66 65 65 63
83 83 83 82 81 82 67 66 67 80 82 82 83 82 82 81 76 67 78 75 75 76 72 67 70 71 68 68 72 71 66 65 64 65 68 67 66 66 66 63 63 63 62
84 84 83 83 78 82 68 63 66 81 81 82 83 83 71 78 69 64 77 78 74 75 77 76 70 66 67 69 68 74 67 65 63 63 67 67 65 65 63 62 61 61 60

GFSMA_sfc_temp_042.txt.gz
Temp
72 73 75 73 74 74 74 73 74 76 75 76 77 79 79 76 76 75 73 81 81 82 82 82 82 81 81 81 80 80 80 80 80 80 80 80 79 79 79 79 79 79 79
72 73 73 73 74 73 73 72 74 74 73 74 76 82 78 76 76 74 74 76 81 81 82 82 82 81 81 81 81 81 81 80 80 80 80 80 79 79 79 79 79 79 79
74 74 73 73 75 73 73 74 74 73 74 75 77 77 76 75 76 77 78 74 77 81 82 82 81 81 81 81 81 81 80 80 80 80 79 79 79 79 79 79 79 79 78
75 73 73 73 74 74 73 73 73 74 73 74 73 74 74 74 76 76 76 74 74 79 80 81 80 80 81 82 81 81 80 80 80 80 79 79 78 79 79 78 77 77 78
77 74 74 74 74 74 74 74 76 73 73 77 75 73 73 73 76 79 75 75 74 75 74 79 79 80 81 82 81 80 80 80 79 79 79 79 79 78 78 78 78 78 78
78 75 73 75 74 74 73 74 73 75 76 73 80 76 73 73 75 74 76 78 74 75 74 75 74 75 79 82 81 81 80 80 79 79 79 78 78 78 78 77 77 77 77
78 75 74 76 74 73 74 74 73 74 72 70 70 71 70 77 74 74 73 74 74 74 73 73 73 73 75 80 80 80 81 81 80 79 78 77 77 77 76 76 76 76 76
77 76 74 74 74 74 74 73 73 70 70 70 69 66 65 69 70 72 71 74 72 74 74 74 73 73 73 72 74 79 79 80 79 78 77 77 76 76 76 75 75 75 75
78 76 76 74 74 73 72 73 73 72 68 70 71 69 63 63 65 70 70 71 71 71 71 73 74 73 72 71 75 77 77 77 78 79 78 77 77 76 76 76 75 75 75
77 77 77 76 74 73 73 73 74 72 69 69 70 73 70 68 65 64 68 69 70 72 70 71 73 73 72 70 74 75 76 76 78 79 79 78 77 77 77 76 76 75 75
77 79 76 76 75 73 73 73 73 72 71 69 68 69 68 68 66 64 63 67 69 69 69 72 73 71 71 70 69 72 76 75 76 77 78 78 78 78 78 78 77 77 77
76 76 77 76 75 74 73 73 74 73 72 70 69 69 70 69 67 66 64 64 67 69 69 70 70 72 70 70 74 75 76 75 75 75 76 77 78 79 79 79 79 79 79
72 74 76 75 75 74 74 74 73 73 71 71 70 70 69 69 69 68 67 65 65 67 68 69 70 72 74 70 72 75 76 74 73 72 73 74 75 76 77 78 78 79 78
77 78 78 78 77 76 75 74 73 73 73 71 72 70 69 70 70 69 70 67 63 63 65 70 70 71 73 72 73 76 74 72 71 71 71 71 72 73 75 75 75 75 76
78 78 79 78 78 76 76 74 74 73 74 72 71 72 69 70 70 70 69 69 68 62 63 69 69 71 73 72 74 74 72 73 71 70 69 69 70 71 72 72 73 72 72
77 78 78 79 78 78 76 74 74 74 74 73 72 71 70 70 70 69 69 68 67 67 64 68 69 70 72 76 74 74 73 73 71 70 69 69 69 70 70 71 70 70 71
76 77 78 78 78 78 77 74 74 75 74 74 73 72 71 71 71 69 68 68 67 66 66 67 67 69 68 69 71 69 71 71 71 69 69 68 68 68 69 69 69 68 69
76 77 76 78 78 78 78 77 75 77 75 74 74 72 73 75 69 68 68 68 68 67 67 66 66 67 69 68 69 69 73 76 73 72 68 67 67 67 66 66 66 66 65
79 76 76 76 77 78 78 78 78 77 75 76 75 74 75 73 73 71 67 69 67 69 66 66 67 66 67 67 66 67 68 69 73 73 68 67 67 67 66 65 64 62 62
78 75 76 77 78 78 79 79 79 77 77 76 76 76 76 74 74 72 70 69 68 67 65 65 64 65 66 67 67 69 66 67 70 75 74 71 68 67 67 64 64 63 60
78 80 78 78 79 79 80 79 79 79 78 77 76 76 77 76 74 75 76 74 68 69 65 64 63 63 64 65 67 66 71 73 70 68 68 69 67 67 69 66 68 67 62
79 78 78 78 77 81 74 72 78 79 79 78 77 77 77 74 73 70 70 73 74 72 72 71 72 71 72 68 65 71 71 62 65 68 67 71 68 69 71 71 69 66 63
78 78 79 79 80 79 69 69 71 81 80 79 79 79 78 80 74 76 69 69 70 69 74 77 74 76 74 75 72 66 67 65 70 66 67 69 66 70 72 73 66 65 63
78 78 79 79 79 81 68 67 69 79 81 80 80 80 79 79 79 76 77 73 73 75 74 76 79 78 79 79 76 77 73 71 66 65 65 67 64 66 68 69 66 65 62
80 80 80 79 79 80 66 65 67 77 79 80 81 80 80 80 74 67 76 75 74 74 72 67 69 70 68 67 71 68 65 65 64 64 65 65 63 64 66 67 67 63 61
81 81 81 81 76 80 67 63 65 79 78 79 81 82 70 76 67 63 74 77 75 76 76 76 72 69 65 69 65 76 72 66 66 64 66 65 63 63 62 65 65 63 61

GFSMA_sfc_temp_045.txt.gz
Temp
71 73 73 73 73 73 72 72 71 74 74 74 75 76 75 74 74 73 73 81 81 82 82 82 81 81 81 80 80 80 80 80 80 80 80 79 79 79 79 79 79 79 79
72 72 72 72 72 72 72 71 71 72 73 73 74 76 74 75 73 73 73 75 80 81 81 81 81 81 81 81 80 80 80 80 79 79 79 79 79 79 79 79 79 79 78
73 73 72 72 72 72 73 71 72 71 72 74 75 74 74 73 73 73 73 72 76 80 80 81 81 81 81 81 81 80 80 80 80 80 79 79 79 78 78 78 78 78 78
74 73 72 72 72 73 72 72 71 71 70 71 72 72 72 73 73 74 74 73 73 77 80 80 80 80 81 81 81 80 80 80 79 79 79 78 78 79 78 78 78 78 78
75 73 73 73 73 72 71 74 73 71 75 72 72 71 70 71 72 76 73 73 73 73 73 78 79 79 81 82 81 80 80 80 79 79 79 78 78 78 78 78 78 77 77
76 73 72 73 73 72 71 72 73 71 71 72 76 73 70 72 73 72 73 75 72 73 72 73 73 74 79 81 81 81 80 80 79 79 79 78 78 77 77 77 77 76 77
76 74 72 73 73 71 73 73 71 71 69 68 69 69 69 70 71 71 71 72 72 72 71 72 71 71 73 79 79 80 81 81 80 79 78 77 77 76 76 75 75 76 76
75 75 73 73 73 72 72 72 71 69 68 68 67 64 64 68 68 70 69 73 71 72 72 73 72 71 71 71 73 79 79 80 79 78 77 76 76 76 75 75 75 75 75
76 75 74 73 73 72 71 71 71 70 68 68 68 68 62 62 63 68 69 69 71 69 70 71 72 72 71 70 73 76 77 77 78 78 78 77 77 77 76 76 75 75 75
76 76 75 74 73 71 70 71 72 70 68 68 68 71 67 66 64 63 67 68 69 70 69 69 71 72 71 69 73 75 76 75 77 79 79 78 77 77 77 76 76 75 75
75 76 75 74 73 72 72 72 71 71 68 68 68 67 67 66 64 63 62 65 67 68 68 69 70 70 71 70 69 71 75 75 76 77 78 78 78 78 78 77 77 77 77
74 74 75 73 73 73 72 72 72 71 69 68 67 68 68 67 65 64 62 62 64 68 68 68 69 70 70 69 73 75 75 75 75 75 76 77 78 78 79 79 78 78 78
70 73 73 73 72 73 73 72 72 72 71 69 68 68 67 68 67 66 65 63 64 65 66 67 68 69 71 68 70 76 76 74 73 72 72 74 75 76 77 78 79 79 79
75 77 75 75 74 74 74 72 72 72 71 71 70 68 68 68 67 68 68 65 62 61 62 67 67 70 70 69 71 74 71 72 72 71 70 71 72 73 75 75 76 76 76
75 74 76 76 74 74 74 73 71 72 72 71 70 70 68 68 68 68 67 67 67 62 62 66 68 69 71 70 72 71 71 72 71 70 69 69 70 71 72 73 73 73 73
75 75 75 76 74 74 74 73 72 72 72 72 70 69 69 68 68 67 67 66 65 66 63 66 68 68 69 73 73 72 73 72 71 70 69 69 69 70 70 70 71 70 71
74 73 74 75 75 74 74 73 74 73 72 72 72 71 70 69 68 67 66 65 65 64 64 66 65 66 67 67 70 71 71 70 71 69 69 68 68 68 69 69 69 69 69
72 75 73 74 76 76 75 75 74 76 73 72 73 72 72 73 68 67 66 66 66 64 65 64 65 66 66 66 68 68 71 74 72 71 68 68 67 67 67 67 66 66 66
73 73 73 75 75 76 76 75 76 75 74 75 74 73 74 71 71 69 67 66 65 66 64 64 64 65 66 64 64 66 66 67 71 73 68 67 67 67 66 65 65 63 62
75 74 75 76 77 76 76 76 76 76 75 75 75 74 75 73 74 73 69 68 67 66 63 63 63 64 65 66 64 64 64 64 70 74 73 71 69 68 67 64 64 63 60
77 77 75 76 76 77 78 76 76 76 75 75 74 75 75 75 73 74 75 72 68 68 67 67 66 62 63 63 63 64 70 74 68 69 70 68 69 67 67 65 68 67 63
76 76 77 76 76 78 72 71 76 77 76 76 75 74 76 74 73 69 69 72 74 72 71 70 72 71 71 70 67 73 69 62 65 66 70 72 69 70 71 69 69 66 63
76 76 76 77 76 77 69 68 70 79 77 77 77 77 77 78 73 76 69 68 69 68 73 77 72 74 73 75 73 66 72 71 73 67 72 72 68 71 75 73 67 65 63
75 76 76 76 77 78 68 66 69 77 79 78 78 78 78 78 78 75 75 74 71 73 73 73 77 79 78 78 76 77 75 73 71 64 67 71 65 71 75 72 66 65 62
76 76 77 76 76 77 65 65 66 75 77 77 79 79 79 78 73 66 75 74 74 75 70 66 68 69 68 67 74 72 66 65 65 66 64 72 64 64 62 63 65 64 61
78 78 77 77 74 77 66 63 65 77 75 76 78 79 69 75 67 63 73 75 73 75 77 76 73 68 67 71 64 75 77 68 70 63 66 65 64 62 61 61 63 63 62

GFSMA_sfc_temp_048.txt.gz
Temp
73 75 74 73 75 75 73 74 75 77 76 77 78 78 78 75 77 78 78 81 80 81 82 81 81 81 81 80 80 80 80 80 80 80 80 79 79 79 79 79 79 79 79
73 74 73 74 73 75 75 74 75 75 75 76 76 78 77 77 77 77 78 79 80 81 81 82 81 81 81 80 80 80 80 80 79 79 79 79 79 79 79 79 79 79 78
73 75 74 74 74 75 75 75 75 75 75 76 76 76 76 76 77 77 77 76 80 81 81 81 81 81 81 81 81 80 80 80 80 80 79 79 79 78 78 78 78 78 78
73 75 75 75 75 75 74 74 74 75 74 75 75 75 75 76 76 77 77 78 77 79 80 80 79 80 81 81 81 80 80 79 79 79 78 78 78 78 78 78 78 78 78
76 75 75 75 76 75 74 74 74 75 75 75 75 74 74 75 76 79 77 77 78 79 78 78 79 79 81 81 81 80 80 79 78 78 78 78 78 78 78 78 78 77 77
76 75 74 75 75 75 75 75 74 73 74 73 78 74 74 75 76 76 76 78 77 78 78 78 78 79 79 81 81 81 81 80 80 79 79 78 78 78 77 76 76 76 76
76 74 74 74 75 74 76 76 74 73 72 72 72 72 72 73 75 76 77 77 77 78 77 78 78 78 79 78 79 80 81 81 80 78 77 77 76 76 76 75 75 76 76
76 75 74 74 75 74 73 75 75 73 71 72 70 70 68 72 73 75 76 77 76 77 78 77 77 76 77 78 78 79 79 79 79 78 77 76 76 76 75 75 75 75 75
77 76 75 75 74 73 72 74 74 74 71 72 72 70 67 68 68 72 74 75 75 76 76 76 77 77 76 77 77 78 77 77 78 78 78 77 76 76 76 76 75 75 75
76 76 76 75 75 73 73 74 75 74 71 71 72 73 71 70 69 70 73 73 74 75 76 76 77 78 77 77 76 76 75 75 77 79 79 78 77 77 77 76 76 75 75
76 77 76 75 75 75 74 74 74 73 72 71 72 72 71 70 69 69 69 72 73 74 75 75 77 77 77 77 77 75 75 75 75 77 78 78 78 78 78 77 77 76 76
74 76 76 75 75 75 75 74 75 74 72 71 71 72 72 72 71 70 69 69 71 74 74 74 75 76 77 77 77 75 75 75 74 75 76 76 78 78 79 79 78 78 78
73 74 75 75 75 75 76 75 74 75 74 73 71 72 72 73 72 71 71 70 70 71 73 74 75 75 78 76 77 76 76 74 73 72 73 74 75 76 77 78 79 79 79
74 75 75 76 76 76 76 75 75 75 75 75 74 72 73 72 72 72 72 71 70 70 70 74 75 75 76 77 76 74 77 72 71 71 70 71 72 73 74 75 76 76 76
76 75 76 76 76 76 76 75 75 75 75 74 74 74 73 73 73 73 72 73 72 70 71 75 74 75 75 76 76 78 76 73 71 70 69 69 70 71 72 73 73 73 73
75 75 75 76 76 76 76 75 75 75 75 75 75 73 73 74 73 73 73 72 71 72 70 73 75 75 75 77 76 76 76 73 71 70 69 69 69 70 70 71 71 71 71
74 74 75 75 76 76 76 75 75 76 75 75 75 74 73 73 75 73 72 72 71 71 70 73 72 74 74 73 75 76 76 75 76 69 69 68 68 68 69 69 69 69 69
74 75 75 75 76 76 76 75 75 77 75 75 75 75 75 75 73 73 73 71 71 70 71 69 72 73 72 74 74 73 75 77 76 73 68 68 67 67 67 67 67 67 66
74 75 75 75 75 76 76 76 76 76 76 77 77 76 76 75 75 74 73 73 72 72 70 69 73 72 73 74 72 71 72 73 76 73 68 67 67 67 66 65 64 63 62
74 74 75 75 76 76 77 77 76 76 76 77 77 77 77 76 76 76 75 74 74 72 70 70 71 71 72 74 72 73 73 72 74 78 76 73 70 69 67 65 64 64 61
75 76 75 76 76 77 79 76 77 76 76 76 76 77 78 77 74 75 78 76 74 73 74 72 72 73 71 71 71 76 71 76 74 75 75 76 76 75 76 67 70 66 63
75 75 75 76 75 79 72 70 75 77 76 76 75 76 77 74 73 69 69 71 75 73 73 73 74 73 73 74 75 74 73 73 73 72 73 75 77 76 77 77 71 67 63
75 75 75 75 75 76 68 68 70 79 77 77 77 77 77 79 74 77 70 68 68 68 71 77 74 74 74 76 75 72 71 73 74 78 73 75 77 74 78 78 67 65 63
74 75 75 75 75 76 67 66 68 76 78 78 78 78 77 78 78 76 77 77 76 75 73 74 75 77 79 79 77 76 74 73 75 76 72 72 79 73 77 78 66 65 62
75 75 76 75 75 76 64 64 66 76 76 77 79 78 78 78 72 66 76 76 76 77 71 66 67 67 66 66 70 77 72 68 70 73 70 73 75 69 70 69 69 64 62
76 77 76 76 72 76 65 62 65 77 76 77 78 78 69 75 66 63 75 76 75 77 79 79 78 70 67 71 65 70 73 68 67 67 72 66 69 66 63 67 67 66 64

GFSMA_sfc_temp_051.txt.gz
Temp
85 87 86 87 87 88 88 87 87 88 86 87 89 88 87 87 88 91 90 81 81 82 82 81 81 81 81 81 81 80 81 80 80 80 80 80 79 79 79 79 79 79 79
84 86 85 86 86 88 88 88 87 87 88 89 86 87 87 87 86 87 90 88 81 81 82 82 81 81 81 81 80 80 80 80 79 79 79 79 79 79 79 79 79 79 79
83 84 86 86 87 85 85 86 85 86 88 89 86 87 88 87 88 86 88 88 88 80 81 81 81 81 81 81 81 81 80 80 80 80 79 79 79 79 79 79 79 79 78
83 84 85 87 86 86 87 87 88 87 88 86 86 87 87 88 86 86 89 89 89 91 82 80 80 80 81 81 80 80 80 80 79 79 79 79 79 79 79 79 78 78 78
84 85 84 85 85 87 86 88 87 88 87 88 87 86 87 87 87 90 87 87 88 88 91 82 80 80 81 82 82 81 81 80 79 79 79 79 79 79 79 78 78 77 77
85 85 83 85 86 85 85 87 84 79 87 87 89 86 87 88 89 89 89 90 89 88 90 86 88 89 79 80 81 81 81 81 80 80 79 78 78 78 77 77 77 77 77
85 84 87 86 86 83 84 85 84 82 83 84 85 84 77 80 87 88 90 91 88 89 89 89 89 90 89 79 79 80 81 81 80 79 78 77 77 77 76 76 76 76 77
85 85 83 85 83 84 83 84 83 84 84 84 85 84 81 83 87 88 88 88 88 91 91 88 88 86 87 89 84 79 79 79 79 78 78 77 76 76 76 76 76 76 76
86 85 84 85 83 83 86 84 84 83 84 84 82 85 80 81 84 85 84 88 86 88 89 88 87 87 86 88 83 83 78 78 79 78 78 77 77 77 77 77 76 76 76
86 86 85 84 83 85 82 85 85 85 83 84 84 85 83 83 83 81 85 86 86 87 88 89 90 88 86 88 83 79 77 76 77 79 79 78 78 78 77 77 76 76 76
85 86 85 84 83 85 81 82 82 82 85 86 85 84 82 85 82 84 83 85 86 88 89 88 90 90 88 88 89 83 76 76 76 78 79 79 79 79 78 78 77 77 77
87 85 85 84 84 85 83 84 83 83 82 83 85 85 86 85 85 84 83 83 83 88 89 89 88 89 90 90 87 79 76 76 75 76 76 77 78 79 79 79 79 79 79
86 84 83 83 85 84 85 84 83 83 82 83 81 85 86 87 87 86 84 85 83 87 87 89 90 89 91 90 90 80 77 74 73 73 73 74 76 76 78 79 79 79 80
87 87 85 85 85 85 85 84 85 86 84 84 82 82 87 87 86 86 86 84 82 84 86 84 90 90 90 90 88 77 85 73 72 71 71 72 73 74 75 76 76 77 77
87 86 86 85 85 85 85 84 86 84 84 84 84 83 84 87 87 86 85 85 84 80 83 89 88 88 89 90 87 88 87 78 71 70 70 70 71 71 72 73 73 73 74
83 85 85 85 85 85 85 83 85 85 83 86 86 83 83 87 86 86 86 85 84 83 81 88 89 88 88 90 87 84 86 77 72 70 69 69 69 70 71 71 71 72 72
83 83 84 85 85 84 84 83 83 85 83 83 84 83 83 83 86 87 85 85 84 83 81 87 87 88 83 84 87 86 85 85 87 70 69 69 68 69 70 70 70 70 70
83 83 84 84 84 85 85 83 83 86 83 83 83 83 83 86 81 83 85 81 83 84 82 78 84 86 83 85 85 83 86 91 89 80 69 68 68 67 67 68 67 67 67
83 85 84 83 84 85 84 84 84 84 85 85 85 84 84 84 82 85 83 84 85 83 82 80 82 87 86 87 85 84 82 84 87 79 70 67 67 67 66 65 65 64 63
82 83 83 84 85 85 85 85 84 84 84 85 85 86 85 85 83 83 84 83 83 83 84 82 83 84 85 85 84 82 84 88 87 91 84 79 75 70 67 65 65 64 62
83 83 83 83 84 86 88 85 85 84 83 84 85 85 86 83 77 79 86 85 83 83 84 84 83 85 85 86 83 87 85 87 86 88 86 89 89 86 83 68 73 67 64
82 83 83 83 83 87 76 71 80 85 84 83 83 85 85 78 77 70 69 71 79 82 80 83 85 84 82 83 86 85 85 83 82 92 85 84 88 88 89 90 78 71 65
81 81 82 83 82 83 69 68 70 86 86 85 84 84 86 90 79 85 74 68 68 67 71 81 80 82 82 83 83 81 81 81 81 86 83 81 87 85 87 91 72 68 66
81 81 81 82 82 84 68 66 68 81 85 85 85 85 85 85 86 84 85 85 85 85 81 80 80 82 84 85 84 83 81 78 78 83 82 76 85 85 88 89 73 68 65
80 81 82 82 81 82 65 64 68 82 83 83 85 85 85 85 76 67 81 82 83 85 79 68 69 69 67 65 70 80 75 73 71 76 84 80 82 82 85 87 87 66 64
81 84 82 83 77 82 66 62 67 84 83 84 84 84 70 78 67 63 80 82 81 83 85 86 86 74 68 75 65 70 73 69 71 73 84 80 82 82 74 83 83 82 72

GFSMA_sfc_temp_054.txt.gz
Temp
92 93 92 96 95 96 95 94 94 94 92 94 96 94 94 93 94 98 93 81 82 82 82 82 82 81 81 81 81 81 81 81 80 80 80 80 80 80 80 80 79 79 79
91 93 91 94 95 97 96 96 94 94 95 95 92 94 94 94 92 94 96 88 81 82 82 82 82 81 81 81 81 81 81 81 80 80 80 80 80 79 79 79 79 79 79
89 91 92 89 94 92 91 92 92 94 95 96 92 93 94 92 93 92 96 89 86 81 82 82 82 81 81 81 81 81 81 80 80 80 80 80 80 80 79 79 79 79 79
89 88 91 94 93 93 95 94 95 94 94 95 93 94 93 94 92 92 94 92 93 91 83 81 81 81 81 81 81 81 81 80 80 80 80 80 80 80 79 79 79 78 78
88 90 93 91 90 94 95 95 95 94 92 94 93 93 94 94 94 96 92 93 92 94 93 82 81 81 81 82 82 82 81 81 80 80 80 80 79 79 79 78 78 78 77
89 90 92 88 91 94 93 95 91 94 94 95 96 93 94 95 96 95 94 96 93 94 97 92 92 84 81 81 81 81 81 81 81 80 79 79 78 78 78 77 77 77 77
90 89 91 89 91 92 92 90 90 86 92 92 91 91 91 92 93 96 99 99 93 96 95 96 94 96 89 81 81 80 81 81 80 79 78 78 78 77 77 77 77 77 77
90 91 89 89 89 91 88 88 88 91 92 92 88 91 85 89 94 97 97 97 95 99 97 94 94 92 92 96 87 80 79 80 80 79 78 78 77 77 77 77 77 77 77
91 90 89 88 89 91 90 88 88 88 89 90 89 89 85 85 90 93 91 95 93 95 97 94 94 93 92 94 86 84 79 79 79 79 79 78 78 78 78 77 77 77 77
92 92 90 89 88 93 88 89 91 91 89 88 90 92 89 87 83 84 92 94 94 93 93 95 96 94 92 94 85 81 79 78 79 80 80 79 78 78 78 78 77 77 77
91 92 90 90 88 88 88 88 87 87 91 92 91 91 89 92 90 88 87 89 93 95 96 95 97 97 94 94 95 86 78 77 77 78 79 79 79 79 79 79 78 78 78
93 90 91 90 89 90 88 88 88 87 88 89 92 92 92 90 91 90 89 88 89 94 97 97 96 96 97 96 92 79 77 76 76 76 77 78 78 79 80 80 79 79 79
94 91 89 88 91 88 90 87 87 88 87 88 86 92 94 93 94 93 90 91 89 95 94 97 97 97 98 97 96 83 77 75 74 73 74 75 76 77 78 79 80 80 80
94 93 90 91 90 90 90 89 91 90 90 89 87 87 93 93 94 93 91 89 87 91 93 88 99 98 97 97 93 79 90 73 72 72 71 72 73 74 75 76 77 78 78
95 93 92 90 91 90 90 89 91 89 89 88 89 88 89 94 94 94 94 92 88 84 89 92 94 95 97 98 93 94 92 79 72 71 70 70 71 72 73 74 74 74 75
90 92 90 90 90 90 90 88 91 90 88 91 92 89 88 94 93 93 93 93 92 89 86 95 96 96 96 97 94 92 92 80 73 71 70 69 70 71 72 72 72 72 72
90 88 89 89 90 90 90 88 88 90 88 88 89 89 87 88 92 94 94 93 92 91 87 92 97 97 90 88 91 93 93 92 94 72 70 69 68 69 70 71 71 71 71
89 88 89 88 89 90 90 88 88 91 88 88 88 88 88 91 87 87 92 88 90 91 89 83 89 92 90 92 90 87 91 97 97 86 71 70 68 68 68 68 68 69 69
87 90 89 88 88 90 89 89 88 89 89 89 89 89 88 88 86 90 90 91 93 90 90 88 87 93 94 95 92 90 89 90 94 83 73 69 68 67 66 66 65 65 64
87 88 89 89 89 90 90 90 89 89 89 90 90 90 90 89 88 87 88 87 88 88 90 89 90 91 93 94 94 91 89 94 95 99 89 81 79 73 68 65 65 65 62
88 88 88 89 89 91 94 90 90 90 88 89 90 90 91 88 80 82 91 89 88 89 90 91 90 92 93 94 91 94 92 94 94 97 96 97 97 96 92 68 74 67 65
87 87 88 88 88 93 79 74 83 90 89 88 88 90 90 81 80 72 71 71 77 85 85 87 89 88 87 89 93 92 92 90 87 96 92 92 96 94 95 96 81 72 65
87 86 87 88 88 89 71 70 72 90 90 89 89 89 91 96 84 91 74 69 70 69 70 81 82 84 85 87 88 86 86 87 86 90 85 84 90 90 94 97 75 69 66
86 86 86 87 88 89 69 67 70 87 89 90 90 90 89 90 90 90 91 90 90 90 83 83 83 85 86 87 87 85 82 81 86 87 83 76 88 86 92 93 76 70 66
86 86 87 86 86 87 67 65 70 87 87 87 89 90 90 89 79 69 87 86 87 89 84 69 71 71 69 67 72 85 81 82 81 85 90 83 87 85 90 93 94 74 66
87 90 88 88 81 87 68 63 69 89 88 90 88 88 73 82 70 65 84 85 84 87 89 90 91 81 69 74 66 77 83 74 76 75 89 83 87 85 75 83 83 82 84

GFSMA_sfc_temp_057.txt.gz
Temp
84 86 92 79 82 85 97 83 92 91 94 94 88 89 95 95 97 95 89 82 82 83 82 82 82 82 82 82 82 82 81 81 81 81 81 81 80 80 80 80 80 80 79
86 84 94 83 88 85 87 88 89 90 91 93 93 89 87 92 93 88 91 87 82 82 83 83 82 82 82 82 82 82 82 81 81 81 81 80 80 80 80 80 80 80 79
92 84 92 82 84 91 93 93 94 96 96 93 87 90 93 90 94 92 85 90 87 82 82 82 82 82 82 82 82 81 81 81 81 81 80 80 80 80 80 80 79 79 79
91 90 88 85 95 93 88 79 92 89 95 91 83 87 87 92 93 93 85 85 85 92 83 82 82 82 82 82 81 81 81 81 81 80 80 80 80 80 80 79 79 79 78
91 92 92 90 89 93 84 93 89 89 93 91 85 91 90 92 88 95 93 92 91 84 85 81 81 81 82 83 83 82 82 81 81 80 80 80 80 79 79 78 78 78 77
91 91 85 92 92 89 94 85 92 86 88 84 95 92 90 94 96 94 94 97 94 94 87 86 84 83 81 83 82 81 82 82 81 81 80 79 79 79 78 77 77 77 78
91 90 83 90 91 87 75 91 92 89 93 92 92 91 92 94 93 96 98 97 94 96 96 95 93 91 87 81 82 82 82 82 81 80 79 78 78 77 77 77 77 78 77
91 91 83 91 90 91 90 90 90 80 91 90 80 88 83 88 95 97 97 97 95 98 96 94 93 91 92 90 85 81 81 81 81 80 79 78 78 78 77 77 77 77 77
93 93 90 86 90 88 91 88 89 88 82 92 90 85 83 72 88 94 92 96 93 94 96 94 94 93 91 93 85 83 81 80 81 80 80 79 78 78 78 78 77 77 77
93 93 91 90 89 84 87 89 89 85 84 89 92 93 88 88 78 76 93 94 94 94 94 95 95 94 93 93 85 82 79 78 79 80 80 80 79 79 79 78 78 77 77
93 94 91 90 89 90 89 84 88 88 92 85 92 91 90 92 90 80 84 89 94 96 97 94 97 98 94 94 95 86 78 77 77 79 79 80 79 79 79 79 78 78 78
93 92 93 88 90 90 89 90 89 88 86 91 91 93 91 88 84 90 89 87 89 93 97 98 96 97 98 97 92 80 78 77 76 76 77 78 79 79 80 80 79 79 79
96 91 91 90 91 89 90 90 88 87 88 89 87 92 95 94 95 93 91 91 90 94 94 97 98 98 99 97 97 86 78 75 74 74 74 75 76 77 78 79 80 80 80
97 93 91 92 91 91 91 89 90 90 90 89 88 87 93 94 95 94 92 90 87 91 93 91 99 99 98 98 92 80 90 74 73 72 72 72 73 75 75 77 77 78 78
98 95 93 91 92 91 91 90 91 89 90 89 89 88 89 94 96 96 95 93 89 84 89 90 94 97 98 99 95 94 93 79 73 72 71 71 71 72 73 74 74 75 75
93 94 93 92 91 91 91 90 91 91 90 91 92 89 88 93 95 95 95 95 93 89 85 95 97 98 99 99 94 94 94 82 73 72 71 70 70 71 72 72 72 73 73
92 91 91 91 90 90 91 89 89 92 88 89 90 91 89 89 92 95 95 94 93 92 88 92 97 97 94 90 92 93 92 93 94 72 71 70 69 70 70 71 71 71 71
91 91 90 90 90 91 91 89 88 91 90 89 89 89 89 92 88 88 91 90 91 91 90 83 88 91 89 91 91 89 92 96 95 86 70 70 69 68 68 68 68 68 68
89 91 90 89 89 90 90 90 89 89 90 90 90 90 89 89 87 90 90 91 93 91 90 88 88 93 94 95 93 91 90 91 96 85 77 71 69 68 67 66 66 65 64
89 89 90 90 90 90 91 91 90 89 90 91 91 91 91 90 88 88 88 88 88 88 89 90 90 92 94 95 96 93 94 98 96 100 91 84 80 72 69 66 66 65 62
89 89 89 90 91 91 94 90 91 90 89 89 91 91 91 89 81 83 91 88 87 88 90 90 91 93 93 94 90 94 92 94 94 96 96 97 98 98 95 70 73 68 65
89 88 89 89 90 94 80 75 85 91 90 89 88 90 91 81 82 73 72 72 77 83 84 87 89 88 85 88 93 91 90 88 85 95 91 91 94 92 94 95 80 70 65
88 87 88 89 88 90 73 72 74 92 91 90 89 89 91 96 84 91 75 72 72 70 70 81 81 82 83 85 86 84 83 85 85 89 86 86 91 88 92 96 77 72 66
87 87 88 88 88 90 72 67 71 89 89 90 91 90 89 90 91 90 92 91 88 88 84 84 82 83 85 86 85 86 84 83 86 90 86 82 90 89 95 97 76 72 69
88 88 89 88 87 88 69 66 70 88 88 88 90 90 91 90 79 71 88 86 87 89 84 70 70 71 69 68 73 82 82 82 83 86 88 84 88 89 90 89 91 76 70
88 91 90 90 83 88 68 64 70 91 88 90 88 87 73 82 71 65 84 86 84 86 89 90 91 83 71 78 66 78 85 77 79 80 87 82 84 85 81 88 90 91 85

GFSMA_sfc_temp_060.txt.gz
Temp
76 76 76 76 78 82 80 78 80 82 77 84 82 85 88 88 86 84 80 82 82 82 82 82 82 82 82 82 82 82 81 81 81 80 80 80 80 80 80 80 80 80 79
78 81 79 78 73 78 82 83 82 83 82 84 82 84 84 86 85 83 82 80 82 82 82 82 82 82 82 82 82 81 82 81 81 81 81 80 80 80 80 80 80 79 79
81 81 77 83 84 79 84 83 86 85 82 85 82 82 86 86 84 83 83 82 81 82 82 82 82 82 82 82 82 82 81 81 80 80 80 80 80 80 80 80 79 79 78
84 77 76 74 82 84 82 80 82 83 82 81 80 78 80 86 83 84 84 84 82 84 82 82 81 81 82 82 82 82 81 81 81 80 80 80 80 80 79 79 78 78 78
89 76 74 75 84 78 83 82 83 83 81 82 81 79 82 83 84 88 84 84 84 81 81 81 80 81 82 83 82 82 82 81 81 80 80 80 79 79 79 78 78 77 77
89 84 82 86 86 79 81 85 81 84 81 80 89 85 82 84 83 84 86 87 84 83 84 80 78 80 80 82 82 82 82 82 81 81 80 79 79 78 78 77 77 77 78
88 85 83 85 82 76 80 82 84 82 81 83 79 80 81 86 86 84 85 85 87 86 84 82 80 82 80 80 81 81 82 82 81 80 79 78 78 77 77 77 77 77 77
87 87 85 86 80 77 81 81 74 77 82 82 78 76 74 77 82 86 85 87 87 87 87 87 83 83 81 79 79 80 81 81 81 80 79 78 78 77 77 76 77 77 77
86 86 85 86 84 82 82 82 78 80 78 79 83 78 73 70 75 81 84 83 84 83 84 85 85 83 83 81 79 79 79 79 80 80 80 79 78 78 77 77 76 76 76
88 87 87 87 85 77 83 83 84 81 77 78 81 85 81 80 73 72 80 82 84 87 85 83 85 84 83 82 82 80 78 78 78 80 80 80 78 78 78 77 77 76 76
88 89 86 86 83 82 82 83 83 83 80 78 79 80 81 80 79 76 73 77 81 83 83 83 85 83 83 83 80 78 78 77 77 78 79 79 79 79 79 79 78 77 77
87 87 86 85 85 83 83 83 84 84 82 81 80 80 80 78 79 77 76 78 78 81 83 83 84 84 83 83 88 83 78 76 76 76 76 77 78 79 80 80 80 79 78
87 85 85 83 84 85 85 83 83 84 84 83 83 81 80 81 81 81 79 78 78 80 81 84 84 84 89 83 84 80 78 75 74 74 74 75 76 77 78 79 80 80 80
86 85 86 85 85 85 84 84 84 84 83 83 83 82 81 82 84 83 80 78 75 78 80 82 85 84 84 84 85 79 79 74 73 72 72 73 73 74 75 76 77 77 78
89 86 86 86 86 85 85 82 82 81 82 83 82 83 82 82 83 84 83 82 78 73 75 80 81 86 85 85 84 81 81 75 73 72 71 70 71 72 73 74 74 74 75
87 84 85 85 86 86 86 84 83 83 81 81 84 81 82 82 83 85 84 82 81 78 74 80 82 85 85 90 85 84 85 81 73 72 70 70 71 71 72 72 73 73 73
87 87 87 86 85 85 86 84 83 84 83 82 84 84 81 82 83 83 83 82 81 81 76 79 82 83 83 83 84 83 84 83 83 73 71 70 69 70 71 71 71 71 71
86 86 85 86 85 85 85 84 83 85 83 83 83 83 84 87 82 82 82 80 82 82 79 76 79 79 81 82 82 81 85 91 85 84 73 70 69 69 68 68 68 68 68
85 87 86 84 84 85 84 84 84 83 83 84 84 83 83 83 81 82 82 81 81 82 80 78 78 81 81 83 82 82 82 82 87 83 77 73 70 69 68 66 66 65 64
84 85 85 85 85 85 85 85 85 84 84 85 85 84 84 83 82 82 82 80 82 81 80 79 79 80 81 82 82 80 80 82 82 92 87 83 80 72 69 66 66 65 61
85 85 84 85 85 86 89 84 85 84 83 83 84 85 85 84 79 79 84 81 81 81 81 80 80 80 79 79 78 80 79 81 83 83 85 85 87 88 87 73 72 69 65
84 84 84 84 84 89 79 75 82 85 84 83 82 83 85 78 79 74 72 72 77 79 78 78 79 78 77 78 79 80 80 79 76 82 82 82 85 85 86 86 79 71 68
84 83 83 84 83 85 73 72 74 86 84 84 83 83 85 91 80 85 75 72 71 71 72 79 77 77 77 78 79 78 78 78 78 82 81 79 84 83 85 91 72 70 68
83 83 83 83 84 85 72 68 71 83 84 84 84 84 83 83 83 83 84 83 81 81 79 78 77 79 80 81 80 81 79 79 81 83 81 76 83 81 83 85 75 73 69
83 83 84 83 83 84 69 68 69 80 83 82 84 84 84 83 77 72 80 80 81 82 78 69 70 70 70 69 73 78 78 77 77 80 81 78 78 79 80 81 80 74 68
84 86 85 85 80 83 69 65 69 85 82 83 82 82 72 79 71 64 78 81 79 80 82 83 83 78 67 73 66 71 78 75 76 75 79 75 77 76 72 78 81 79 81

GFSMA_sfc_temp_063.txt.gz
Temp
71 73 74 73 74 75 75 74 74 75 72 76 80 84 83 80 78 77 73 81 81 82 82 82 82 81 81 81 81 81 81 80 80 80 80 80 80 79 79 79 79 79 79
72 73 74 75 72 73 76 73 75 77 76 78 81 82 81 81 79 76 75 76 81 81 81 82 82 81 81 81 81 81 81 80 80 80 80 79 79 79 79 79 79 79 78
74 75 74 73 73 75 79 76 80 77 77 79 77 79 80 80 80 80 77 75 77 81 81 82 81 81 82 82 82 81 80 80 80 80 79 79 79 79 79 79 78 78 77
76 74 73 74 76 76 79 78 79 78 78 76 76 77 79 79 80 80 77 78 76 79 80 81 81 81 81 82 82 81 81 80 80 80 79 79 79 79 79 78 78 77 77
77 73 72 73 76 73 75 80 76 80 74 74 78 77 76 79 81 82 79 78 76 77 75 79 80 80 81 82 82 81 81 80 80 79 79 79 78 78 78 77 77 77 77
79 75 73 73 75 75 78 77 76 77 77 78 84 80 75 76 77 77 78 82 78 77 76 76 75 76 80 82 82 81 81 81 80 80 79 78 78 78 77 77 76 77 77
80 76 76 77 75 75 73 76 75 75 77 78 74 76 76 78 80 77 78 78 78 79 77 75 74 74 76 79 80 80 81 81 81 80 78 77 77 77 76 76 76 77 77
80 79 76 76 78 74 75 75 74 72 74 76 73 71 71 73 77 78 77 80 78 80 79 78 76 76 75 74 75 79 80 80 81 80 79 78 77 77 76 76 76 76 76
80 79 78 76 75 75 74 75 78 75 71 73 75 77 70 68 70 75 75 77 77 76 77 79 79 78 76 75 77 78 79 78 80 80 80 78 77 77 77 76 76 76 76
80 81 80 78 75 73 75 76 77 75 73 71 73 78 75 73 73 68 73 76 77 79 77 76 78 79 78 75 78 77 77 76 78 79 80 80 78 78 78 77 76 76 75
80 81 80 79 77 75 75 76 76 77 74 73 72 72 74 72 76 70 67 71 74 75 77 77 77 77 79 77 75 76 77 76 76 78 78 79 79 79 79 79 78 77 77
78 79 80 78 77 76 76 76 77 77 75 75 74 73 72 71 72 72 68 69 71 75 76 77 77 78 78 77 80 80 77 76 75 76 76 77 78 79 80 80 80 79 78
76 77 78 77 77 77 77 76 76 76 75 75 74 74 74 76 75 78 72 70 71 73 75 76 78 77 81 78 78 80 78 75 74 73 73 75 76 77 78 79 80 80 80
83 79 79 78 78 78 78 77 76 76 76 75 75 75 75 78 75 74 75 72 70 70 73 75 77 78 79 78 80 78 76 73 73 72 71 72 73 74 75 76 77 77 78
82 80 80 80 78 78 77 77 76 75 76 75 75 75 75 75 75 76 75 75 73 67 68 75 76 78 79 79 79 77 76 74 72 71 70 70 71 72 73 73 73 74 74
80 79 81 81 79 78 78 76 75 76 75 75 77 75 74 74 75 76 75 76 74 72 69 72 76 78 80 84 82 79 79 77 74 71 70 69 70 71 72 72 72 72 72
78 80 79 78 79 79 78 77 76 77 75 75 76 75 76 76 75 75 76 75 73 73 70 73 75 76 76 77 79 78 79 79 79 72 71 70 69 70 70 70 70 70 70
77 80 81 81 78 78 78 77 76 79 77 75 77 76 76 80 76 75 75 75 74 75 73 71 71 74 76 78 78 78 83 86 81 79 74 71 69 68 68 68 68 68 67
77 79 79 80 80 80 78 77 77 77 77 77 77 77 76 76 75 75 75 74 74 76 73 71 71 74 75 76 77 77 78 78 81 79 74 73 71 70 68 66 65 64 62
78 79 78 79 78 79 78 78 78 77 77 77 78 78 78 77 76 76 76 75 75 74 73 72 71 71 73 78 75 74 73 74 76 85 82 79 75 74 72 68 66 65 62
82 78 79 77 80 79 82 77 78 78 78 77 77 78 78 78 76 75 78 75 75 74 73 72 72 72 72 72 72 73 71 76 77 77 76 80 82 84 83 77 74 70 66
80 82 80 79 77 83 76 73 78 77 79 79 77 76 78 77 76 73 71 72 76 75 73 72 72 71 71 71 72 71 75 70 69 76 75 80 83 81 82 80 73 70 67
80 79 81 81 80 81 71 71 73 82 79 78 79 79 79 85 76 78 73 71 71 69 71 78 73 74 73 76 74 73 73 73 73 79 75 77 80 75 80 82 72 69 67
80 81 80 80 80 81 70 68 71 80 81 81 80 79 80 81 77 77 77 78 76 77 76 75 74 78 78 78 76 78 76 74 76 78 76 73 77 76 76 79 71 69 64
80 81 82 80 80 81 67 67 68 77 80 80 80 81 79 79 73 69 75 74 75 75 75 68 69 69 69 68 71 72 72 72 73 75 75 73 73 73 73 72 74 68 65
83 82 82 82 77 81 68 65 67 80 76 79 79 78 69 77 69 67 76 78 75 76 73 75 74 69 66 70 66 70 75 70 70 73 75 73 72 71 69 71 73 70 72

GFSMA_sfc_temp_066.txt.gz
Temp
70 72 72 72 73 74 73 73 72 74 73 76 77 79 80 76 75 74 73 81 80 81 82 82 81 81 81 80 80 80 80 80 79 79 80 79 79 79 79 79 79 78 78
71 72 72 73 72 72 72 72 73 74 73 74 76 75 75 76 75 74 73 75 80 81 81 81 81 81 81 81 80 80 80 80 80 80 79 79 79 79 79 79 78 78 77
73 73 71 71 72 72 74 72 74 74 73 76 75 75 76 75 76 75 74 73 76 81 81 81 81 81 81 81 81 81 80 79 79 79 79 79 79 78 78 78 78 77 76
73 73 72 72 73 74 73 73 75 73 73 74 76 74 74 75 75 75 74 74 74 76 79 81 80 80 81 81 81 81 80 80 79 79 79 79 79 78 78 78 77 76 76
75 71 71 71 74 72 73 76 74 76 72 72 74 73 73 74 75 79 75 75 73 75 73 78 79 79 81 82 82 81 81 80 79 79 79 78 78 78 77 77 76 76 77
76 73 71 73 73 73 74 74 73 74 73 73 80 77 73 74 74 74 75 78 74 75 74 74 74 75 79 81 81 81 81 80 80 79 78 78 77 77 77 76 76 76 76
76 74 74 74 73 72 72 75 73 75 75 74 72 72 72 75 74 74 75 74 75 76 74 74 72 73 74 79 79 80 81 81 80 80 79 77 77 76 76 75 75 76 76
77 76 74 74 75 72 73 73 72 71 72 73 71 68 66 71 72 75 73 75 74 76 76 76 74 73 72 73 75 79 79 80 81 80 79 78 77 77 76 75 75 76 76
78 76 76 74 73 72 72 73 73 72 70 71 71 75 65 65 66 71 72 73 75 72 75 75 76 75 73 72 75 77 78 77 79 80 80 78 77 77 76 76 75 75 75
78 78 77 75 73 72 73 73 76 72 71 69 71 75 71 70 66 66 71 72 73 74 73 73 75 75 75 73 76 76 76 76 77 79 80 80 78 78 78 77 76 76 75
77 78 77 76 73 73 73 74 74 73 72 71 69 70 70 69 69 67 66 70 72 72 73 74 74 74 75 74 73 74 76 76 76 77 78 79 79 79 79 79 78 77 76
75 76 77 76 74 73 74 74 74 74 72 72 71 71 73 72 70 68 65 66 68 73 73 74 73 74 75 74 78 78 77 76 75 75 76 77 78 79 80 80 80 79 79
74 75 75 74 74 74 75 74 74 74 73 73 73 72 71 71 71 71 69 67 67 70 73 74 75 74 78 75 76 78 78 75 74 73 73 74 75 77 78 79 79 80 80
79 76 77 76 76 75 75 74 73 74 74 73 73 73 72 72 72 71 71 69 68 67 69 72 74 74 74 75 77 77 77 73 73 72 71 72 72 73 74 75 75 76 77
79 76 77 76 76 76 75 74 73 73 74 73 73 73 72 73 72 72 71 71 70 66 67 72 74 76 75 75 77 77 76 76 73 72 71 70 71 72 72 73 73 73 74
77 76 77 77 76 75 75 73 73 74 73 73 73 73 72 72 72 73 73 71 70 69 67 70 73 75 78 81 80 78 78 75 74 71 70 69 70 70 71 71 71 71 72
77 77 78 77 77 76 75 73 73 73 73 73 73 73 73 73 72 72 73 72 71 69 67 71 70 73 74 75 77 76 77 77 78 73 72 71 69 69 69 70 70 69 70
75 77 78 78 78 77 75 74 73 76 73 73 74 73 74 77 73 72 72 73 72 71 70 68 69 72 73 76 76 76 80 82 78 78 72 70 69 69 68 67 67 66 66
74 75 77 78 78 78 77 76 76 75 74 74 75 74 74 74 73 73 73 72 72 73 71 69 70 71 72 73 74 75 75 76 79 77 74 72 71 69 67 67 66 64 61
76 75 77 78 79 79 78 78 77 75 74 75 75 75 75 74 73 73 73 73 73 72 71 70 69 70 70 73 72 72 72 71 75 82 78 75 73 73 72 70 69 68 64
77 77 76 77 78 79 80 78 78 76 74 73 74 75 75 76 74 74 76 73 73 72 71 71 70 70 71 71 71 71 70 72 74 72 74 76 77 80 80 74 74 69 64
77 76 75 77 77 81 74 71 76 77 76 75 74 73 75 74 73 71 70 71 75 73 73 71 72 72 71 70 70 70 69 68 68 73 73 77 76 77 77 76 68 65 63
78 78 77 76 76 78 70 69 71 78 76 77 77 78 76 81 74 76 70 68 68 68 72 75 72 72 71 74 72 70 70 69 70 77 73 75 75 73 76 76 65 63 62
77 78 78 79 78 78 68 67 69 78 76 77 78 78 77 78 76 75 75 74 74 74 72 72 73 77 78 78 73 76 73 71 72 75 74 70 74 73 74 72 65 63 61
77 78 79 78 78 80 66 66 67 76 78 77 78 79 78 78 72 66 76 73 74 75 72 66 68 67 66 66 69 70 71 69 70 72 72 72 72 71 71 70 69 63 60
79 79 79 80 75 79 67 64 66 78 77 78 78 78 69 75 67 64 74 76 74 76 74 74 72 67 64 68 65 69 73 70 70 69 73 73 71 70 68 69 65 63 61

GFSMA_sfc_temp_069.txt.gz
Temp
70 71 71 72 72 73 72 75 71 73 72 75 75 75 75 73 73 72 72 80 80 81 81 81 81 80 80 80 80 80 80 79 79 79 79 79 79 78 78 79 78 78 78
70 71 71 71 71 71 72 72 71 73 72 73 74 74 74 73 73 73 72 74 80 81 81 81 81 81 80 80 80 80 80 80 79 79 79 79 78 78 78 78 78 77 77
72 72 71 70 71 71 73 72 72 73 73 74 72 73 73 73 73 73 73 72 75 80 81 81 81 80 81 81 81 81 80 79 79 79 79 79 78 78 78 78 77 76 76
73 72 70 70 72 72 72 71 71 71 71 72 71 71 72 73 73 73 72 72 72 75 78 81 80 80 81 81 81 81 80 80 79 79 79 78 78 78 78 77 76 76 76
74 72 71 71 72 71 71 72 71 71 70 71 72 71 71 71 72 76 73 73 72 73 72 76 79 79 81 82 82 81 80 80 79 79 79 78 78 77 77 76 76 76 76
75 71 71 72 72 71 72 72 71 71 71 71 77 74 71 72 72 72 73 76 73 73 73 72 72 73 79 80 81 81 81 80 80 79 79 78 77 77 76 76 76 76 76
74 72 71 72 71 70 71 73 71 72 71 71 70 69 70 72 71 72 72 72 74 74 73 73 71 71 72 78 78 79 80 81 80 80 79 77 77 77 76 76 75 76 76
75 74 73 72 72 71 71 71 71 69 69 70 69 66 65 69 70 72 71 73 72 74 74 74 73 72 71 71 73 78 79 80 80 81 80 78 77 77 76 75 75 76 76
75 76 74 73 72 70 70 71 71 71 69 69 70 69 63 63 64 69 71 70 72 71 72 73 74 74 72 71 74 75 78 77 79 80 80 79 78 77 77 76 75 75 75
76 74 75 74 72 71 71 72 73 70 70 69 69 72 69 68 65 66 68 70 71 72 71 71 73 74 73 72 75 76 76 76 77 79 80 80 79 78 78 77 76 76 76
75 77 75 74 73 71 71 72 72 71 70 69 68 68 68 67 66 65 65 68 70 71 71 72 72 72 73 73 72 73 76 75 75 77 78 79 80 80 80 78 78 77 77
73 74 76 74 73 72 72 72 72 72 71 71 69 69 69 69 68 66 64 64 66 71 71 72 71 72 73 73 77 78 77 76 75 75 76 76 78 79 80 80 79 80 79
72 73 73 73 72 73 73 72 72 72 72 71 71 70 70 69 69 68 66 65 66 68 71 71 72 72 75 72 73 77 78 75 74 73 73 73 75 76 77 78 79 80 80
76 75 74 74 73 73 73 73 72 72 72 72 72 71 70 70 70 69 69 68 67 66 67 71 73 73 73 73 74 76 75 74 73 72 71 71 72 73 74 75 76 76 77
77 75 75 74 74 74 73 73 72 72 72 71 72 71 71 71 70 70 69 69 69 64 66 71 71 74 74 73 75 74 75 74 73 72 71 70 70 71 71 72 73 73 73
75 74 74 73 74 74 74 72 72 72 72 71 72 72 71 70 71 70 70 69 68 68 66 69 72 72 75 78 78 77 77 74 74 72 71 70 70 70 70 71 70 71 71
74 74 74 74 74 74 73 72 72 72 72 71 71 71 71 71 70 70 70 71 69 68 66 69 68 71 73 73 76 74 76 76 75 73 71 71 70 69 69 69 69 69 69
73 74 74 74 74 75 73 73 72 74 71 71 72 71 71 74 71 71 70 71 70 69 68 67 67 69 71 73 74 74 78 79 76 76 72 70 70 69 68 67 66 65 64
73 73 73 74 75 76 75 74 74 72 72 72 73 72 72 72 71 71 71 71 71 72 69 68 69 69 71 71 72 73 73 74 76 76 73 73 71 70 68 66 64 62 61
73 73 73 74 75 76 77 76 74 73 73 73 73 73 74 73 72 72 72 72 71 71 70 69 68 68 69 71 71 70 72 71 73 79 77 74 71 72 71 66 65 64 60
74 74 74 73 75 76 78 76 76 74 74 73 73 74 74 74 73 72 74 71 71 70 70 69 69 69 69 70 70 70 69 70 72 71 72 77 75 77 75 69 68 65 62
72 71 73 75 74 78 73 71 75 76 75 73 73 73 74 73 72 70 69 70 73 71 70 69 70 70 71 70 69 69 68 67 68 71 72 76 75 74 74 68 65 63 61
76 75 74 73 75 77 69 69 71 79 77 76 75 74 73 78 72 74 70 68 68 68 70 73 72 71 71 71 70 69 68 68 68 73 72 73 72 72 73 66 63 62 60
76 75 76 76 75 77 68 67 69 76 78 77 77 76 75 76 73 73 73 73 72 73 71 71 71 76 75 76 71 74 71 70 71 73 74 71 72 73 69 64 63 62 60
75 75 76 76 76 77 65 65 67 75 76 76 76 76 76 76 71 65 73 72 72 74 71 65 67 67 65 65 66 70 69 68 68 70 71 72 73 73 70 67 64 61 59
77 77 76 77 74 77 66 63 65 77 75 76 77 76 68 74 66 63 71 74 71 74 73 72 71 67 64 67 64 68 70 69 69 68 71 72 72 71 68 67 62 60 58

GFSMA_sfc_temp_072.txt.gz
Temp
72 73 74 74 74 75 75 74 74 76 75 77 77 77 77 77 77 77 77 80 80 81 81 81 81 80 80 80 80 80 80 79 79 79 79 79 79 79 79 79 78 78 77
72 73 74 74 74 74 74 75 74 75 75 76 76 77 77 77 77 76 78 78 80 80 81 81 81 81 80 80 80 80 80 80 80 79 79 79 79 79 79 78 78 77 77
73 73 73 73 74 74 75 75 74 76 76 77 75 76 77 77 77 77 77 78 79 80 80 81 81 80 81 81 81 81 80 80 79 79 79 79 79 78 78 77 77 76 77
74 74 73 73 74 75 75 75 74 75 75 76 75 75 76 76 77 77 77 77 77 79 78 80 80 80 81 81 81 81 81 80 79 79 79 79 79 78 77 77 76 76 77
75 73 72 74 75 74 74 75 74 74 74 75 76 75 76 76 76 79 77 77 77 78 78 77 78 79 81 82 82 81 81 80 79 79 79 79 78 77 77 76 76 76 77
75 73 73 74 75 74 74 75 74 74 75 75 79 77 75 76 76 76 77 79 77 78 78 77 77 78 78 80 80 80 81 81 80 79 79 78 78 77 77 76 76 76 76
75 73 73 74 74 74 74 75 75 75 74 74 74 74 75 76 76 76 77 77 78 79 79 78 77 78 78 77 78 79 80 81 81 80 79 78 77 77 77 76 76 76 76
74 74 73 74 74 74 74 74 74 73 73 74 72 70 70 73 75 77 76 77 77 79 79 79 78 77 77 78 78 78 79 79 80 81 80 79 78 77 77 76 75 76 76
76 75 75 74 73 73 73 74 74 74 73 72 74 73 70 69 69 74 76 76 76 76 77 78 79 79 78 79 78 78 77 77 79 80 81 80 79 78 77 77 76 76 75
76 76 75 74 74 73 74 74 76 74 74 73 73 75 73 73 71 71 74 75 76 77 77 77 79 79 79 79 79 78 76 76 76 78 80 80 79 79 78 78 77 76 76
77 76 76 75 74 74 74 75 75 74 74 73 74 73 72 72 71 71 70 73 76 77 77 77 79 79 79 79 79 78 76 76 76 76 77 79 79 80 80 80 79 77 77
75 76 77 76 75 74 74 75 76 76 75 74 74 74 74 74 73 72 70 71 71 76 77 78 77 78 79 79 80 78 77 76 75 75 75 76 77 79 80 81 81 80 79
74 75 76 75 73 75 75 75 75 75 75 75 75 75 74 74 74 73 72 72 72 75 76 79 79 78 81 79 79 77 77 74 74 73 73 73 74 75 77 78 79 80 80
76 76 76 76 76 75 76 75 75 76 76 76 76 75 76 76 75 74 74 73 73 73 74 77 79 80 80 80 79 76 81 73 73 72 71 71 71 72 73 74 75 76 76
78 77 76 76 76 75 75 75 75 75 75 75 76 76 76 77 76 76 75 74 74 72 73 77 78 80 81 82 80 83 82 75 73 72 71 70 70 71 71 72 72 72 72
76 76 76 76 76 75 76 75 75 75 75 76 76 75 75 76 76 75 76 75 74 74 73 75 78 78 81 83 82 82 82 74 73 72 71 70 70 70 71 71 70 70 70
75 75 76 77 76 75 75 73 74 75 75 75 75 75 75 75 76 76 76 76 75 74 74 76 75 78 78 79 82 82 82 83 84 73 71 71 69 69 69 69 68 68 68
75 75 76 76 76 76 76 76 75 77 75 75 76 75 75 77 75 75 75 75 75 75 75 73 75 77 77 79 79 79 82 85 83 79 71 70 69 69 67 66 65 64 63
74 75 75 75 76 76 76 76 76 76 76 76 76 76 76 76 75 76 76 76 76 77 75 74 75 76 77 79 80 80 80 81 83 77 73 72 71 69 66 63 62 61 59
74 74 75 76 76 77 77 77 76 76 76 76 76 76 77 76 76 76 76 76 77 76 75 74 74 75 76 78 77 76 79 81 80 85 79 75 71 71 66 64 63 62 59
75 75 75 76 76 77 79 76 77 76 76 76 77 77 77 76 72 74 78 77 76 75 75 74 74 74 75 76 76 78 75 77 80 79 80 84 84 84 77 68 68 64 61
73 73 74 75 76 79 71 70 75 77 76 76 76 76 77 74 73 69 68 69 74 76 75 75 75 74 76 75 77 76 75 75 74 80 78 81 84 82 78 75 64 62 61
73 73 73 74 74 76 68 68 70 78 77 77 76 77 77 80 74 78 70 67 68 67 70 77 75 76 76 78 77 76 75 74 75 80 77 78 82 80 76 73 63 62 60
73 72 73 73 74 76 67 66 69 77 78 78 77 77 77 78 77 77 77 77 77 77 76 76 75 77 79 79 78 79 76 75 76 79 78 73 82 80 72 72 63 61 59
74 74 75 73 73 74 65 64 67 76 77 77 78 78 78 77 70 65 77 76 76 77 72 65 67 67 66 65 70 76 75 72 75 78 79 77 79 76 73 74 70 61 58
75 76 76 75 71 74 65 62 65 77 76 77 77 76 67 75 65 62 74 76 75 77 78 79 77 70 66 71 63 73 77 73 74 74 78 75 77 75 75 76 73 71 70

GFSMA_sfc_temp_075.txt.gz
Temp
83 85 84 86 86 87 88 86 86 87 85 87 88 87 88 87 88 91 91 80 80 81 81 81 81 81 80 80 80 80 80 80 80 80 80 79 79 79 79 79 78 78 78
83 85 85 85 87 88 87 87 85 87 87 88 85 86 87 88 87 87 91 89 80 80 81 81 81 81 81 81 81 81 81 80 80 80 79 79 79 79 79 78 78 77 78
83 83 86 86 87 86 85 86 86 87 88 88 85 87 89 87 89 87 90 90 90 80 81 81 81 81 81 81 81 81 81 80 80 80 79 79 79 79 78 78 77 77 77
83 83 86 87 87 87 88 88 88 88 87 88 87 88 88 89 87 88 89 88 89 90 85 80 80 80 81 81 81 81 81 81 80 79 79 79 79 79 78 78 77 77 77
83 83 86 87 85 88 88 89 87 87 87 88 90 90 89 89 89 92 88 87 88 88 90 83 79 79 80 82 82 81 81 81 80 80 79 79 79 78 78 77 77 77 77
83 84 86 85 86 88 88 88 85 86 87 87 90 90 89 90 89 89 90 90 89 88 89 87 88 89 79 80 80 81 81 81 80 80 79 79 78 78 78 77 77 77 77
83 82 84 85 85 86 85 84 85 84 87 87 87 89 88 88 88 89 91 91 90 90 90 89 88 90 90 79 78 79 80 81 81 81 80 79 78 78 77 77 76 76 77
83 83 82 84 84 86 84 83 84 86 87 87 86 85 83 88 92 92 91 90 89 91 91 90 89 88 88 90 87 79 79 79 80 81 80 79 79 78 78 76 76 76 76
84 83 83 84 84 85 86 83 84 83 85 85 82 84 82 81 84 90 89 92 88 90 91 90 90 90 88 90 87 86 79 77 78 80 81 80 79 79 78 77 76 76 76
85 84 84 84 83 86 83 85 86 86 84 85 85 87 83 83 82 83 91 91 91 92 92 92 93 92 90 92 88 82 77 76 77 79 80 80 80 79 79 79 78 76 76
85 86 83 83 83 85 84 84 83 83 87 87 87 87 84 86 83 83 83 87 92 94 94 93 93 93 92 91 92 87 78 76 76 77 78 79 79 80 80 80 79 79 78
87 85 85 84 83 84 83 85 84 83 84 85 87 87 87 85 86 85 84 85 85 91 93 94 92 93 94 93 90 80 79 76 75 75 75 76 77 78 79 80 80 80 80
86 85 84 82 81 83 84 84 83 83 84 85 83 88 88 88 87 86 86 86 86 90 92 94 93 93 96 93 93 79 81 75 73 72 72 73 74 75 76 77 78 78 79
87 86 85 85 84 84 84 83 85 86 85 85 83 82 88 88 88 88 86 85 85 88 90 85 95 94 94 93 88 79 93 76 73 71 71 72 72 73 73 74 74 75 75
88 86 86 85 85 84 84 84 86 81 82 84 85 84 86 89 88 89 88 87 85 82 85 90 90 92 93 95 88 93 92 77 73 72 71 70 70 71 72 72 72 72 72
85 86 85 86 85 85 84 83 84 84 83 86 87 83 84 88 87 88 88 88 86 85 83 90 91 89 90 93 91 91 92 77 76 73 71 70 70 70 71 71 70 70 70
85 84 84 85 85 85 84 83 83 85 83 83 84 83 83 84 87 88 88 88 87 86 83 89 88 90 86 88 90 91 93 93 94 76 72 70 69 69 69 69 68 68 68
85 85 85 84 85 85 85 83 83 85 82 83 84 83 83 86 83 83 86 83 85 85 84 81 86 88 86 87 87 87 90 95 92 82 72 70 69 68 66 65 65 64 63
84 86 85 84 84 85 84 84 84 84 85 85 85 84 84 84 82 86 84 86 87 86 85 84 85 88 88 89 87 90 88 89 94 81 76 75 71 67 65 63 62 60 58
83 84 84 84 85 86 85 86 85 84 85 85 85 85 85 85 83 84 85 84 85 84 85 84 85 86 88 88 87 88 88 92 90 94 87 79 74 68 65 63 63 62 59
83 83 83 84 85 86 89 85 85 85 84 84 85 85 86 84 77 79 87 85 84 84 86 85 85 87 87 87 85 88 87 88 90 90 90 93 95 93 82 68 68 64 61
81 82 82 83 84 87 77 72 80 86 85 84 84 85 85 78 76 70 69 71 77 82 81 84 86 84 82 84 88 87 86 84 83 94 86 88 94 91 91 89 63 63 61
81 80 81 82 82 84 70 68 70 87 86 85 84 85 87 90 80 86 72 68 68 67 70 82 81 82 82 84 84 82 83 84 84 88 87 86 92 90 91 82 63 62 60
80 80 80 81 81 83 69 66 68 83 86 86 86 86 85 86 86 85 86 86 86 86 82 82 82 84 85 86 85 85 83 81 85 88 88 81 91 89 91 85 63 62 60
80 80 81 80 80 81 66 65 68 83 85 84 86 86 86 85 76 67 83 84 84 85 78 68 68 68 68 66 72 85 84 85 85 88 91 86 89 88 88 87 79 62 59
81 83 82 82 76 80 67 62 67 83 83 85 84 84 69 80 69 63 79 83 82 84 87 87 87 75 69 76 63 78 86 83 86 85 90 85 88 88 84 89 86 80 77

GFSMA_sfc_temp_078.txt.gz
Temp
89 92 90 93 93 96 94 93 93 93 92 94 94 93 94 94 94 97 94 81 81 81 82 82 81 81 81 81 81 81 81 81 81 80 80 80 80 80 79 79 79 78 78
90 91 91 92 93 95 94 94 92 93 94 95 92 93 93 94 92 94 96 90 81 81 81 82 81 82 82 82 82 81 81 81 81 80 80 80 79 80 79 79 79 78 78
89 90 92 94 93 91 91 93 94 95 95 95 91 93 95 93 93 92 97 96 90 81 81 81 81 81 81 81 82 82 81 81 81 80 80 80 80 79 79 79 78 78 79
88 89 93 95 93 94 95 95 96 94 95 95 93 94 94 95 93 93 95 96 96 99 84 82 81 81 81 82 82 82 82 81 81 80 80 80 80 79 79 79 78 78 78
89 92 94 93 91 95 95 97 94 93 93 94 94 95 95 96 95 99 95 95 95 97 97 82 81 80 81 82 82 82 82 81 81 80 80 80 80 79 79 79 78 78 78
90 91 92 92 92 95 94 94 91 93 94 94 97 95 98 99 99 99 99 99 97 96 98 94 94 93 80 81 81 81 81 81 81 81 80 80 79 79 79 77 78 78 77
89 88 93 91 92 93 90 91 92 89 93 94 93 95 96 96 97 100 102 102 97 99 99 99 95 97 95 81 80 80 81 81 81 81 80 80 79 79 78 77 77 77 77
89 90 89 91 90 93 89 90 89 93 95 95 90 90 90 92 97 101 101 100 98 102 102 99 97 95 95 97 92 81 80 80 81 81 81 80 79 79 78 77 77 76 76
90 89 88 92 89 90 92 89 90 88 92 93 89 88 80 86 92 97 95 100 96 101 101 99 99 97 96 97 92 91 81 79 79 80 81 80 79 79 79 78 77 77 76
90 89 90 89 88 93 90 90 93 91 88 90 93 96 89 87 87 89 95 96 98 99 97 102 102 100 98 100 93 85 80 77 78 79 80 80 79 79 79 79 78 78 77
90 91 89 89 88 92 89 90 89 88 93 92 94 94 91 94 90 89 89 92 97 100 100 102 101 103 101 99 100 88 79 77 77 77 78 78 79 79 80 80 79 79 79
92 90 90 89 88 90 89 90 89 88 89 90 93 92 93 91 91 92 92 90 92 95 100 101 101 101 101 101 94 81 81 78 76 75 75 76 77 78 79 80 80 80 80
93 89 89 87 90 88 88 89 86 88 88 90 87 93 95 95 95 94 92 92 93 96 97 100 100 101 102 101 98 82 83 77 74 73 73 74 75 75 77 77 78 78 78
94 93 90 90 90 90 90 89 90 91 90 90 88 88 94 96 96 95 92 90 91 93 94 90 101 102 101 100 89 83 97 76 74 73 71 71 72 73 74 74 75 75 75
95 92 92 90 90 90 89 88 91 88 88 88 90 88 90 96 95 97 95 94 90 88 92 93 96 99 99 101 92 97 97 80 76 74 72 70 70 72 72 73 72 72 72
91 92 90 91 90 90 90 88 90 89 87 90 92 89 88 94 94 95 95 95 93 90 87 96 97 96 95 97 95 96 96 81 80 76 72 70 70 71 71 71 71 70 70
90 90 90 89 89 90 90 88 88 90 88 88 89 88 87 89 92 95 95 94 93 93 88 94 96 97 91 91 93 94 97 97 101 76 74 71 71 70 70 70 69 68 67
90 90 90 87 90 90 90 88 88 91 88 88 88 88 88 92 87 88 92 89 92 91 90 84 91 93 92 92 92 91 96 101 99 82 76 73 71 69 67 66 65 64 63
88 91 90 88 88 90 89 89 89 89 89 89 89 88 88 88 86 90 90 92 93 92 92 90 90 95 95 95 93 93 93 95 101 84 77 73 71 67 65 64 62 60 59
87 88 89 90 90 90 90 90 90 89 90 91 90 90 90 89 88 87 88 88 89 89 90 90 91 93 94 95 94 94 94 98 97 100 91 84 72 68 65 63 63 62 59
88 88 88 89 90 91 94 90 90 90 89 89 90 90 90 87 80 82 91 89 88 88 91 91 91 92 93 94 90 94 93 95 95 98 97 97 100 94 77 66 68 64 62
87 87 87 88 88 93 79 73 83 91 90 89 89 90 90 81 80 72 71 72 78 85 84 88 90 89 87 89 93 92 92 90 87 99 94 94 99 98 101 97 66 63 62
86 85 86 87 87 88 73 70 72 90 91 90 89 90 92 97 84 90 73 69 69 68 70 84 83 85 85 87 87 85 87 87 87 93 92 91 96 96 100 78 63 63 61
85 85 85 86 86 89 71 69 70 87 89 89 91 91 89 90 92 90 90 90 89 88 84 85 84 86 88 89 88 89 87 85 89 93 94 89 96 94 98 86 63 63 62
83 85 86 85 85 86 67 66 70 86 87 87 89 91 91 90 79 69 88 88 89 90 82 71 72 71 68 66 73 89 89 89 90 93 98 95 95 94 97 96 77 63 61
83 86 86 87 80 85 69 63 68 88 87 89 88 88 73 83 71 66 84 86 85 88 91 92 89 79 71 80 66 80 88 87 90 90 97 92 93 94 90 97 93 76 77

GFSMA_sfc_temp_081.txt.gz
Temp
84 86 85 82 92 91 95 90 88 90 87 96 97 96 96 95 97 97 91 82 82 82 82 82 82 82 82 82 82 82 82 81 81 81 81 80 80 80 80 80 79 79 79
84 88 85 85 85 88 86 88 82 88 86 91 91 95 96 95 93 95 93 88 82 82 82 82 82 82 82 82 82 82 82 81 81 81 80 80 80 80 80 80 79 79 79
91 91 91 79 86 93 92 93 92 93 91 96 91 95 95 95 95 94 97 94 88 82 83 82 82 82 82 82 82 82 82 81 81 81 80 80 80 80 80 79 79 79 79
92 89 86 84 94 90 85 89 90 87 94 88 93 91 95 96 95 94 96 97 97 96 84 83 82 82 82 82 82 82 82 81 81 81 81 81 80 80 80 79 79 79 79
91 87 85 90 92 93 90 84 89 91 89 88 93 96 97 97 95 99 95 96 95 97 97 82 82 82 82 83 83 82 82 81 81 81 81 81 80 80 80 79 79 79 78
92 90 91 92 82 88 86 87 86 83 82 91 90 95 97 99 99 98 97 99 97 96 98 95 93 89 81 83 82 82 82 82 81 81 81 80 80 79 79 79 78 78 78
92 90 90 92 90 83 81 92 90 90 90 95 84 95 95 96 97 99 102 102 97 99 99 98 96 97 88 81 81 82 82 82 82 81 81 80 80 79 79 78 78 78 78
91 92 91 88 90 81 90 90 83 88 94 90 85 79 83 92 97 100 100 100 97 102 100 98 97 95 95 97 91 82 81 81 82 82 81 80 79 79 79 78 77 77 77
92 91 90 86 91 86 89 90 91 81 81 93 88 86 79 79 84 97 95 98 96 99 100 98 99 97 96 97 92 91 82 80 81 81 81 80 79 79 79 78 78 77 76
93 91 91 91 90 86 84 91 94 90 88 83 93 88 91 89 80 85 96 96 97 98 97 100 100 99 98 99 93 86 81 78 79 79 80 80 79 79 79 79 78 77 76
92 92 92 91 89 88 91 90 90 89 84 89 89 91 91 95 93 85 88 92 97 100 100 100 102 102 100 100 100 87 81 79 78 78 78 79 79 80 80 80 80 79 79
93 91 91 90 90 90 90 91 90 90 88 89 90 91 83 79 84 89 89 90 93 96 100 101 100 102 102 102 93 83 83 80 77 75 75 76 77 78 79 80 80 80 80
86 89 90 89 90 89 90 91 88 88 89 89 89 90 91 94 95 92 85 93 83 96 97 100 101 101 103 101 98 86 86 79 76 74 73 74 75 75 77 78 78 78 78
84 90 91 91 90 91 90 90 90 91 91 90 88 88 89 95 97 95 89 91 87 93 94 90 101 102 101 101 92 86 95 78 77 75 73 73 72 73 74 75 74 75 75
85 93 93 91 91 91 91 89 90 90 89 88 90 88 90 94 98 98 96 95 90 82 90 92 96 99 100 100 92 97 97 82 79 76 73 73 72 72 73 73 73 73 72
93 79 92 90 91 91 91 89 89 90 88 91 92 88 88 93 97 96 96 96 95 91 87 96 98 98 97 97 95 96 95 83 83 77 73 74 73 72 72 72 71 71 70
91 92 91 91 90 90 91 88 89 85 88 88 88 90 89 89 92 96 97 96 94 94 89 93 97 97 93 93 94 94 95 96 98 76 73 74 73 71 71 71 69 69 68
90 90 91 89 90 90 91 89 89 92 90 88 89 89 89 92 87 88 91 90 91 90 90 84 89 92 91 95 93 92 95 100 100 82 77 73 73 70 68 68 67 66 65
89 91 91 88 89 90 90 90 90 89 90 90 90 90 89 89 88 90 90 91 93 92 91 89 89 94 95 97 94 93 93 94 101 82 81 73 72 68 66 65 63 62 61
89 89 90 91 90 90 91 91 91 87 88 91 91 91 91 90 89 87 88 88 89 88 89 90 90 92 94 95 96 93 94 98 98 101 94 86 79 68 66 63 63 62 60
90 89 89 90 91 92 95 90 91 91 87 90 91 92 92 89 81 83 90 87 87 88 90 90 90 92 93 93 90 93 92 95 94 98 99 98 99 84 75 65 70 66 63
90 90 88 89 89 94 81 75 83 92 91 90 89 90 91 82 81 73 73 73 77 84 85 87 88 87 86 89 93 92 91 89 86 98 93 93 98 97 98 84 73 65 63
87 87 88 89 88 89 75 71 74 92 91 91 89 88 92 97 84 91 74 72 72 70 70 82 83 84 84 87 87 85 85 86 86 92 90 90 97 95 99 82 64 63 62
82 84 87 87 88 90 72 69 70 88 90 90 90 91 90 90 91 90 91 90 87 87 84 84 83 84 86 88 87 88 86 85 88 91 90 88 97 96 99 88 64 63 62
79 80 82 84 84 87 69 67 70 87 88 87 89 90 90 90 80 72 88 88 88 90 81 73 74 74 73 72 75 88 87 88 88 92 97 95 96 95 97 94 75 62 61
79 81 83 81 79 85 71 65 68 88 87 89 88 87 74 82 72 67 85 86 84 87 90 91 86 78 72 79 67 79 86 84 86 88 95 93 94 94 90 97 84 74 71

GFSMA_sfc_temp_084.txt.gz
Temp
83 82 74 79 76 84 75 77 75 83 81 87 88 88 89 89 88 85 81 81 81 82 83 82 82 82 82 82 82 82 81 81 81 81 81 80 80 80 80 80 79 79 79
81 74 76 77 79 86 81 77 79 84 82 86 87 89 88 88 88 85 83 81 81 82 82 82 82 82 82 82 82 82 81 81 81 81 80 80 80 80 80 80 79 79 79
80 76 73 76 80 86 87 76 83 84 84 87 86 86 88 88 89 88 86 84 82 82 82 82 83 82 82 82 82 82 81 81 81 81 80 80 80 80 80 80 79 79 79
89 83 78 79 84 78 81 73 84 83 83 84 82 82 86 87 88 88 87 87 83 85 82 82 82 82 82 82 82 82 82 81 81 80 80 80 80 80 80 79 78 79 79
90 86 82 82 83 76 82 82 82 82 82 81 84 86 86 85 86 92 87 88 88 85 84 81 81 81 82 83 83 82 82 81 81 80 80 80 80 80 79 79 79 78 78
89 84 84 84 75 84 83 80 82 81 82 81 87 89 85 87 88 85 87 91 87 88 87 83 80 81 81 83 82 82 82 82 81 81 80 80 80 79 79 79 78 78 78
88 86 83 84 79 81 80 85 83 82 84 84 82 80 83 87 88 87 89 89 88 91 89 86 85 83 81 81 81 81 82 82 82 81 81 80 79 79 79 78 78 78 78
88 87 81 81 78 78 84 83 78 81 83 83 79 78 73 79 85 90 87 90 88 90 90 90 87 86 84 81 81 81 81 82 82 82 81 80 79 79 78 78 77 77 77
88 82 86 82 81 82 80 83 85 82 79 82 84 79 74 72 77 83 85 85 86 85 86 88 89 87 86 85 86 83 81 80 81 81 81 80 79 79 78 78 77 76 76
88 89 88 84 79 77 77 81 85 81 82 80 82 85 84 80 76 74 82 84 86 89 88 86 88 88 87 86 87 82 81 79 79 80 80 80 79 79 79 79 79 78 77
89 89 87 88 82 80 77 81 86 84 80 80 79 81 82 82 82 77 75 78 82 85 86 86 89 87 89 89 84 81 82 79 79 78 79 79 79 79 80 80 80 79 79
86 86 88 86 84 78 78 84 86 86 83 83 81 81 80 76 78 77 77 80 80 84 87 86 87 88 89 88 90 84 83 80 79 76 77 77 77 78 79 80 79 79 79
76 81 85 84 84 83 81 84 85 84 85 82 81 81 82 81 79 82 79 79 78 83 84 86 87 88 93 88 86 85 86 79 77 74 76 74 75 76 76 77 77 78 79
77 83 84 85 86 84 85 84 84 84 84 84 83 82 81 83 84 84 81 79 77 79 81 84 86 88 87 87 86 86 86 80 77 74 76 74 73 74 74 75 75 75 75
77 83 77 85 86 87 84 83 81 83 84 83 83 82 82 82 83 85 84 83 79 75 76 83 82 89 88 88 85 87 87 80 77 76 75 75 72 72 73 73 73 73 72
79 74 76 77 85 85 85 83 82 82 82 83 84 82 82 82 83 84 85 83 83 80 76 82 84 86 87 90 89 87 87 81 81 78 75 75 72 73 73 73 72 72 71
81 76 72 75 84 85 84 82 82 83 82 81 82 82 81 82 82 83 82 82 82 82 77 80 83 84 83 84 86 86 86 86 86 76 77 74 72 72 72 72 71 70 69
87 86 82 84 84 84 83 82 83 85 81 81 82 82 82 87 82 82 82 80 82 82 80 76 79 80 81 82 85 84 88 94 88 82 76 73 72 70 69 69 68 67 66
85 87 86 84 84 85 85 84 82 83 84 82 84 82 82 83 82 81 81 81 81 83 81 79 78 81 81 83 82 84 84 84 91 86 76 72 73 69 67 65 65 64 62
85 85 85 86 85 85 86 85 84 83 84 84 84 84 84 83 82 81 82 80 82 81 80 79 78 79 80 83 83 81 81 82 82 93 89 80 75 69 66 64 64 63 60
86 85 85 85 86 87 90 85 85 84 82 83 84 83 86 84 80 80 84 81 80 80 80 79 78 79 79 79 79 81 78 80 80 81 82 82 79 72 68 65 69 67 63
85 85 84 84 84 89 80 74 81 85 84 82 82 84 85 81 78 73 73 74 76 79 78 79 79 77 76 78 79 78 77 76 74 82 80 81 81 84 80 73 70 67 63
81 83 84 84 84 84 75 71 71 85 85 82 82 83 85 91 80 85 74 72 73 70 72 77 75 77 77 78 79 78 78 77 78 81 80 79 82 81 82 82 70 65 62
78 78 81 82 82 85 72 71 71 79 82 83 84 83 83 83 84 83 83 82 81 81 79 77 76 78 79 80 80 80 78 78 81 83 82 77 83 82 82 73 65 64 61
72 76 79 80 81 82 70 66 68 77 82 81 83 84 84 83 77 72 81 81 82 83 78 71 72 72 71 71 74 78 77 76 76 79 80 78 79 79 81 72 66 63 61
71 73 76 78 76 80 71 66 67 82 81 83 82 82 73 77 70 68 77 81 79 81 83 84 81 73 69 73 68 75 79 77 77 76 81 78 78 78 76 80 73 65 63

GFSMA_sfc_temp_087.txt.gz
Temp
73 71 73 75 73 72 72 72 73 76 74 83 82 83 83 79 78 77 74 81 81 81 82 82 82 81 81 81 81 81 81 81 80 80 80 80 79 79 79 79 79 79 79
74 73 73 74 72 74 73 70 72 75 78 79 83 82 82 82 82 78 76 76 80 81 82 82 82 82 82 81 81 81 81 81 80 80 80 80 79 79 79 79 79 79 79
73 73 70 71 72 74 74 74 73 79 79 83 81 81 82 82 82 81 78 76 77 81 82 82 82 81 81 82 82 81 81 80 80 80 80 80 80 80 80 79 79 79 79
76 73 73 74 75 72 76 72 74 75 77 77 77 78 79 81 83 80 80 79 77 80 80 81 81 81 82 82 82 82 81 80 80 80 80 80 80 80 79 79 79 79 79
78 76 74 74 77 73 76 76 75 78 76 78 78 78 78 79 81 85 81 80 78 78 77 79 80 80 82 83 82 82 82 81 80 80 80 80 80 79 79 79 79 78 78
82 77 76 74 75 76 78 76 76 76 79 77 82 82 78 79 79 79 81 84 80 80 79 77 76 78 80 82 82 82 82 82 81 80 80 80 79 79 79 78 78 78 78
81 78 76 76 75 75 74 77 75 76 76 77 74 75 75 79 78 78 80 81 81 82 80 78 76 76 78 80 80 81 82 82 82 81 80 79 79 78 78 77 77 77 77
79 79 77 75 78 75 75 76 75 74 74 75 73 70 70 75 78 80 78 82 80 82 82 83 80 79 78 77 78 80 80 81 82 82 81 80 79 78 78 77 77 77 77
80 80 77 76 74 74 74 75 77 75 72 75 76 74 69 67 69 75 78 79 81 79 80 82 83 82 81 80 80 80 80 79 80 81 81 80 79 78 78 78 77 77 77
82 81 79 77 77 73 72 74 79 75 74 72 75 79 76 75 70 70 75 76 79 82 79 79 81 83 83 81 83 81 79 78 79 80 80 80 79 79 79 79 78 77 77
82 82 80 77 76 76 75 75 76 76 75 73 73 73 75 74 77 71 68 73 76 78 79 80 80 81 83 82 80 79 79 78 78 79 79 79 79 79 80 80 79 78 78
77 80 80 77 75 75 75 74 76 77 76 75 75 73 73 73 72 73 70 72 72 77 79 79 82 81 82 82 85 83 80 79 79 78 76 77 77 78 79 79 80 80 79
73 74 77 77 76 75 75 75 76 76 77 75 74 73 74 74 75 74 72 72 73 76 78 78 81 83 86 81 83 83 83 79 77 76 75 74 75 75 76 77 78 79 78
73 75 77 77 77 77 78 77 76 76 76 76 75 74 74 75 75 75 78 74 73 73 75 77 80 81 81 81 82 82 82 78 76 75 74 73 74 74 74 75 75 75 75
76 77 75 77 79 78 77 77 75 75 76 76 76 75 74 75 75 76 80 75 74 69 70 75 82 81 81 81 83 82 82 80 76 76 77 74 73 73 73 74 73 73 72
77 76 75 75 76 78 77 77 75 76 75 75 77 75 75 75 76 76 76 75 74 73 70 73 79 79 82 85 84 82 83 78 78 77 75 75 73 72 72 73 72 71 70
74 73 73 73 75 77 77 76 75 77 77 75 75 75 75 75 76 75 75 75 75 74 71 75 77 78 78 78 80 80 82 82 82 77 74 73 73 71 70 71 71 70 69
74 73 72 71 74 75 77 76 77 79 76 75 76 75 76 81 76 75 75 75 74 73 73 71 73 75 76 79 79 79 84 88 83 84 73 72 73 69 68 68 68 68 66
78 77 75 74 75 78 77 76 77 77 76 76 76 75 76 76 75 74 74 75 75 77 74 72 72 74 76 78 77 79 79 80 84 83 78 72 71 69 67 66 65 64 62
78 78 77 77 78 78 79 78 77 76 77 78 77 77 77 77 76 76 76 74 74 73 73 72 72 73 73 78 76 75 76 76 78 86 81 77 73 70 67 65 64 63 60
79 79 78 78 78 79 82 78 78 77 77 77 77 78 79 78 77 76 78 75 74 72 72 71 71 71 72 73 73 74 73 73 74 75 75 76 75 71 68 65 67 66 62
76 77 77 78 77 83 76 74 77 78 77 77 77 76 78 78 76 73 71 73 76 73 72 71 71 71 71 71 72 72 72 70 69 75 74 80 77 80 76 69 68 66 63
73 74 75 76 76 76 71 71 70 76 77 75 75 76 78 86 77 79 73 71 70 70 72 74 71 71 70 73 72 72 71 71 71 77 73 76 77 76 84 76 67 65 63
69 71 73 74 75 76 68 66 68 71 75 76 77 76 77 80 78 78 77 76 75 78 75 73 74 78 77 79 74 78 75 72 74 76 75 73 80 76 83 75 66 65 63
70 70 71 72 72 74 68 64 65 70 71 75 77 77 77 76 73 69 76 75 76 76 75 69 70 70 70 70 72 72 70 69 72 76 72 72 79 71 75 72 69 63 62
69 71 71 72 70 73 68 62 64 71 72 75 76 76 68 75 69 65 74 77 78 80 78 79 76 69 68 72 67 71 77 71 72 73 77 72 73 71 70 73 66 62 60

GFSMA_sfc_temp_090.txt.gz
Temp
72 72 71 72 71 70 71 70 71 74 73 78 79 81 78 77 75 75 73 81 80 81 82 82 81 81 81 81 81 81 81 80 80 80 80 80 79 79 79 79 79 78 78
72 71 71 73 72 72 71 70 71 73 74 77 78 80 79 76 77 75 74 75 80 80 81 82 82 81 81 81 81 81 81 80 80 80 80 80 79 79 79 79 79 79 78
72 72 71 71 72 73 73 72 73 75 76 77 78 78 77 77 76 76 75 74 76 81 81 81 81 81 81 82 82 81 81 80 80 80 80 80 80 79 79 79 79 79 78
74 72 71 71 73 72 73 71 74 73 74 75 74 75 76 77 77 77 76 75 75 77 79 81 81 80 81 82 82 82 81 80 80 80 80 80 80 80 79 79 79 79 78
76 73 72 73 73 72 73 74 73 73 74 74 76 76 77 75 77 81 77 76 75 76 75 78 80 80 82 83 83 82 82 81 80 80 80 80 80 79 79 79 78 78 78
78 75 74 74 73 74 74 72 74 76 75 74 80 80 75 76 76 76 77 80 76 77 75 75 75 77 80 82 82 82 82 82 81 80 80 80 79 79 78 78 77 78 77
77 75 74 73 74 73 72 75 74 75 73 73 72 73 73 75 75 76 77 77 77 78 76 76 74 74 76 80 80 81 82 82 82 81 80 79 79 78 77 77 77 77 77
77 77 74 73 74 73 73 74 73 72 72 73 70 67 68 72 74 76 76 78 77 78 79 79 77 76 76 76 78 80 80 80 82 81 81 79 79 78 77 77 77 77 77
78 78 76 74 73 72 72 73 73 73 71 73 73 71 66 66 67 72 74 74 76 75 77 79 80 79 78 77 79 79 80 78 80 81 81 80 79 78 78 78 77 77 77
78 78 78 75 74 71 71 72 77 73 71 71 72 76 72 71 68 69 72 73 74 77 77 76 79 80 80 78 81 80 78 77 78 80 81 80 79 79 79 79 78 77 77
79 79 77 75 73 73 72 73 74 74 72 72 71 72 71 71 71 68 67 71 74 75 76 76 77 78 80 80 78 79 79 78 77 78 79 79 79 80 80 80 79 78 77
73 76 77 75 74 73 73 73 74 75 73 73 72 72 71 71 71 69 68 68 69 75 75 74 74 77 78 79 82 81 79 77 77 77 77 77 78 79 79 79 80 79 79
72 74 75 74 74 73 73 73 74 74 74 73 72 72 71 72 74 71 69 70 70 73 75 76 76 72 81 78 80 80 81 78 76 74 74 74 75 76 77 77 78 78 78
71 74 75 75 75 75 75 75 73 74 74 73 73 72 71 72 72 72 72 70 70 70 71 74 77 76 78 79 81 80 80 77 75 73 73 73 73 74 75 75 75 76 75
72 75 75 75 76 76 75 74 73 74 73 73 73 72 71 72 72 73 73 72 70 67 69 74 76 78 79 79 80 80 80 77 75 73 72 72 71 72 73 73 73 73 73
74 74 74 75 75 75 75 74 73 73 74 73 74 73 72 72 73 73 73 72 71 70 68 70 76 79 79 82 81 80 80 76 75 74 73 72 70 71 71 72 72 71 71
73 73 73 75 74 75 75 74 73 74 74 73 73 73 73 73 72 73 73 72 72 71 69 72 74 77 76 76 78 78 79 80 80 75 73 72 70 69 70 70 70 70 70
73 73 73 71 72 73 74 74 74 76 74 74 73 73 73 77 73 73 72 72 72 71 71 69 70 73 74 77 75 76 81 84 80 79 74 72 69 69 68 67 67 66 66
73 73 73 71 70 73 74 74 74 75 74 74 74 73 74 73 72 71 72 72 71 73 71 70 70 71 73 74 76 76 77 77 81 80 77 74 71 68 66 65 64 63 62
74 73 73 73 74 75 76 76 75 72 74 75 75 75 75 75 73 74 73 73 72 71 70 69 69 69 70 73 73 72 73 73 74 83 77 73 72 71 67 65 64 64 61
74 75 75 75 75 76 79 75 75 75 74 74 75 75 76 76 74 73 76 73 72 71 70 69 69 69 70 70 70 72 70 70 70 70 72 72 74 74 73 67 68 67 63
73 73 74 74 74 79 71 70 73 75 75 74 74 75 76 75 74 71 70 70 72 72 70 70 69 69 69 69 70 70 69 68 68 71 71 76 73 77 76 73 70 67 63
69 70 71 73 73 74 69 68 68 71 73 73 73 74 76 82 75 77 73 69 68 68 71 73 71 70 70 70 70 69 68 68 68 74 71 75 73 75 81 79 68 66 63
68 68 70 70 70 73 67 65 67 70 71 73 74 74 74 75 75 76 75 75 75 74 72 72 74 78 75 77 73 77 72 70 71 71 72 70 75 74 79 75 70 65 62
67 68 69 69 70 71 64 62 64 70 70 71 73 74 75 75 70 66 72 73 73 75 73 66 68 68 67 66 68 70 69 68 72 73 70 70 77 70 70 72 72 64 61
66 68 68 70 68 72 58 58 62 68 69 71 72 73 66 70 64 59 69 74 74 77 78 75 74 68 65 69 65 71 75 70 70 70 74 69 68 69 69 72 69 65 62

GFSMA_sfc_temp_093.txt.gz
Temp
71 71 71 71 70 70 71 70 70 72 72 75 75 76 75 75 74 73 72 80 80 81 81 82 81 81 81 81 81 81 81 81 80 80 80 80 80 79 79 79 79 79 78
71 70 71 71 71 71 71 70 70 72 73 74 75 76 75 75 75 73 73 73 80 80 81 81 81 81 81 82 81 81 81 81 80 80 80 80 80 79 79 79 79 79 79
71 70 71 71 71 72 72 71 71 73 73 76 75 76 75 75 75 74 73 72 73 80 81 81 81 81 81 82 82 82 81 80 80 80 80 80 80 80 80 79 79 79 79
73 71 70 71 73 72 72 70 71 73 72 73 73 73 74 75 75 75 74 74 73 75 77 80 81 80 81 82 82 82 81 81 80 80 80 80 80 79 79 79 79 79 79
74 71 71 72 71 71 71 72 72 72 73 73 74 74 74 74 75 79 75 75 74 74 73 77 79 80 81 83 83 82 82 81 80 80 80 80 80 79 79 78 78 78 78
75 74 73 72 71 72 72 71 73 73 72 72 77 77 73 74 74 74 75 78 75 75 74 74 73 74 79 81 81 81 82 82 81 81 80 80 79 79 78 77 77 77 78
76 74 73 71 72 71 71 73 73 71 72 71 71 71 71 72 73 74 75 75 75 76 75 75 73 74 75 79 79 80 82 82 82 81 80 79 79 78 77 77 76 76 77
76 75 73 72 72 72 71 73 72 70 70 71 69 65 66 71 73 73 73 75 75 75 77 77 76 76 75 74 77 80 80 80 81 82 81 80 79 78 78 77 77 77 77
77 76 75 73 72 71 71 71 72 71 70 71 71 70 65 64 65 71 72 72 74 73 74 76 78 78 77 76 78 79 80 78 80 81 81 80 79 78 78 78 77 77 76
76 75 75 74 72 70 71 71 75 71 70 70 71 73 70 70 66 68 71 72 73 75 75 74 76 78 78 76 80 80 78 78 79 80 81 81 80 79 79 79 77 77 76
76 76 75 73 72 71 71 73 73 72 71 70 70 70 70 69 68 66 66 70 72 73 74 74 75 75 77 77 77 78 78 78 77 78 79 80 80 80 80 80 79 78 77
72 75 75 73 73 72 72 72 73 73 72 71 71 70 70 69 69 68 66 66 66 72 74 73 73 73 75 76 81 80 79 78 76 76 76 77 78 79 80 79 80 79 79
71 72 74 73 73 73 72 71 72 72 72 71 71 70 72 71 70 69 67 67 67 71 73 71 71 71 75 77 78 79 79 76 75 74 74 74 75 76 77 77 78 79 79
72 73 74 74 73 74 73 72 72 72 72 72 72 70 70 71 72 71 70 68 67 65 70 72 75 74 77 78 79 78 79 75 74 73 72 73 72 73 75 75 76 76 76
72 73 73 73 72 73 73 73 72 72 72 72 71 71 70 71 71 71 71 70 69 66 67 73 73 77 74 73 76 78 78 76 74 72 71 71 71 71 72 73 73 73 73
73 73 73 73 74 74 74 72 72 72 71 71 72 72 71 71 71 71 71 70 70 68 67 69 74 75 76 79 79 78 78 75 74 72 71 72 71 70 71 71 71 71 72
72 72 73 73 73 73 73 72 72 73 72 72 71 71 71 71 71 71 71 70 70 70 68 70 71 74 75 75 77 77 78 78 78 74 73 71 70 69 70 70 70 69 70
71 71 72 72 72 72 73 73 72 74 72 72 73 71 71 75 71 71 71 70 70 70 70 68 69 71 73 75 75 75 78 82 78 78 73 70 69 69 67 67 67 66 66
72 72 72 71 70 72 72 73 73 72 73 73 73 72 72 71 71 70 70 70 70 72 70 69 68 69 70 71 73 74 75 75 79 78 75 73 71 70 68 65 64 63 61
73 72 72 72 72 72 73 73 74 72 72 73 73 73 73 73 71 71 71 71 71 69 69 68 67 68 68 71 70 70 71 71 73 80 75 73 70 71 70 67 65 64 61
73 72 72 73 73 74 76 73 73 73 72 72 73 73 74 74 72 71 72 72 71 70 69 68 68 67 68 68 68 69 68 69 69 69 70 71 72 72 75 70 70 69 65
70 71 71 71 71 76 72 70 72 73 73 73 72 73 73 73 72 70 69 69 71 71 70 68 68 68 69 68 68 69 68 66 65 69 70 73 71 74 73 73 71 68 66
68 68 70 70 71 71 66 65 68 71 71 71 72 72 74 79 73 75 71 67 68 67 69 72 70 70 69 69 69 68 67 66 66 71 70 73 71 71 74 75 70 68 64
66 67 68 68 68 70 63 63 65 68 70 70 71 72 72 73 73 73 73 72 73 73 71 71 71 75 74 76 72 75 71 68 68 69 70 68 71 73 73 74 69 66 63
64 65 67 68 68 69 59 60 65 69 69 70 70 71 71 71 67 62 69 70 72 73 73 65 66 66 66 65 68 68 68 67 70 73 70 69 73 68 68 71 72 64 61
63 64 66 68 65 66 58 60 64 67 66 67 68 69 61 62 58 56 64 65 66 70 71 71 72 71 64 68 64 69 73 68 70 68 72 69 67 68 68 70 69 70 68

GFSMA_sfc_temp_096.txt.gz
Temp
73 74 73 74 73 73 73 73 73 75 75 77 78 78 78 78 77 77 76 79 80 80 81 82 82 81 81 81 81 81 81 81 81 81 81 81 80 80 80 80 80 79 79
73 73 73 74 73 74 74 73 73 75 76 77 77 78 78 78 78 77 78 77 79 80 80 81 81 81 82 82 82 82 82 81 81 81 81 80 80 80 80 80 80 80 79
74 74 73 73 73 74 74 73 74 76 76 78 78 79 79 79 79 78 78 78 78 78 80 81 81 81 81 82 82 82 81 81 81 81 80 80 80 79 80 80 80 79 79
75 74 73 73 74 74 75 74 75 75 75 76 77 78 78 78 78 78 78 78 78 80 79 79 80 81 81 82 83 82 82 81 81 80 80 80 80 80 79 79 79 79 78
75 74 74 75 75 74 74 75 75 75 76 76 77 77 77 78 78 82 79 79 79 79 79 78 78 79 81 83 83 82 82 81 81 81 80 80 80 79 79 78 78 78 78
77 75 75 75 74 75 75 75 75 76 75 75 79 79 77 77 78 78 79 81 80 80 80 79 79 80 78 81 81 81 82 82 81 81 81 80 79 79 78 78 75 77 77
77 76 74 74 74 73 74 76 75 75 75 74 75 75 75 77 78 78 79 80 80 81 81 81 80 80 81 79 79 80 81 82 81 81 81 80 79 78 78 77 76 76 77
77 76 74 74 75 75 75 75 74 74 74 74 73 70 70 75 77 79 78 79 80 80 81 81 81 80 80 81 81 80 81 81 81 82 81 80 79 78 78 77 77 77 77
77 75 74 74 74 74 74 74 75 74 74 74 74 73 71 70 70 76 77 78 77 79 80 80 81 81 81 81 81 81 79 78 80 82 82 81 79 79 79 78 77 77 76
78 78 77 75 74 74 74 75 77 74 75 73 75 76 74 74 72 72 76 77 77 80 80 79 80 82 81 82 82 80 77 77 79 80 81 81 80 80 79 79 77 77 77
76 77 77 75 75 75 75 76 76 75 75 75 74 74 75 74 73 72 72 74 77 78 79 79 81 81 81 81 82 81 78 77 77 78 79 79 80 80 81 80 79 78 77
75 77 77 75 75 75 75 75 76 76 76 75 75 75 75 74 74 73 72 73 73 77 79 78 79 80 81 82 84 79 78 77 76 76 76 77 78 79 80 80 80 79 79
74 75 76 74 74 75 75 75 75 76 76 76 75 76 75 75 75 74 73 73 73 76 78 79 77 77 83 83 84 79 79 75 75 73 73 74 74 76 78 79 79 79 79
74 76 76 76 75 75 75 75 75 76 76 76 76 75 75 76 76 76 76 74 74 72 75 78 81 81 83 81 81 77 84 74 73 71 71 72 72 72 74 76 76 77 77
75 76 76 76 75 75 76 75 75 76 76 75 76 75 75 76 76 77 76 76 75 73 73 77 79 83 80 81 81 84 83 75 73 72 71 71 71 71 72 73 74 74 74
75 75 75 75 76 75 76 75 75 75 75 76 76 75 75 76 77 77 77 76 75 75 74 75 80 81 82 85 84 83 84 77 74 72 71 70 70 71 71 71 71 72 72
74 73 74 74 74 75 76 75 75 75 75 75 76 75 76 76 76 76 77 76 76 75 75 77 77 80 79 80 82 83 83 84 84 74 72 70 70 70 70 70 69 69 70
74 72 74 74 75 75 75 75 75 76 73 75 76 75 74 78 76 75 76 75 75 76 75 73 75 77 78 80 79 78 83 87 84 80 72 70 71 70 69 68 66 66 66
74 74 73 73 72 74 74 75 75 75 75 75 74 75 74 75 75 76 75 76 76 77 75 74 75 76 77 78 79 80 80 80 84 78 74 72 71 70 68 67 66 63 61
75 74 73 74 73 74 74 74 75 75 75 76 75 75 75 75 74 75 75 74 76 75 74 74 74 74 75 78 77 76 78 80 80 85 79 74 71 71 69 66 66 66 62
72 73 74 74 75 75 77 75 76 76 76 76 77 76 77 75 72 72 76 76 75 75 75 74 73 73 75 76 76 78 75 77 79 78 79 81 81 82 82 75 74 70 66
70 70 72 72 72 74 68 68 73 76 76 76 76 77 77 74 74 69 68 68 72 75 75 74 75 74 75 75 76 76 75 75 74 79 77 79 81 81 83 84 73 68 65
68 69 70 70 70 71 63 64 66 72 74 75 75 75 77 81 75 77 71 68 68 66 69 77 75 76 75 78 76 75 75 74 75 80 77 78 82 81 83 87 70 67 64
66 67 68 69 70 68 60 61 65 71 72 72 73 73 73 74 69 69 73 76 77 78 77 75 74 77 78 78 77 78 76 74 75 78 77 73 82 80 83 83 70 66 65
63 63 66 69 66 63 59 61 66 70 69 70 71 69 69 66 61 60 70 70 71 74 73 66 64 64 64 63 67 75 75 73 75 79 78 77 80 79 80 81 82 66 63
63 64 66 66 62 63 56 57 61 63 63 65 68 68 62 62 59 59 64 64 66 70 72 73 74 73 70 73 65 71 76 74 76 75 80 76 79 78 78 81 81 83 83

GFSMA_sfc_temp_099.txt.gz
Temp
84 85 84 86 85 87 87 86 86 87 86 89 90 89 89 89 89 91 91 79 80 80 81 82 82 82 82 82 82 82 82 82 82 81 81 81 81 81 80 80 80 80 79
84 86 85 86 85 88 87 86 86 87 89 90 88 88 90 90 88 88 92 90 79 80 80 81 82 82 82 82 82 82 82 82 81 81 81 80 80 80 80 80 79 79 79
83 82 85 85 86 86 85 87 88 89 91 92 89 91 92 90 92 89 91 92 92 80 80 81 81 81 82 82 82 82 82 81 81 81 81 79 80 80 80 80 80 79 79
84 84 86 86 86 87 88 88 89 89 90 90 90 91 91 91 90 90 91 91 92 94 86 80 80 81 81 83 83 83 82 81 81 81 81 80 80 80 79 80 80 79 79
84 86 87 86 85 87 88 89 88 87 89 90 92 92 91 91 91 95 91 90 92 92 93 85 79 79 81 83 83 82 82 81 81 81 81 81 80 80 79 79 78 79 79
85 85 86 85 86 89 88 88 85 88 88 87 92 92 92 92 92 93 94 95 94 92 94 90 91 93 81 81 81 81 82 82 81 81 81 80 80 79 79 78 77 78 78
85 84 87 86 87 86 85 85 88 85 89 87 89 92 91 92 93 94 95 96 93 95 93 94 93 94 93 83 81 81 82 82 82 82 82 81 80 79 78 78 77 78 78
84 86 84 86 85 87 84 84 84 88 87 86 85 86 85 90 94 95 94 95 93 95 95 93 92 90 91 93 91 81 81 81 82 83 82 81 80 79 79 78 77 77 77
86 84 84 86 85 86 87 85 85 84 86 86 84 85 84 82 86 92 91 94 91 95 95 94 94 93 92 94 91 91 81 77 80 82 82 82 81 80 79 79 78 77 77
86 87 85 84 84 87 84 86 88 85 86 85 87 87 84 83 84 86 93 93 93 95 93 95 97 96 93 96 90 84 78 77 79 81 81 81 81 81 80 79 78 78 77
85 86 84 84 84 87 84 84 85 83 87 86 86 87 85 87 84 85 85 88 94 94 94 94 95 96 95 95 97 90 78 78 77 78 78 79 80 81 81 80 79 79 79
87 85 85 84 83 84 84 86 84 84 85 85 87 87 87 86 85 86 86 86 86 91 93 93 93 95 96 97 94 81 80 77 76 75 75 76 77 79 82 81 81 80 80
82 83 83 81 84 84 85 84 83 84 85 87 84 88 88 88 88 87 86 87 86 90 92 94 93 94 98 96 95 80 82 76 74 72 72 74 75 76 79 80 81 81 80
87 85 85 84 84 84 84 83 86 87 86 87 84 84 88 89 89 88 87 85 86 88 90 85 95 95 95 95 89 80 94 75 72 72 71 72 73 74 75 77 78 78 79
86 85 85 84 85 83 84 83 86 84 84 85 85 84 86 89 89 89 88 88 85 83 86 90 91 93 95 96 90 93 93 75 74 73 71 71 72 73 73 74 75 75 75
83 83 83 84 84 83 84 82 84 83 82 86 87 83 84 88 88 89 88 88 87 85 83 91 92 91 92 94 93 92 93 77 77 73 71 71 71 72 73 72 72 72 72
82 82 82 82 82 83 83 82 82 83 82 82 83 83 83 84 88 88 88 87 86 86 83 89 89 90 86 88 90 91 93 93 95 77 73 71 70 71 71 71 70 69 70
83 82 82 82 83 82 83 83 83 84 82 82 83 82 82 86 83 84 86 83 85 85 84 80 86 88 86 87 87 86 91 96 93 83 73 70 70 70 69 69 68 67 66
82 84 82 82 82 82 82 83 82 84 84 83 84 82 84 82 81 85 84 81 87 86 85 83 84 88 87 89 87 89 88 88 95 81 77 75 72 70 69 67 66 64 63
81 82 82 82 82 80 82 83 83 83 83 84 85 85 84 83 82 82 84 82 85 82 84 84 86 86 87 88 87 87 88 92 91 94 86 79 73 74 71 68 67 66 63
80 81 81 82 82 84 85 83 83 83 83 84 85 85 86 81 74 75 80 81 83 82 81 84 85 86 86 87 85 88 87 89 90 92 89 92 94 93 93 81 80 72 67
78 79 79 78 77 79 63 65 72 82 84 83 83 84 86 77 78 67 67 68 72 78 79 82 84 84 81 84 87 86 85 84 82 93 86 87 93 92 94 96 74 69 65
76 76 77 78 73 69 61 62 66 79 80 82 81 81 82 85 76 80 76 69 69 66 68 78 79 82 81 84 83 81 82 83 83 88 86 85 91 90 94 97 74 68 65
74 75 76 71 70 68 59 61 65 78 78 76 74 73 72 68 67 69 77 81 83 83 83 85 82 82 83 84 82 83 81 80 84 88 88 82 91 89 93 93 75 68 67
73 74 70 70 67 64 57 58 68 70 71 69 70 68 69 68 61 61 71 73 76 80 75 67 65 64 64 63 67 80 82 81 83 87 91 86 88 88 90 91 92 71 66
68 66 64 63 58 61 55 55 62 71 69 66 71 70 59 63 56 56 70 72 73 75 76 77 79 78 75 79 65 77 82 80 81 80 89 84 87 88 84 93 93 93 93

GFSMA_sfc_temp_105.txt.gz
Temp
91 85 88 87 94 93 97 96 96 96 94 97 97 97 97 97 99 99 94 82 82 82 82 82 83 83 83 83 83 83 83 83 82 82 82 82 81 81 80 80 81 80 80
86 94 90 93 88 94 97 96 94 97 97 97 96 97 98 97 96 98 97 90 83 83 82 82 83 83 83 83 83 83 83 83 82 82 82 81 81 81 81 81 81 81 80
92 91 94 84 88 94 93 95 96 98 99 99 96 98 97 98 97 96 100 97 89 82 83 83 83 83 83 83 83 83 83 82 82 82 82 82 81 81 81 80 79 80 80
92 90 85 96 96 95 96 97 97 99 98 98 97 99 98 99 96 97 98 100 100 98 84 84 84 83 83 84 84 84 83 82 82 82 82 82 81 81 80 79 79 80 80
92 87 85 93 90 95 97 93 98 95 96 99 98 99 99 99 98 101 97 98 98 101 101 83 83 83 84 85 84 83 83 82 82 82 82 82 81 81 80 79 79 79 80
92 92 92 93 90 94 96 96 91 96 96 96 98 99 99 100 100 99 99 102 99 99 102 98 97 93 83 86 84 84 83 83 83 83 83 82 81 81 80 79 79 79 80
92 91 85 93 93 91 91 93 94 92 96 97 95 97 97 99 99 99 103 104 100 103 102 100 101 99 97 86 85 85 84 83 83 83 83 83 82 81 80 79 79 79 79
91 92 91 90 83 93 91 91 90 93 96 96 92 95 90 94 100 102 102 102 101 104 101 101 101 98 99 102 94 84 83 82 83 83 83 83 83 82 81 80 79 79 79
93 92 91 88 92 87 87 90 92 91 92 94 93 86 88 82 94 99 97 101 98 101 102 101 102 101 99 101 96 90 81 79 81 82 82 82 83 83 82 81 80 79 79
93 92 92 92 90 91 90 89 93 90 90 92 96 97 93 91 84 89 98 99 100 101 100 102 105 102 101 103 89 83 81 79 79 80 81 82 81 82 84 82 81 80 80
91 92 92 91 90 92 91 90 91 89 94 91 94 95 92 96 94 92 81 94 99 102 103 103 103 104 103 102 102 89 81 78 78 78 79 80 81 81 83 83 82 81 81
92 92 92 91 90 88 90 91 90 90 89 90 93 93 94 83 83 86 91 90 91 97 102 102 101 102 104 103 94 85 81 78 76 76 77 78 79 80 81 83 83 82 82
92 89 90 89 90 89 90 90 88 89 90 89 88 91 96 96 96 95 94 78 93 92 96 98 93 102 103 103 99 88 81 77 76 75 74 75 77 78 79 81 82 82 82
86 88 90 91 91 91 91 90 91 91 92 91 90 89 91 97 97 96 93 91 89 84 76 93 101 98 93 99 89 87 96 78 77 76 74 74 75 76 78 78 79 79 79
88 92 92 91 92 91 91 90 90 90 90 90 91 90 90 95 98 98 97 96 91 85 88 87 86 95 95 99 92 97 96 81 80 78 76 74 75 75 76 76 75 75 76
87 85 91 91 91 91 90 89 91 90 89 90 93 91 89 93 94 96 97 96 95 91 87 95 96 98 95 97 96 95 95 83 83 80 77 74 75 76 75 74 74 73 72
88 90 88 88 88 90 90 87 87 86 88 88 89 89 88 89 91 93 94 95 94 94 89 93 94 95 92 93 94 95 95 95 98 77 76 76 76 76 74 73 72 72 71
88 88 89 89 89 89 88 87 87 92 89 88 88 88 88 92 89 89 92 90 91 89 89 84 88 92 91 95 95 92 96 101 99 82 78 76 76 75 73 71 70 70 68
89 90 89 88 88 90 89 88 88 90 90 90 90 89 88 88 87 89 87 88 91 91 82 88 87 93 95 94 94 93 93 94 101 83 80 75 76 74 72 71 68 67 66
88 89 89 89 90 90 90 90 89 88 89 91 90 85 88 88 88 87 88 86 89 86 88 87 79 88 92 86 90 92 93 97 96 100 94 85 83 78 73 70 70 68 66
89 88 88 87 90 92 91 85 89 88 88 89 91 91 90 82 77 76 86 86 85 85 88 86 86 90 86 88 87 92 92 93 92 96 96 97 97 99 99 78 79 74 70
88 88 87 87 87 90 64 64 71 88 87 86 86 90 91 86 79 72 71 71 74 81 81 83 84 85 83 85 88 87 86 85 82 94 90 90 97 97 100 101 76 76 69
83 83 83 83 81 78 60 62 67 83 86 85 86 86 86 84 82 85 74 71 70 68 69 79 80 80 79 81 81 79 80 79 82 87 86 82 95 94 94 98 71 71 72
79 78 79 78 77 72 58 59 64 82 83 81 82 81 81 81 70 71 78 85 86 85 82 84 82 82 82 81 79 82 80 81 84 87 86 74 91 92 94 93 72 71 73
73 72 74 76 73 69 55 57 65 81 78 78 78 75 80 76 59 60 78 80 81 83 78 70 71 68 67 65 69 81 84 76 76 83 88 76 85 86 90 93 83 71 69
68 69 70 71 62 68 54 55 61 85 80 80 77 72 59 65 57 57 74 77 76 78 79 82 84 81 70 77 67 78 82 78 76 79 85 82 83 80 80 89 91 94 85

GFSMA_sfc_temp_108.txt.gz
Temp
81 83 71 77 83 82 86 84 85 86 86 90 90 89 90 90 89 86 80 81 81 83 83 83 83 83 83 83 83 83 83 83 82 82 82 82 81 81 80 80 81 80 80
81 83 79 80 76 85 88 83 82 85 85 88 88 90 88 89 89 86 84 80 82 82 83 83 83 83 83 83 83 83 83 82 82 82 81 81 81 80 80 80 80 81 80
87 78 80 83 85 86 87 88 87 88 87 90 87 89 90 89 90 89 88 85 82 82 83 83 83 83 83 84 83 83 83 82 82 82 82 81 81 80 80 80 80 80 80
88 83 83 82 89 87 86 84 86 86 84 86 86 86 88 88 89 90 91 89 86 89 82 83 83 83 83 84 84 83 83 82 82 82 82 82 81 80 80 79 79 80 79
90 80 84 88 88 83 81 80 84 85 83 85 89 88 88 87 87 94 90 90 91 89 86 82 82 83 84 86 85 84 83 83 82 82 82 82 81 80 79 79 79 79 80
91 85 83 87 80 82 82 83 84 85 85 85 90 92 89 89 88 87 89 94 90 91 90 87 81 83 82 85 85 84 84 83 83 83 83 82 81 80 79 79 79 78 80
90 86 86 83 74 73 86 86 85 84 85 87 84 84 85 89 90 88 90 91 90 92 92 90 88 88 84 83 85 85 84 83 83 83 82 82 82 81 80 79 78 79 79
89 87 86 79 80 83 86 86 85 83 85 86 81 79 77 81 87 92 89 92 91 91 92 93 89 89 88 85 83 83 82 82 82 82 82 81 82 82 81 79 79 79 79
88 79 88 80 83 83 84 86 85 82 80 84 86 82 75 74 80 85 87 88 88 88 89 90 92 90 89 83 85 83 80 79 81 82 82 81 81 82 82 80 79 79 79
86 89 90 89 85 75 77 84 87 83 81 80 85 88 85 74 65 73 83 86 87 91 90 88 93 91 90 88 85 82 80 79 79 81 81 81 81 81 82 82 80 80 79
89 87 88 88 87 83 84 86 84 82 82 80 80 83 82 83 77 72 65 74 84 86 87 87 90 89 75 74 87 81 80 78 79 79 80 80 80 81 82 82 81 81 81
86 87 87 86 87 85 80 86 85 83 83 83 82 82 78 71 68 70 66 67 69 74 73 73 74 74 76 77 84 83 80 79 77 78 78 78 79 80 81 82 83 82 81
79 85 86 87 86 85 84 86 85 83 83 82 82 83 83 72 73 72 70 66 66 70 72 71 69 71 74 81 87 84 80 78 78 76 76 76 77 78 79 80 81 82 82
73 83 86 86 86 86 86 86 85 84 84 84 84 82 83 84 84 84 81 77 72 76 68 67 71 69 75 85 84 86 85 79 78 77 76 75 75 76 76 77 77 78 79
74 79 85 87 86 87 87 85 84 82 79 76 83 84 82 83 83 85 83 83 79 74 75 74 74 74 85 86 85 87 86 80 78 79 78 76 75 76 76 75 75 74 74
74 72 76 88 88 84 85 86 82 81 84 84 84 81 84 83 83 84 83 84 82 78 75 81 82 84 86 91 86 86 87 80 80 78 76 77 77 76 76 75 74 73 72
77 76 78 87 87 84 83 85 82 82 83 84 84 82 83 84 82 82 82 82 81 81 76 79 81 83 82 84 87 86 87 85 85 79 79 76 76 77 76 75 73 72 71
84 84 83 83 85 86 86 83 82 82 80 82 84 84 83 87 82 83 82 79 79 81 78 75 79 81 80 83 85 84 88 95 87 81 76 76 75 74 74 72 71 70 69
84 86 85 82 83 83 81 84 83 82 83 83 85 85 83 84 81 80 81 81 81 82 80 78 77 80 80 81 80 85 83 85 91 85 79 74 74 73 72 71 69 68 67
83 85 83 81 82 83 82 85 85 83 83 84 84 84 82 82 82 81 81 79 80 79 79 78 78 79 79 79 73 78 79 81 83 91 87 83 79 77 73 71 68 69 67
83 83 85 83 84 76 72 71 80 84 82 81 83 82 84 79 75 74 80 79 78 78 77 78 77 78 78 79 77 80 79 80 81 82 83 85 86 87 89 80 77 74 71
83 84 82 83 82 70 63 64 68 80 82 82 80 81 80 79 75 73 72 71 72 76 76 76 77 76 76 77 78 77 76 76 74 81 80 80 84 83 87 84 77 75 72
79 80 80 78 72 67 60 61 65 75 79 81 81 81 81 74 70 73 75 72 70 69 68 74 74 74 74 76 75 74 74 74 75 79 76 76 82 80 85 81 75 71 72
72 72 72 72 72 64 58 59 63 73 78 79 77 77 74 67 63 66 72 79 79 80 77 79 77 76 76 76 74 75 74 74 77 76 77 72 78 78 81 83 72 70 67
70 68 68 67 68 61 56 57 63 79 75 69 68 66 70 67 60 60 74 73 74 74 77 71 71 68 67 66 66 71 74 74 74 76 76 74 77 78 78 79 80 72 67
67 65 63 63 63 62 56 56 62 72 73 69 69 65 60 61 58 58 68 70 67 69 68 70 74 75 73 73 65 74 75 72 72 71 75 73 75 73 71 76 80 82 81

GFSMA_sfc_temp_111.txt.gz
Temp
71 70 68 72 71 73 75 75 77 80 79 82 84 85 84 80 78 76 73 81 80 81 82 83 83 83 83 83 83 83 83 82 82 82 82 82 81 80 80 80 80 80 79
72 71 69 72 71 72 75 75 79 79 80 82 82 84 84 83 80 78 75 76 81 81 82 83 83 83 83 83 83 83 82 82 82 82 81 81 80 80 80 80 80 80 79
79 73 75 74 76 77 81 81 80 80 75 78 81 82 83 84 82 80 78 75 77 82 82 82 82 82 83 83 83 83 82 82 82 82 81 81 80 80 80 79 79 80 79
79 78 76 76 77 77 74 78 79 79 76 76 78 80 80 82 84 82 80 79 78 82 80 82 82 82 83 84 84 83 82 82 82 82 81 81 80 80 79 79 79 79 79
83 76 75 75 76 76 74 75 77 78 78 78 80 79 78 79 83 88 83 82 80 81 79 80 81 81 83 85 84 84 83 82 82 82 82 81 80 79 79 79 79 79 78
84 79 78 74 71 71 78 79 77 79 81 79 85 85 79 79 80 80 83 87 82 83 82 81 79 80 81 83 84 84 84 83 82 82 81 81 80 79 79 78 78 78 78
82 80 77 75 73 71 73 79 79 78 78 78 77 77 77 80 80 80 82 82 82 84 84 82 80 79 81 81 83 84 84 83 82 82 81 80 81 80 79 78 78 78 77
82 79 76 74 76 73 77 78 78 76 76 77 71 72 71 68 79 82 80 84 82 84 86 87 85 84 82 77 77 79 82 81 82 82 81 80 80 80 79 78 78 78 78
82 80 78 74 74 74 73 76 77 76 73 76 77 76 70 71 70 75 76 80 74 75 75 73 75 75 76 75 78 79 80 79 81 82 82 80 79 80 80 79 78 78 78
82 81 81 79 77 74 75 75 80 77 75 73 76 82 71 70 63 66 76 74 76 71 71 71 70 71 73 72 75 77 78 78 80 81 81 81 80 80 80 80 79 79 78
83 83 81 80 77 76 75 77 77 76 76 74 73 74 71 69 70 64 62 65 68 70 72 70 71 69 71 72 72 73 79 78 79 79 79 80 80 81 81 81 80 79 79
76 81 81 79 77 77 77 77 76 77 76 76 74 72 70 67 66 65 63 66 64 69 70 69 68 69 69 71 78 77 80 78 78 77 77 78 79 80 81 81 81 81 80
71 71 74 78 78 77 78 77 77 76 76 76 75 77 74 68 68 68 66 65 65 68 69 70 69 73 72 70 73 77 79 77 77 77 76 76 76 77 79 80 80 81 81
71 73 73 79 79 78 79 78 77 76 76 75 76 75 74 75 72 69 68 64 61 65 67 68 70 70 70 70 73 76 80 77 76 75 75 75 75 74 76 77 77 78 78
72 73 74 75 79 79 79 78 76 76 75 75 76 76 75 76 76 77 76 76 75 66 67 66 68 71 70 71 75 81 82 80 77 75 73 75 75 75 74 75 75 75 75
73 72 73 75 78 79 79 78 75 76 75 75 76 76 75 75 77 77 79 75 74 72 69 72 71 75 74 82 84 83 84 78 78 76 76 74 76 76 74 74 73 73 72
71 71 72 73 78 78 78 77 76 77 78 76 76 76 76 76 75 75 75 75 76 76 70 73 75 78 78 79 81 81 82 82 83 79 77 73 73 73 73 73 73 72 71
72 72 73 75 77 77 77 74 76 77 76 75 76 76 76 81 75 74 74 73 74 74 72 69 72 75 76 78 78 77 83 89 82 82 75 73 73 72 71 71 70 70 70
74 76 76 75 76 77 77 77 76 76 76 76 78 77 77 76 74 74 74 73 73 73 73 71 70 75 75 74 73 77 78 78 85 82 79 76 74 72 70 70 69 68 67
76 75 75 76 75 75 72 75 77 76 76 78 79 78 77 79 74 74 74 73 73 72 72 71 70 70 72 74 72 71 74 78 78 84 81 77 77 76 74 72 69 68 66
77 76 75 75 69 69 68 66 69 73 75 76 76 75 76 75 74 73 74 72 72 71 71 70 70 70 69 70 70 71 71 72 77 75 79 79 80 82 82 78 77 70 71
73 75 75 73 66 67 63 65 66 69 74 75 73 73 70 68 69 69 70 70 69 70 69 69 69 69 69 70 71 70 70 68 67 75 75 77 77 77 75 79 74 73 72
72 71 70 65 59 58 60 61 65 67 71 73 72 71 68 68 65 67 69 71 72 68 68 69 68 69 69 70 68 66 67 67 68 73 72 71 75 74 74 78 75 71 70
71 69 68 66 61 61 58 59 62 67 67 65 66 64 62 61 61 63 68 70 70 70 68 71 67 68 69 69 68 68 68 69 71 71 70 67 73 74 77 76 72 71 67
67 65 65 64 62 60 57 58 63 68 65 62 61 64 63 61 60 61 67 66 66 67 70 67 66 65 64 63 66 69 69 66 65 68 72 67 69 72 71 73 79 71 69
63 62 61 64 61 60 57 57 63 68 64 62 62 61 60 60 57 58 63 62 61 62 62 66 69 73 71 66 68 69 68 64 63 63 69 66 67 67 64 69 73 76 76

GFSMA_sfc_temp_114.txt.gz
Temp
67 70 69 70 71 70 71 72 73 76 76 77 78 78 79 78 74 74 72 81 80 81 82 83 83 83 83 83 83 83 83 82 81 82 81 81 81 79 79 80 80 79 79
70 70 68 68 68 70 73 74 74 76 77 78 79 80 79 77 76 74 73 74 81 81 82 83 83 83 83 83 83 83 83 82 81 81 81 80 80 80 79 79 79 80 79
73 71 69 69 71 72 74 77 77 78 75 75 78 80 79 79 78 77 76 74 75 81 82 82 82 82 82 83 83 83 82 82 81 81 81 80 80 79 79 79 79 79 79
74 72 71 70 73 73 73 74 75 75 73 73 74 76 77 78 79 79 78 77 77 79 80 81 81 82 83 84 84 83 83 82 81 81 81 81 80 79 79 79 79 79 79
77 75 73 72 72 72 73 74 76 74 74 73 76 74 73 76 79 84 79 79 78 78 78 80 80 81 83 85 84 83 83 82 82 81 81 81 80 79 79 78 78 78 78
81 76 75 73 72 72 71 75 75 77 76 75 81 81 74 75 77 78 79 83 79 79 76 75 74 75 80 82 83 83 83 83 82 81 81 80 79 79 78 78 78 78 77
79 77 75 74 72 72 72 74 76 77 76 73 74 74 74 77 78 77 79 79 75 74 73 73 74 75 76 81 79 80 82 82 82 82 81 80 79 79 78 78 77 78 77
79 77 75 73 74 73 73 75 75 75 74 74 70 70 70 68 71 77 73 75 70 74 73 74 73 75 75 75 77 79 79 80 81 82 81 80 79 79 78 77 77 77 77
80 77 75 75 74 73 72 74 75 74 72 74 73 72 67 66 66 69 70 71 71 70 71 72 74 74 73 72 75 75 77 76 80 82 81 80 79 79 79 78 77 77 77
79 80 77 76 74 73 73 74 77 74 74 71 73 72 69 68 63 65 69 68 71 72 70 70 71 75 74 71 74 76 75 75 78 80 81 81 80 80 80 79 78 77 77
79 79 78 77 75 74 74 75 74 74 74 72 71 70 68 67 66 63 62 65 68 70 71 70 70 70 71 70 70 72 75 76 77 77 79 80 81 81 81 80 79 78 78
72 74 76 76 75 75 75 75 74 75 74 73 72 70 69 67 67 64 63 64 64 68 70 70 69 69 70 69 74 76 77 76 75 76 76 78 79 80 81 81 81 80 80
71 71 72 74 75 76 76 75 75 74 74 73 73 72 69 69 68 66 64 64 64 67 68 70 70 73 73 69 72 75 77 74 74 74 74 75 75 77 79 80 80 81 81
70 72 73 75 76 76 76 75 74 74 74 73 74 73 71 69 68 68 67 65 63 63 67 68 69 70 69 70 72 75 75 74 74 73 72 72 73 74 76 77 77 78 78
71 72 74 75 75 76 77 75 74 74 74 72 73 73 71 71 70 70 70 67 65 63 64 68 66 72 72 74 77 76 76 76 74 73 71 70 72 73 74 74 74 74 74
70 72 73 73 74 75 76 75 74 74 74 73 75 72 72 72 72 73 74 71 68 68 70 69 70 70 75 78 78 77 78 76 76 75 73 71 72 71 73 73 72 72 72
69 71 72 72 73 75 75 74 73 74 76 74 74 74 75 74 72 73 72 72 71 70 68 70 70 75 74 73 76 77 80 81 79 74 71 72 71 71 70 70 71 71 70
70 71 71 71 72 74 74 73 74 76 74 73 74 73 74 78 73 72 72 72 71 71 70 68 69 73 72 73 72 75 79 84 79 78 72 72 71 70 70 69 67 67 68
70 71 71 71 72 74 72 72 73 72 74 75 74 74 74 73 72 71 72 71 71 71 70 69 69 70 72 72 72 73 74 74 80 78 75 73 71 70 69 68 66 64 64
71 71 72 72 72 70 70 70 71 73 74 73 74 74 74 74 73 72 73 71 71 70 70 69 68 68 69 72 71 70 70 72 72 80 78 74 73 73 72 70 69 67 65
73 73 73 69 68 67 67 66 68 70 72 72 73 74 71 71 69 69 70 70 70 69 68 68 68 68 68 69 68 69 68 69 70 72 73 74 75 77 77 75 73 69 66
70 71 70 67 65 67 62 65 66 68 70 71 70 68 67 68 69 68 67 68 69 69 68 68 68 67 68 68 68 65 66 66 65 74 69 72 74 74 73 78 69 67 66
71 68 66 63 61 60 60 61 65 66 70 70 70 67 67 68 66 68 68 68 67 66 66 68 66 66 66 66 65 64 64 65 66 70 68 68 74 70 72 77 67 66 65
70 68 65 63 60 60 59 60 63 66 65 65 64 62 61 61 62 67 68 67 66 67 66 68 64 65 66 67 66 67 66 66 68 68 66 63 68 67 71 75 67 67 65
67 66 64 61 60 61 58 59 66 64 61 60 61 62 62 61 60 63 66 65 64 64 67 64 64 62 61 62 65 66 65 63 62 64 68 62 65 64 67 69 73 66 64
63 61 60 61 60 61 57 57 65 63 60 61 60 59 60 59 57 58 62 61 61 60 61 65 66 67 66 66 65 65 62 61 58 58 64 59 59 58 59 63 63 67 66

GFSMA_sfc_temp_117.txt.gz
Temp
67 69 68 68 69 68 71 72 73 73 74 75 76 76 76 75 73 72 71 80 80 81 82 83 83 83 83 83 83 83 83 82 82 82 82 81 80 80 80 80 80 79 79
68 69 68 69 68 69 72 72 72 73 75 75 77 78 76 75 74 72 72 72 81 81 82 82 83 83 83 83 83 83 82 82 82 81 81 80 80 80 80 80 79 79 78
71 71 69 69 70 71 73 73 73 75 73 74 75 76 76 75 75 75 74 73 74 81 82 82 82 82 82 83 83 83 82 82 81 81 81 80 80 80 79 80 79 79 78
73 71 70 71 71 72 72 72 73 74 72 72 74 74 74 75 76 77 76 76 76 78 77 80 80 81 82 83 84 83 83 82 81 81 81 80 80 80 79 79 78 79 78
75 71 71 71 71 71 72 73 74 72 73 73 75 74 72 73 76 79 77 76 77 76 74 79 79 79 82 84 83 83 82 82 81 81 80 80 80 79 79 78 78 78 78
76 73 72 70 70 71 73 74 73 74 74 73 78 80 74 74 74 75 76 78 75 75 74 75 74 75 79 82 81 82 82 81 81 81 80 80 80 79 78 78 77 78 77
77 75 71 72 72 72 73 74 74 74 73 71 72 72 71 73 73 72 72 72 72 73 73 73 74 74 75 79 79 80 81 81 81 81 81 79 79 78 78 78 77 77 77
77 76 73 72 72 72 73 74 73 73 72 71 70 68 65 68 69 71 71 73 71 73 74 75 74 75 74 73 76 80 79 78 80 81 81 80 79 78 78 77 77 77 77
77 76 75 73 72 71 72 72 73 73 70 71 69 70 66 64 64 67 69 69 70 71 71 72 74 74 72 71 73 75 77 75 78 81 81 80 80 79 78 78 77 77 77
76 76 76 74 73 72 72 73 75 73 72 70 71 71 67 66 62 63 67 67 69 71 71 70 71 73 71 70 74 75 75 75 76 78 80 81 80 80 79 78 78 77 77
75 78 76 74 73 72 73 74 73 73 72 70 69 68 67 65 64 62 62 64 66 68 70 70 70 70 70 70 70 73 76 75 76 76 78 79 80 81 81 80 78 78 78
71 74 76 74 74 73 73 73 73 74 72 72 70 69 67 66 65 63 62 63 63 66 69 70 70 69 69 69 76 76 76 75 74 75 75 76 78 79 81 81 81 80 79
70 71 73 73 74 74 74 73 73 73 73 72 72 71 68 67 67 64 63 63 64 66 68 70 70 71 73 70 72 76 76 73 74 73 73 74 75 76 78 80 80 81 81
70 71 72 73 74 75 74 73 72 73 72 72 72 71 69 68 67 66 65 65 64 63 65 68 69 70 71 71 74 76 74 73 73 72 71 71 72 73 74 76 77 78 78
71 71 73 73 74 74 74 73 72 73 72 71 72 71 70 69 68 68 68 66 65 63 64 67 67 71 74 75 76 75 73 74 73 71 71 71 71 72 73 73 74 74 74
69 71 72 73 73 74 74 73 72 73 72 71 72 71 71 71 70 70 70 69 68 67 64 68 70 70 74 77 77 74 78 75 74 71 72 71 70 71 71 71 72 72 72
68 69 70 72 72 73 73 72 72 73 73 72 72 71 72 72 71 71 70 70 69 68 65 69 69 72 73 72 74 74 79 77 76 72 72 71 69 69 69 70 69 69 70
67 68 70 71 71 72 71 71 72 74 73 72 73 72 72 75 71 71 70 70 70 69 68 67 68 70 70 72 71 72 76 80 75 75 71 70 69 69 67 66 65 66 67
68 69 70 70 70 72 73 72 72 72 72 73 73 72 73 72 71 70 70 70 69 71 69 68 67 69 69 71 71 71 72 71 78 76 74 70 69 69 67 66 64 63 62
69 68 70 71 71 71 70 71 72 72 72 72 73 73 73 72 71 71 71 70 70 69 69 67 67 67 68 70 69 67 67 69 70 77 75 71 70 71 68 67 67 65 62
70 70 71 70 68 69 68 67 68 71 72 71 72 72 70 70 69 68 70 70 69 68 67 67 66 67 67 67 66 66 65 67 68 71 69 72 71 71 69 67 67 66 64
70 70 70 67 65 66 62 65 65 67 69 70 70 68 67 69 68 67 67 67 69 69 67 67 67 66 65 65 64 63 64 65 64 70 66 69 71 72 64 64 66 64 63
70 68 65 64 62 61 61 62 65 65 67 68 69 66 67 68 67 68 66 66 66 64 66 68 65 65 65 65 64 64 64 64 64 65 64 65 67 70 68 70 64 64 62
69 68 65 63 61 61 60 60 63 65 65 64 64 63 62 63 63 66 66 66 65 65 64 66 63 64 64 65 65 66 65 64 66 61 61 62 64 64 73 71 64 63 61
69 67 65 61 61 61 59 58 64 64 62 61 61 63 63 62 60 63 64 64 63 64 65 62 62 62 61 61 63 64 62 61 60 60 60 58 58 57 65 63 66 62 60
64 62 60 59 59 60 58 58 63 62 59 58 58 60 61 60 59 60 61 61 60 59 61 63 61 62 61 62 62 58 60 58 55 55 58 56 54 53 55 57 60 60 59

GFSMA_sfc_temp_120.txt.gz
Temp
69 71 70 71 72 72 74 74 75 76 76 78 79 79 79 77 77 76 76 78 80 81 82 83 83 83 83 83 83 83 83 82 82 81 82 81 81 80 81 81 79 79 79
69 71 71 72 71 72 73 75 75 76 76 77 78 79 79 78 77 77 77 77 79 81 82 82 82 82 83 83 83 83 83 82 82 81 81 81 80 80 80 80 80 79 79
72 73 72 73 73 74 76 76 76 77 76 77 79 79 78 78 79 78 78 78 79 79 81 82 82 82 82 83 84 83 82 82 82 81 81 80 80 80 80 80 79 79 79
74 74 73 74 75 75 75 76 76 76 75 75 77 77 77 78 79 79 79 79 79 82 79 80 80 81 82 84 84 83 82 81 81 81 81 80 80 79 79 79 79 79 79
76 74 74 74 74 75 75 76 76 75 76 76 79 77 76 77 79 82 80 80 80 81 79 79 79 79 81 84 83 82 82 81 81 81 80 80 80 79 79 79 79 78 78
77 75 74 73 74 75 75 77 75 76 76 76 80 77 76 77 78 78 79 81 79 79 79 79 79 79 80 82 81 82 82 81 81 81 80 79 79 79 78 78 79 77 77
77 74 72 75 75 75 75 77 77 76 75 74 76 75 74 75 75 75 77 77 77 77 77 76 78 79 79 79 79 80 81 81 81 81 81 79 79 78 78 77 77 78 77
77 76 74 75 76 76 76 76 76 75 75 73 73 72 70 73 75 76 75 76 75 76 77 78 77 78 78 77 78 79 78 79 81 81 81 80 79 78 78 77 77 78 77
78 77 75 74 75 75 75 76 77 75 74 73 72 73 70 70 70 72 75 75 74 74 75 76 78 77 77 75 76 77 77 76 79 80 80 80 79 79 78 78 77 77 76
78 78 77 76 76 75 76 76 78 76 75 74 74 73 71 71 69 70 74 72 72 73 75 74 75 77 76 75 76 76 76 76 77 78 79 80 80 80 79 78 78 77 77
77 79 77 77 76 75 76 77 77 77 76 73 73 72 71 69 68 68 69 69 71 72 73 75 75 75 75 75 77 76 76 75 75 76 77 78 79 80 81 80 79 78 78
75 77 78 76 75 76 77 77 76 77 76 76 73 72 72 71 70 68 67 69 68 72 74 75 75 75 75 76 80 77 76 75 74 74 75 75 77 79 81 82 81 80 79
72 74 76 75 75 76 77 77 76 76 76 76 75 75 72 72 71 69 69 69 69 72 73 76 76 77 78 78 80 77 77 73 73 72 72 73 74 77 79 80 81 81 81
73 75 75 76 76 77 77 76 76 77 76 76 76 75 73 72 72 71 71 71 70 69 70 75 76 77 77 78 80 77 81 73 72 72 71 71 72 73 75 76 77 78 79
73 74 75 75 76 77 77 75 75 75 75 75 75 75 74 74 73 72 73 71 72 71 72 75 74 78 79 81 80 82 82 72 72 71 70 70 71 72 72 73 73 73 74
72 73 73 75 75 75 77 76 75 76 75 75 76 75 75 76 75 74 74 72 71 73 73 75 77 76 79 83 80 80 82 76 73 71 70 69 69 70 70 70 70 71 71
71 71 72 73 73 74 76 75 75 75 75 75 76 75 75 76 76 76 76 74 74 72 72 75 74 78 78 77 79 80 81 82 82 70 70 69 67 67 67 67 67 69 70
70 71 71 72 73 74 75 74 75 77 75 75 75 75 75 77 75 75 76 75 75 74 74 72 73 75 75 77 77 77 79 84 81 72 69 68 67 65 64 64 63 63 63
71 70 70 72 73 73 74 73 73 75 75 75 75 76 76 75 74 75 75 75 75 74 74 72 73 74 74 76 76 77 76 77 83 75 70 68 67 66 64 63 62 61 59
72 70 71 72 72 73 74 74 73 74 75 75 75 76 76 75 74 74 74 74 75 74 73 73 71 72 73 75 73 72 74 75 75 80 75 70 69 67 65 64 64 62 60
72 72 71 73 72 72 70 70 72 73 73 75 75 75 75 74 70 71 74 74 73 72 72 72 72 71 71 71 70 70 71 71 72 73 75 75 71 70 68 65 66 64 61
71 71 72 72 70 68 63 65 67 70 72 73 73 73 72 71 70 67 68 67 73 73 72 72 71 70 70 70 70 71 71 72 70 72 74 72 72 68 68 68 63 62 61
70 71 69 67 65 66 62 63 65 68 70 71 72 70 71 71 70 70 66 66 65 64 68 73 72 70 70 71 71 70 70 70 69 68 69 70 72 65 65 66 62 61 60
68 68 67 65 64 63 60 60 63 67 68 68 69 69 68 68 68 70 70 69 68 68 69 73 70 70 69 70 71 72 71 70 68 65 65 66 69 67 68 65 61 61 59
69 68 66 64 63 62 59 59 64 65 63 64 65 66 67 67 62 62 67 67 66 66 63 61 61 60 59 60 66 72 70 70 68 66 63 66 65 66 64 63 65 60 58
67 65 62 62 61 61 57 57 62 64 62 61 61 61 62 63 59 60 64 64 65 65 66 66 65 63 62 63 61 64 68 69 66 64 61 64 63 63 63 63 62 62 62

GFSMA_sfc_temp_123.txt.gz
Temp
84 85 83 86 85 86 89 88 88 90 88 90 90 90 91 90 92 94 94 80 80 81 82 83 83 83 83 83 83 83 83 83 82 82 82 82 81 81 81 81 80 80 79
83 85 85 86 86 87 89 89 88 89 89 92 90 90 90 91 89 88 93 92 80 81 82 83 83 83 83 83 83 83 83 82 82 82 81 81 81 80 81 80 80 80 79
84 83 85 87 88 87 86 89 89 89 91 92 89 90 92 90 91 89 92 94 92 81 81 82 82 82 83 83 84 83 82 82 82 82 81 81 80 80 80 80 79 79 79
84 84 86 88 87 88 90 90 90 89 89 91 90 91 91 92 90 91 92 91 92 94 87 81 81 81 82 84 85 83 82 82 81 81 81 81 80 80 80 79 79 79 79
85 86 87 87 85 90 89 91 89 90 89 90 91 90 91 91 91 95 90 90 91 91 93 86 80 79 81 84 84 83 83 82 81 81 81 80 80 79 79 79 79 79 78
86 86 88 86 87 90 89 89 86 87 89 90 93 90 91 92 92 92 92 93 92 90 90 88 90 91 80 81 81 81 82 82 81 81 80 80 80 79 79 78 78 78 78
85 85 87 87 87 88 86 87 89 86 88 87 87 87 87 90 90 91 92 92 91 90 90 90 90 92 92 81 80 80 81 80 81 81 81 80 79 79 79 78 78 78 77
85 86 84 86 86 89 86 86 86 88 87 87 88 88 85 86 90 92 91 91 90 91 92 90 89 87 88 89 86 79 78 78 81 81 81 80 80 79 79 78 78 77 77
86 85 84 85 85 87 89 86 86 85 87 86 83 86 84 84 86 89 88 90 88 90 90 88 89 88 87 88 87 86 78 77 79 80 81 80 80 80 79 78 78 78 77
86 86 85 85 85 87 86 87 88 86 86 86 87 86 83 84 84 85 89 89 88 88 89 89 90 89 87 89 85 80 76 76 77 79 80 80 80 81 80 79 79 78 78
85 87 85 85 84 88 86 85 86 85 88 87 87 86 83 85 82 84 84 87 90 90 90 90 90 91 88 89 92 86 77 76 76 77 77 78 80 81 82 80 79 79 79
87 85 86 85 83 86 84 87 85 85 85 86 87 86 87 86 86 85 84 84 83 88 90 90 89 90 91 91 87 77 77 76 75 74 75 76 79 81 83 82 81 80 80
85 84 84 83 83 85 85 85 84 84 85 86 84 88 87 87 86 86 85 85 84 88 89 91 90 90 89 92 91 80 75 74 73 72 72 74 76 77 79 81 82 82 81
85 84 85 84 85 85 85 85 87 87 85 86 84 84 87 87 87 86 85 84 85 86 87 84 91 91 91 91 85 81 88 72 72 70 70 71 72 73 75 76 77 79 80
84 83 84 84 85 85 83 84 86 84 84 85 85 84 85 87 87 87 85 85 83 82 85 88 89 89 91 92 83 91 89 71 71 70 68 68 69 70 70 71 72 74 75
81 81 82 83 84 84 84 83 83 85 83 86 87 84 83 87 87 87 86 86 84 81 79 88 90 88 88 93 86 90 88 80 70 69 67 67 67 67 68 68 69 71 73
81 81 81 81 82 83 83 82 81 83 82 82 84 83 83 84 87 87 87 85 85 84 81 88 88 88 85 85 87 88 90 89 80 68 67 66 65 65 65 65 66 67 67
81 81 81 80 81 82 83 82 83 85 83 83 84 83 83 87 83 83 85 81 83 83 83 79 83 83 82 83 84 83 88 90 83 68 66 66 65 64 63 63 62 62 62
80 81 80 79 80 82 81 81 81 83 84 83 84 83 82 83 81 85 82 82 86 83 83 79 81 86 86 87 85 83 83 84 85 70 67 66 65 65 64 63 61 60 58
80 80 79 80 80 81 81 81 81 80 81 83 82 82 83 82 81 82 82 80 82 79 80 81 83 84 84 84 85 84 82 84 84 84 73 71 70 68 65 64 63 61 59
80 81 79 80 81 81 82 81 80 80 80 81 83 82 83 78 72 75 82 80 79 79 77 77 82 83 83 82 82 83 82 81 79 83 81 80 79 78 74 68 68 63 61
80 80 79 79 78 81 64 65 71 79 80 80 80 82 81 73 74 68 68 68 72 79 78 78 78 78 79 81 82 83 83 76 78 80 78 75 78 74 73 71 61 61 60
79 78 79 79 77 76 63 63 65 77 79 79 79 79 80 82 74 80 68 66 67 66 67 79 77 78 78 80 80 77 79 80 78 79 80 72 76 72 74 71 61 60 59
74 77 76 76 72 71 61 61 64 76 77 77 76 78 77 77 77 78 78 77 76 75 75 83 79 79 79 80 79 81 79 74 75 77 76 75 76 72 72 69 60 59 58
70 69 71 73 70 66 59 59 63 70 71 71 71 72 74 76 63 63 76 74 70 68 63 61 60 60 60 60 67 81 79 77 78 77 75 78 74 72 72 72 69 59 57
69 69 67 68 62 64 58 57 61 66 65 64 65 65 60 65 58 59 73 70 65 66 69 69 73 69 69 67 65 72 81 79 80 75 71 74 73 74 66 71 71 71 71